[[{"header":{"parameterUnit":"m.s-1","parameterCategory":1,"la1":31.0,"la2":29.5877,"lo1":-88.7671,"lo2":-86.6584,"dy":0.0162,"dx":0.0185,"nx":115,"ny":88,"refTime":"2024-11-25T18:00:00:Z","depth":0,"parameterNumber":2,"parameterNumberName":"U-component_of_WINDS"},"data":[0.0,0.0,0.0,0.0,0.0,0.0,0.0,0.0,0.0,0.0,0.0,0.0,0.0,0.0,0.0,0.0,0.0,0.0,0.0,0.0,0.0,0.0,0.0,0.0,0.0,0.0,0.0,0.0,0.0,0.0,0.0,0.0,0.0,0.0,0.0,0.0,0.0,0.0,0.0,0.0,0.0,0.0,0.0,0.0,0.0,0.0,0.0,0.0,0.0,0.0,0.0,0.0,0.0,0.0,0.0,0.0,0.0,0.0,0.0,0.0,0.0,0.0,0.0,0.0,0.0,0.0,0.0,0.0,0.0,0.0,0.0,0.0,0.0,0.0,0.0,0.0,0.0,0.0,0.0,0.0,0.0,0.0,0.0,0.0,0.0,0.0,0.0,0.0,0.0,0.0,0.0,0.0,0.0,0.0,0.0,0.0,0.0,0.0,0.0,0.0,0.0,0.0,0.0,0.0,0.0,0.0,0.0,0.0,0.0,0.0,0.0,0.0,0.0,0.0,0.0,0.0,0.0,0.0,0.0,0.0,0.0,0.0,0.0,0.0,0.0,0.0,0.0,0.0,0.0,0.0,0.0,0.0,0.0,0.0,0.0,0.0,0.0,0.0,0.0,0.0,0.0,0.0,0.0,0.0,0.0,0.0,0.0,0.0,0.0,0.0,0.0,0.0,0.0,0.0,0.0,0.0,0.0,0.0,0.0,0.0,0.0,0.0,0.0,0.0,0.0,0.0,0.0,0.0,0.0,0.0,0.0,0.0,0.0,0.0,0.0,0.0,0.0,0.0,0.0,0.0,0.0,0.0,0.0,0.0,0.0,0.0,0.0,0.0,0.0,0.0,0.0,0.0,0.0,0.0,0.0,0.0,0.0,0.0,0.0,0.0,0.0,0.0,0.0,0.0,0.0,0.0,0.0,0.0,0.0,0.0,0.0,0.0,0.0,0.0,0.0,0.0,0.0,0.0,0.0,0.0,0.0,0.0,0.0,0.0,0.0,0.0,0.0,0.0,0.0,0.0,0.0,0.0,0.0,0.0,0.0,0.0,0.0,0.0,0.0,0.0,0.0,0.0,0.0,0.0,0.0,0.0,0.0,0.0,0.0,0.0,0.0,0.0,0.0,0.0,0.0,0.0,0.0,0.0,0.0,0.0,0.0,0.0,0.0,0.0,0.0,0.0,0.0,0.0,0.0,0.0,0.0,0.0,0.0,0.0,0.0,0.0,0.0,0.0,0.0,0.0,0.0,0.0,0.0,0.0,0.0,0.0,0.0,0.0,0.0,0.0,0.0,0.0,0.0,0.0,0.0,0.0,0.0,0.0,0.0,0.0,0.0,0.0,0.0,0.0,0.0,0.0,0.0,0.0,0.0,0.0,0.0,0.0,0.0,0.0,0.0,0.0,0.0,0.0,0.0,0.0,0.0,0.0,0.0,0.0,0.0,0.0,0.0,0.0,0.0,0.0,0.0,0.0,0.0,0.0,0.0,0.0,0.0,0.0,0.0,0.0,0.0,0.0,0.0,0.0,0.0,0.0,0.0,0.0,0.0,0.0,0.0,0.0,0.0,0.0,0.0,0.0,0.0,0.0,0.0,0.0,0.0,0.0,0.0,0.0,0.0,0.0,0.0,0.0,0.0,0.0,0.0,0.0,0.0,0.0,0.0,0.0,0.0,0.0,0.0,0.0,0.0,0.0,0.0,0.0,0.0,0.0,0.0,0.0,0.0,0.0,0.0,0.0,0.0,0.0,0.0,0.0,0.0,0.0,0.0,0.0,0.0,0.0,0.0,0.0,0.0,0.0,0.0,0.0,0.0,0.0,0.0,0.0,0.0,0.0,0.0,0.0,0.0,0.0,0.0,0.0,0.0,0.0,0.0,0.0,0.0,0.0,0.0,0.0,0.0,0.0,0.0,0.0,0.0,0.0,0.0,0.0,0.0,0.0,0.0,0.0,0.0,0.0,0.0,0.0,0.0,0.0,0.0,0.0,0.0,0.0,0.0,0.0,0.0,0.0,0.0,0.0,0.0,0.0,0.0,0.0,0.0,0.0,0.0,0.0,0.0,0.0,0.0,0.0,0.0,0.0,0.0,0.0,0.0,0.0,0.0,0.0,0.0,0.0,0.0,0.0,0.0,0.0,0.0,0.0,0.0,0.0,0.0,0.0,0.0,0.0,0.0,0.0,0.0,0.0,0.0,0.0,0.0,0.0,0.0,0.0,0.0,0.0,0.0,0.0,0.0,0.0,0.0,0.0,0.0,0.0,0.0,0.0,0.0,0.0,0.0,0.0,0.0,0.0,0.0,0.0,0.0,0.0,0.0,0.0,0.0,0.0,0.0,0.0,0.0,0.0,0.0,0.0,0.0,0.0,0.0,0.0,0.0,0.0,0.0,0.0,0.0,0.0,0.0,0.0,0.0,0.0,0.0,0.0,0.0,0.0,0.0,0.0,0.0,0.0,0.0,0.0,0.0,0.0,0.0,0.0,0.0,0.0,0.0,0.0,0.0,0.0,0.0,0.0,0.0,0.0,0.0,0.0,0.0,0.0,0.0,0.0,0.0,0.0,0.0,0.0,0.0,0.0,0.0,0.0,0.0,0.0,0.0,0.0,0.0,0.0,0.0,0.0,0.0,0.0,0.0,0.0,0.0,0.0,0.0,0.0,0.0,0.0,0.0,0.0,0.0,0.0,0.0,0.0,0.0,0.0,0.0,0.0,0.0,0.0,0.0,0.0,0.0,0.0,0.0,0.0,0.0,0.0,0.0,0.0,0.0,0.0,0.0,0.0,0.0,0.0,0.0,0.0,0.0,0.0,0.0,0.0,0.0,0.0,0.0,0.0,0.0,0.0,0.0,0.0,0.0,0.0,0.0,0.0,0.0,0.0,0.0,0.0,0.0,0.0,0.0,0.0,0.0,0.0,0.0,0.0,0.0,0.0,0.0,0.0,0.0,0.0,0.0,0.0,0.0,0.0,0.0,0.0,0.0,0.0,0.0,0.0,0.0,0.0,0.0,0.0,0.0,0.0,0.0,0.0,0.0,0.0,0.0,0.0,0.0,0.0,0.0,0.0,0.0,0.0,0.0,0.0,0.0,0.0,0.0,0.0,0.0,0.0,0.0,0.0,0.0,0.0,0.0,0.0,0.0,0.0,0.0,0.0,0.0,0.0,0.0,0.0,0.0,0.0,0.0,0.0,0.0,0.0,0.0,0.0,0.0,0.0,0.0,0.0,0.0,0.0,0.0,0.0,0.0,0.0,0.0,0.0,0.0,0.0,0.0,0.0,0.0,0.0,0.0,0.0,0.0,0.0,0.0,0.0,0.0,0.0,0.0,0.0,0.0,0.0,0.0,0.0,0.0,0.0,0.0,0.0,0.0,0.0,0.0,0.0,0.0,0.0,0.0,0.0,0.0,0.0,0.0,0.0,0.0,0.0,0.0,0.0,0.0,0.0,0.0,0.0,0.0,0.0,0.0,0.0,0.0,0.0,0.0,0.0,0.0,0.0,0.0,0.0,0.0,0.0,0.0,0.0,0.0,0.0,0.0,0.0,0.0,0.0,0.0,0.0,0.0,0.0,0.0,0.0,0.0,0.0,0.0,0.0,0.0,0.0,0.0,0.0,0.0,0.0,0.0,0.0,0.0,0.0,0.0,0.0,0.0,0.0,0.0,0.0,0.0,0.0,0.0,0.0,0.0,0.0,0.0,0.0,0.0,0.0,0.0,0.0,0.0,0.0,0.0,0.0,0.0,0.0,0.0,0.0,0.0,0.0,0.0,0.0,0.0,0.0,0.0,0.0,0.0,0.0,0.0,0.0,0.0,0.0,0.0,0.0,0.0,0.0,0.0,0.0,0.0,0.0,0.0,0.0,0.0,0.0,0.0,0.0,0.0,0.0,0.0,0.0,0.0,0.0,0.0,0.0,0.0,0.0,0.0,0.0,0.0,0.0,0.0,0.0,0.0,0.0,0.0,0.0,0.0,0.0,0.0,0.0,0.0,0.0,0.0,0.0,0.0,0.0,0.0,0.0,0.0,0.0,0.0,0.0,0.0,0.0,0.0,0.0,0.0,0.0,0.0,0.0,0.0,0.0,0.0,0.0,0.0,0.0,0.0,0.0,0.0,0.0,0.0,0.0,0.0,0.0,0.0,0.0,0.0,0.0,0.0,0.0,0.0,0.0,0.0,0.0,0.0,0.0,0.0,0.0,0.0,0.0,0.0,0.0,0.0,0.0,0.0,0.0,0.0,0.0,0.0,0.0,0.0,0.0,0.0,0.0,0.0,0.0,1.3944,0.0,0.0,0.0,0.0,0.0,0.0,0.0,0.0,0.0,0.0,0.0,0.0,0.0,0.0,0.0,0.0,0.0,0.0,0.0,0.0,0.0,0.0,0.0,0.0,0.0,0.0,0.0,0.0,0.0,0.0,0.0,0.0,0.0,0.0,0.0,0.0,0.0,0.0,0.0,0.0,0.0,0.0,0.0,0.0,0.0,0.0,0.0,0.0,0.0,0.0,0.0,0.0,0.0,0.0,0.0,0.0,0.0,0.0,0.0,0.0,0.0,0.0,0.0,0.0,0.0,0.0,0.0,0.0,0.0,0.0,0.0,0.0,0.0,0.0,0.0,0.0,0.0,0.0,0.0,0.0,0.0,0.0,0.0,0.0,0.0,0.0,0.0,0.0,0.0,0.0,0.0,0.0,0.0,0.0,0.0,0.0,0.0,0.0,0.0,0.0,0.0,0.0,0.0,0.0,0.0,0.0,0.0,0.0,0.0,0.0,1.5085,1.5092,1.5042,1.4829,1.4475,0.0,0.0,0.0,0.0,0.0,0.0,0.0,0.0,0.0,0.0,0.0,0.0,0.0,0.0,0.0,0.0,0.0,0.0,0.0,0.0,0.0,0.0,0.0,0.0,0.0,0.0,0.0,0.0,0.0,0.0,0.0,0.0,0.0,0.0,0.0,0.0,0.0,0.0,0.0,0.0,0.0,0.0,0.0,0.0,0.0,0.0,0.0,0.0,0.0,0.0,0.0,0.0,0.0,0.0,0.0,0.0,0.0,0.0,0.0,0.0,0.0,0.0,0.0,0.0,0.0,0.0,0.0,0.0,0.0,0.0,0.0,0.0,0.0,0.0,0.0,0.0,0.0,0.0,0.0,0.0,0.0,0.0,0.0,0.0,0.0,0.0,0.0,0.0,0.0,0.0,0.0,0.0,0.0,0.0,0.0,0.0,0.0,0.0,0.0,0.0,0.0,0.0,0.0,0.0,0.0,0.0,0.0,0.0,0.0,0.0,0.0,0.0,1.5323,1.5177,1.5114,0.0,0.0,0.0,0.0,0.0,0.0,0.0,0.0,0.0,0.0,0.0,0.0,0.0,0.0,0.0,0.0,0.0,0.0,0.0,0.0,0.0,0.0,0.0,0.0,0.0,0.0,0.0,0.0,0.0,0.0,0.0,0.0,0.0,0.0,0.0,0.0,0.0,0.0,0.0,0.0,0.0,0.0,0.0,0.0,0.0,0.0,0.0,0.0,0.0,0.0,0.0,0.0,0.0,0.0,0.0,0.0,0.0,0.0,0.0,0.0,0.0,0.0,0.0,0.0,0.0,0.0,0.0,0.0,0.0,0.0,0.0,0.0,0.0,0.0,0.0,0.0,0.0,0.0,0.0,0.0,0.0,0.0,0.0,0.0,0.0,0.0,0.0,0.0,0.0,0.0,0.0,0.0,0.0,0.0,0.0,0.0,0.0,0.0,0.0,0.0,0.0,0.0,0.0,0.0,0.0,0.0,0.0,0.0,0.0,0.0,1.5628,1.7122,1.6296,0.0,1.5751,0.0,0.0,0.0,0.0,0.0,0.0,0.0,0.0,0.0,0.0,0.0,0.0,0.0,0.0,0.0,0.0,0.0,0.0,0.0,0.0,0.0,0.0,0.0,0.0,0.0,0.0,0.0,0.0,0.0,0.0,0.0,0.0,0.0,0.0,0.0,0.0,0.0,0.0,0.0,0.0,0.0,0.0,0.0,0.0,0.0,0.0,0.0,0.0,0.0,0.0,0.0,0.0,0.0,0.0,0.0,0.0,0.0,0.0,0.0,0.0,0.0,0.0,0.0,0.0,0.0,0.0,0.0,0.0,0.0,0.0,0.0,0.0,0.0,0.0,0.0,0.0,0.0,0.0,0.0,0.0,0.0,0.0,0.0,0.0,0.0,0.0,0.0,0.0,0.0,0.0,0.0,0.0,0.0,0.0,0.0,0.0,0.0,0.0,0.0,0.0,0.0,0.0,0.0,0.0,0.0,0.0,0.0,0.0,0.0,0.0,1.6687,1.7278,1.6813,1.6312,0.0,0.0,0.0,0.0,0.0,0.0,0.0,0.0,0.0,0.0,0.0,0.0,0.0,0.0,0.0,0.0,0.0,0.0,0.0,0.0,0.0,0.0,0.0,0.0,0.0,0.0,0.0,0.0,0.0,0.0,0.0,0.0,0.0,0.0,0.0,0.0,0.0,0.0,0.0,0.0,0.0,0.0,0.0,0.0,0.0,0.0,0.0,0.0,0.0,0.0,0.0,0.0,0.0,0.0,0.0,0.0,0.0,0.0,0.0,0.0,0.0,0.0,0.0,0.0,0.0,0.0,0.0,0.0,0.0,0.0,0.0,0.0,0.0,0.0,0.0,0.0,0.0,0.0,0.0,0.0,0.0,0.0,0.0,0.0,0.0,0.0,0.0,0.0,0.0,0.0,0.0,0.0,0.0,0.0,0.0,0.0,0.0,0.0,0.0,0.0,0.0,0.0,0.0,0.0,0.0,0.0,0.0,0.0,0.0,0.0,1.7065,1.7439,1.7524,1.7405,1.6835,1.5797,0.0,0.0,0.0,0.0,0.0,0.0,0.0,0.0,0.0,0.0,0.0,0.0,0.0,0.0,0.0,0.0,0.0,0.0,0.0,0.0,0.0,0.0,0.0,0.0,0.0,0.0,0.0,0.0,0.0,0.0,0.0,0.0,0.0,0.0,0.0,0.0,0.0,0.0,0.0,0.0,0.0,0.0,0.0,0.0,0.0,0.0,0.0,0.0,0.0,0.0,0.0,0.0,0.0,0.0,0.0,0.0,0.0,0.0,0.0,0.0,0.0,0.0,0.0,0.0,0.0,0.0,0.0,0.0,0.0,0.0,0.0,0.0,0.0,0.0,0.0,0.0,0.0,0.0,0.0,0.0,0.0,0.0,0.0,0.0,0.0,0.0,0.0,0.0,0.0,0.0,0.0,0.0,0.0,0.0,0.0,0.0,0.0,0.0,0.0,0.0,0.0,0.0,0.0,0.0,0.0,0.0,0.0,0.0,0.0,1.823,1.7715,1.8366,1.8226,1.7433,0.0,0.0,0.0,0.0,0.0,0.0,0.0,0.0,0.0,0.0,0.0,0.0,0.0,0.0,0.0,0.0,0.0,0.0,0.0,0.0,0.0,0.0,0.0,0.0,0.0,0.0,0.0,0.0,0.0,0.0,0.0,0.0,0.0,0.0,0.0,0.0,0.0,0.0,0.0,0.0,0.0,0.0,0.0,0.0,0.0,0.0,0.0,0.0,0.0,0.0,0.0,0.0,0.0,0.0,0.0,0.0,0.0,0.0,0.0,0.0,0.0,0.0,0.0,0.0,0.0,0.0,0.0,0.0,0.0,0.0,0.0,0.0,0.0,0.0,0.0,0.0,0.0,0.0,0.0,0.0,0.0,0.0,0.0,0.0,0.0,0.0,0.0,0.0,0.0,0.0,0.0,0.0,0.0,0.0,0.0,0.0,0.0,0.0,0.0,0.0,0.0,0.0,0.0,0.0,0.0,0.0,0.0,0.0,0.0,1.7633,1.8461,1.9444,2.0533,1.9068,1.7904,0.0,0.0,0.0,0.0,0.0,0.0,0.0,0.0,0.0,0.0,0.0,0.0,0.0,0.0,0.0,0.0,0.0,0.0,0.0,0.0,0.0,0.0,0.0,0.0,0.0,0.0,0.0,0.0,0.0,0.0,0.0,0.0,0.0,0.0,0.0,0.0,0.0,0.0,0.0,0.0,0.0,0.0,0.0,0.0,0.0,0.0,0.0,0.0,0.0,0.0,0.0,0.0,0.0,0.0,0.0,0.0,0.0,0.0,0.0,0.0,0.0,0.0,0.0,0.0,0.0,0.0,0.0,0.0,0.0,0.0,0.0,0.0,0.0,0.0,0.0,0.0,0.0,0.0,0.0,0.0,0.0,0.0,0.0,0.0,0.0,0.0,0.0,0.0,0.0,0.0,0.0,0.0,0.0,0.0,0.0,0.0,0.0,0.0,0.0,0.0,0.0,0.0,0.0,0.0,0.0,0.0,0.0,0.0,0.0,1.7515,0.0,2.1119,0.0,1.966,1.8232,0.0,0.0,0.0,0.0,0.0,0.0,0.0,0.0,0.0,0.0,0.0,0.0,0.0,0.0,0.0,0.0,0.0,0.0,0.0,0.0,0.0,0.0,0.0,0.0,0.0,0.0,0.0,0.0,0.0,0.0,0.0,0.0,0.0,0.0,0.0,0.0,0.0,0.0,0.0,0.0,0.0,0.0,0.0,0.0,0.0,0.0,0.0,0.0,0.0,0.0,0.0,0.0,0.0,0.0,0.0,0.0,0.0,0.0,0.0,0.0,0.0,0.0,0.0,0.0,0.0,0.0,0.0,0.0,0.0,0.0,0.0,0.0,0.0,0.0,0.0,0.0,0.0,0.0,0.0,0.0,0.0,0.0,0.0,0.0,0.0,0.0,0.0,0.0,0.0,0.0,0.0,0.0,0.0,0.0,0.0,0.0,0.0,0.0,0.0,0.0,0.0,0.0,0.0,0.0,0.0,0.0,0.0,0.0,1.682,1.9805,2.2126,2.26,2.1022,2.0037,1.8407,0.0,0.0,0.0,0.0,0.0,0.0,0.0,0.0,0.0,0.0,0.0,0.0,0.0,0.0,0.0,0.0,0.0,0.0,0.0,0.0,0.0,0.0,0.0,0.0,0.0,0.0,0.0,0.0,0.0,0.0,0.0,0.0,0.0,0.0,0.0,0.0,0.0,0.0,0.0,0.0,0.0,0.0,0.0,0.0,0.0,0.0,0.0,0.0,0.0,0.0,0.0,0.0,0.0,0.0,0.0,0.0,0.0,0.0,0.0,0.0,0.0,0.0,0.0,0.0,0.0,0.0,0.0,0.0,0.0,0.0,0.0,0.0,0.0,0.0,0.0,0.0,0.0,0.0,0.0,0.0,0.0,0.0,0.0,0.0,0.0,0.0,0.0,0.0,0.0,0.0,0.0,0.0,0.0,0.0,0.0,0.0,0.0,0.0,0.0,0.0,0.0,0.0,0.0,0.0,0.0,0.0,0.0,0.0,0.0,2.0715,2.2435,2.3566,2.395,2.1055,1.9301,0.0,0.0,0.0,0.0,0.0,0.0,0.0,0.0,0.0,0.0,0.0,0.0,0.0,0.0,0.0,0.0,0.0,0.0,0.0,0.0,0.0,0.0,0.0,0.0,0.0,0.0,0.0,0.0,0.0,0.0,0.0,0.0,0.0,0.0,0.0,0.0,0.0,0.0,0.0,0.0,0.0,0.0,0.0,0.0,0.0,0.0,0.0,0.0,0.0,0.0,0.0,0.0,0.0,0.0,0.0,0.0,0.0,0.0,0.0,0.0,0.0,0.0,0.0,0.0,0.0,0.0,0.0,0.0,0.0,0.0,0.0,0.0,0.0,0.0,0.0,0.0,0.0,0.0,0.0,0.0,0.0,0.0,0.0,0.0,0.0,0.0,0.0,0.0,0.0,0.0,0.0,0.0,0.0,0.0,0.0,0.0,0.0,0.0,0.0,0.0,0.0,0.0,0.0,0.0,0.0,0.0,0.0,0.0,0.0,2.42,2.4804,2.5392,2.5927,2.283,2.0908,2.0384,0.0,0.0,0.0,0.0,0.0,0.0,0.0,0.0,0.0,0.0,0.0,0.0,0.0,0.0,0.0,0.0,0.0,0.0,0.0,0.0,0.0,0.0,0.0,0.0,0.0,0.0,0.0,0.0,0.0,0.0,0.0,0.0,0.0,0.0,0.0,0.0,0.0,0.0,0.0,0.0,0.0,0.0,0.0,0.0,0.0,0.0,0.0,0.0,0.0,0.0,0.0,0.0,0.0,0.0,0.0,0.0,0.0,0.0,0.0,0.0,0.0,0.0,0.0,0.0,0.0,0.0,0.0,0.0,0.0,0.0,0.0,0.0,0.0,0.0,0.0,0.0,0.0,0.0,0.0,0.0,0.0,0.0,0.0,0.0,0.0,0.0,0.0,0.0,0.0,0.0,0.0,0.0,0.0,0.0,0.0,0.0,0.0,0.0,0.0,0.0,0.0,0.0,0.0,0.0,0.0,0.0,0.0,0.0,2.962,2.8964,2.812,2.7087,2.5162,2.3033,0.0,0.0,0.0,0.0,0.0,0.0,0.0,0.0,0.0,0.0,0.0,0.0,0.0,0.0,0.0,0.0,0.0,0.0,0.0,0.0,0.0,0.0,0.0,0.0,0.0,0.0,0.0,0.0,0.0,0.0,0.0,0.0,0.0,0.0,0.0,0.0,0.0,0.0,0.0,0.0,0.0,0.0,0.0,0.0,0.0,0.0,0.0,0.0,0.0,0.0,0.0,0.0,0.0,0.0,0.0,0.0,0.0,0.0,0.0,0.0,0.0,0.0,0.0,0.0,0.0,0.0,0.0,0.0,0.0,0.0,0.0,0.0,0.0,0.0,0.0,0.0,0.0,0.0,0.0,0.0,0.0,0.0,0.0,0.0,0.0,0.0,0.0,0.0,0.0,0.0,0.0,0.0,0.0,0.0,0.0,0.0,0.0,0.0,0.0,0.0,0.0,0.0,0.0,0.0,0.0,0.0,0.0,0.0,0.0,3.1681,3.2791,3.2544,3.0968,2.7035,2.4306,0.0,0.0,0.0,0.0,0.0,0.0,0.0,0.0,0.0,0.0,0.0,0.0,0.0,0.0,0.0,0.0,0.0,0.0,0.0,0.0,0.0,0.0,0.0,0.0,0.0,0.0,0.0,0.0,0.0,0.0,0.0,0.0,0.0,0.0,0.0,0.0,0.0,0.0,0.0,0.0,0.0,0.0,0.0,0.0,0.0,0.0,0.0,0.0,0.0,0.0,0.0,0.0,0.0,0.0,0.0,0.0,0.0,0.0,0.0,0.0,0.0,0.0,0.0,0.0,0.0,0.0,0.0,0.0,0.0,0.0,0.0,0.0,0.0,0.0,0.0,0.0,0.0,0.0,0.0,0.0,0.0,0.0,0.0,0.0,0.0,0.0,0.0,0.0,0.0,0.0,0.0,0.0,0.0,0.0,0.0,0.0,0.0,0.0,0.0,0.0,0.0,0.0,0.0,0.0,0.0,0.0,0.0,0.0,2.936,3.3618,3.4926,3.52,3.4444,3.0319,2.7048,0.0,0.0,0.0,0.0,0.0,0.0,0.0,0.0,0.0,0.0,0.0,0.0,0.0,0.0,0.0,0.0,0.0,0.0,0.0,0.0,0.0,0.0,0.0,0.0,0.0,0.0,0.0,0.0,0.0,0.0,0.0,0.0,0.0,0.0,0.0,0.0,0.0,0.0,0.0,0.0,0.0,0.0,0.0,0.0,0.0,0.0,0.0,0.0,0.0,0.0,0.0,0.0,0.0,0.0,0.0,0.0,0.0,0.0,0.0,0.0,0.0,0.0,0.0,0.0,0.0,0.0,0.0,0.0,0.0,0.0,0.0,0.0,0.0,0.0,0.0,0.0,0.0,0.0,0.0,0.0,0.0,0.0,0.0,0.0,0.0,0.0,0.0,0.0,0.0,0.0,0.0,0.0,0.0,0.0,0.0,0.0,0.0,0.0,0.0,0.0,0.0,0.0,0.0,0.0,0.0,0.0,0.0,0.0,3.1394,3.523,3.6036,3.6668,3.7089,3.39,3.0333,0.0,0.0,0.0,0.0,0.0,0.0,0.0,0.0,0.0,0.0,0.0,0.0,0.0,0.0,0.0,0.0,0.0,0.0,0.0,0.0,0.0,0.0,0.0,0.0,0.0,0.0,0.0,0.0,0.0,0.0,0.0,0.0,0.0,0.0,0.0,0.0,0.0,0.0,0.0,0.0,0.0,0.0,0.0,0.0,0.0,0.0,0.0,0.0,0.0,0.0,0.0,0.0,0.0,0.0,0.0,0.0,0.0,0.0,0.0,0.0,0.0,0.0,0.0,0.0,0.0,0.0,0.0,0.0,0.0,0.0,0.0,0.0,0.0,0.0,0.0,0.0,0.0,0.0,0.0,0.0,0.0,0.0,0.0,0.0,0.0,0.0,0.0,0.0,0.0,0.0,0.0,0.0,0.0,0.0,0.0,0.0,0.0,0.0,0.0,0.0,0.0,0.0,0.0,0.0,0.0,0.0,0.0,0.0,3.2904,3.671,3.752,3.7903,3.7935,3.419,3.0885,0.0,0.0,0.0,0.0,0.0,0.0,0.0,0.0,0.0,0.0,0.0,0.0,0.0,0.0,0.0,0.0,0.0,0.0,0.0,0.0,0.0,0.0,0.0,0.0,0.0,0.0,0.0,0.0,0.0,0.0,0.0,0.0,0.0,0.0,0.0,0.0,0.0,0.0,0.0,0.0,0.0,0.0,0.0,0.0,0.0,0.0,0.0,0.0,2.1366,0.0,0.0,0.0,0.0,0.0,0.0,0.0,0.0,0.0,0.0,0.0,0.0,0.0,0.0,0.0,0.0,0.0,0.0,0.0,0.0,0.0,0.0,0.0,0.0,0.0,0.0,0.0,0.0,0.0,0.0,0.0,0.0,0.0,0.0,0.0,0.0,0.0,0.0,0.0,0.0,0.0,0.0,0.0,0.0,0.0,0.0,0.0,0.0,0.0,0.0,0.0,0.0,0.0,0.0,0.0,0.0,0.0,0.0,0.0,3.4083,3.7088,3.7903,3.8223,3.8032,3.5255,3.2264,0.0,0.0,0.0,0.0,0.0,0.0,0.0,0.0,0.0,0.0,0.0,0.0,0.0,0.0,0.0,0.0,0.0,0.0,0.0,0.0,0.0,0.0,0.0,0.0,0.0,0.0,0.0,0.0,0.0,0.0,0.0,0.0,0.0,0.0,0.0,0.0,0.0,0.0,0.0,0.0,0.0,0.0,0.0,0.0,0.0,0.0,0.0,0.0,0.0,0.0,0.0,0.0,0.0,0.0,0.0,0.0,0.0,0.0,0.0,0.0,0.0,0.0,0.0,0.0,0.0,0.0,0.0,0.0,0.0,0.0,0.0,0.0,0.0,0.0,0.0,0.0,0.0,0.0,0.0,0.0,0.0,0.0,0.0,0.0,0.0,0.0,0.0,0.0,0.0,0.0,0.0,0.0,0.0,0.0,0.0,0.0,0.0,0.0,0.0,0.0,0.0,0.0,0.0,0.0,0.0,0.0,0.0,3.1893,3.4822,3.7226,3.7944,3.8156,3.7966,3.635,3.3692,2.9971,0.0,0.0,0.0,0.0,0.0,0.0,0.0,0.0,0.0,0.0,0.0,0.0,0.0,0.0,0.0,0.0,0.0,0.0,0.0,0.0,0.0,0.0,0.0,0.0,0.0,0.0,0.0,0.0,0.0,0.0,0.0,0.0,0.0,0.0,0.0,0.0,0.0,0.0,1.9722,2.3387,0.0,0.0,0.0,0.0,0.0,0.0,0.0,0.0,2.2623,0.0,0.0,0.0,0.0,0.0,0.0,0.0,0.0,0.0,0.0,0.0,0.0,0.0,0.0,0.0,0.0,0.0,0.0,0.0,0.0,0.0,0.0,0.0,0.0,0.0,0.0,0.0,0.0,0.0,0.0,0.0,0.0,0.0,0.0,0.0,0.0,0.0,0.0,0.0,0.0,0.0,0.0,0.0,0.0,0.0,0.0,0.0,0.0,0.0,0.0,0.0,0.0,0.0,0.0,0.0,0.0,3.1117,3.2194,3.4503,3.8167,3.8114,3.8002,3.788,3.6251,3.3802,3.0563,0.0,0.0,0.0,0.0,0.0,0.0,0.0,0.0,0.0,0.0,0.0,0.0,0.0,0.0,0.0,0.0,0.0,0.0,0.0,0.0,0.0,0.0,0.0,0.0,0.0,0.0,0.0,0.0,0.0,0.0,0.0,0.0,0.0,0.0,0.0,0.0,0.0,0.0,0.0,2.5858,2.7582,0.0,0.0,0.0,0.0,0.0,0.0,0.0,0.0,2.2724,0.0,0.0,0.0,0.0,0.0,0.0,0.0,0.0,0.0,0.0,0.0,0.0,0.0,0.0,0.0,0.0,0.0,0.0,0.0,0.0,0.0,0.0,0.0,0.0,0.0,0.0,0.0,0.0,0.0,0.0,0.0,0.0,0.0,0.0,0.0,0.0,0.0,0.0,0.0,0.0,0.0,0.0,0.0,0.0,0.0,0.0,0.0,0.0,0.0,0.0,0.0,0.0,0.0,0.0,0.0,3.0771,3.313,3.5533,3.8096,3.8054,3.7898,3.7756,3.5393,3.2952,0.0,0.0,0.0,0.0,0.0,0.0,0.0,0.0,0.0,0.0,0.0,0.0,0.0,0.0,0.0,0.0,0.0,0.0,0.0,0.0,0.0,0.0,0.0,0.0,0.0,0.0,0.0,0.0,0.0,0.0,0.0,0.0,0.0,0.0,0.0,0.0,0.0,0.0,0.0,0.0,2.7466,2.9422,2.9825,0.0,0.0,0.0,0.0,0.0,0.0,2.533,2.46,0.0,0.0,0.0,0.0,0.0,0.0,0.0,0.0,0.0,0.0,0.0,0.0,0.0,0.0,0.0,0.0,0.0,0.0,0.0,0.0,0.0,0.0,0.0,0.0,0.0,0.0,0.0,0.0,0.0,0.0,0.0,0.0,0.0,0.0,0.0,0.0,0.0,0.0,0.0,0.0,0.0,0.0,0.0,0.0,0.0,0.0,0.0,0.0,0.0,0.0,0.0,0.0,0.0,0.0,0.0,2.9926,3.3569,3.6164,3.7626,3.7809,3.781,3.7632,3.4896,3.2474,0.0,0.0,0.0,0.0,0.0,0.0,0.0,0.0,0.0,0.0,0.0,0.0,0.0,0.0,0.0,0.0,0.0,0.0,0.0,0.0,0.0,0.0,0.0,0.0,0.0,0.0,0.0,0.0,0.0,0.0,0.0,0.0,0.0,0.0,0.0,0.0,0.0,0.0,0.0,0.0,0.0,3.1486,3.2023,3.0252,0.0,0.0,0.0,0.0,2.7841,2.7684,0.0,0.0,0.0,0.0,0.0,0.0,0.0,0.0,0.0,0.0,0.0,0.0,0.0,0.0,0.0,0.0,0.0,0.0,0.0,0.0,0.0,0.0,0.0,0.0,0.0,0.0,0.0,0.0,0.0,0.0,0.0,0.0,0.0,0.0,0.0,0.0,0.0,0.0,0.0,0.0,0.0,0.0,0.0,0.0,0.0,0.0,0.0,0.0,0.0,0.0,0.0,0.0,0.0,0.0,0.0,0.0,2.9274,3.2293,3.4901,3.6928,3.7467,3.7685,3.7595,3.5759,3.3399,0.0,0.0,0.0,0.0,0.0,0.0,0.0,0.0,0.0,0.0,0.0,0.0,0.0,0.0,0.0,0.0,0.0,0.0,0.0,0.0,0.0,0.0,0.0,0.0,0.0,0.0,0.0,0.0,0.0,0.0,0.0,0.0,0.0,0.0,0.0,0.0,0.0,0.0,0.0,0.0,0.0,3.3875,3.3882,3.291,3.219,0.0,0.0,3.1205,3.1966,3.1388,0.0,0.0,0.0,0.0,0.0,0.0,0.0,0.0,0.0,0.0,0.0,0.0,0.0,0.0,0.0,0.0,0.0,0.0,0.0,0.0,0.0,0.0,0.0,0.0,0.0,0.0,0.0,0.0,0.0,0.0,0.0,0.0,0.0,0.0,0.0,0.0,0.0,0.0,0.0,0.0,0.0,0.0,0.0,0.0,0.0,0.0,0.0,0.0,0.0,0.0,0.0,0.0,0.0,0.0,0.0,2.69,3.0241,3.3225,3.5549,3.7112,3.7417,3.7503,3.7429,3.4553,3.1969,0.0,0.0,0.0,0.0,0.0,0.0,0.0,0.0,0.0,0.0,0.0,0.0,0.0,0.0,0.0,0.0,0.0,0.0,0.0,0.0,0.0,0.0,0.0,0.0,0.0,0.0,0.0,0.0,0.0,0.0,0.0,0.0,0.0,0.0,0.0,0.0,0.0,0.0,0.0,0.0,0.0,0.0,3.5366,3.4352,0.0,0.0,0.0,3.3653,3.398,0.0,0.0,0.0,0.0,0.0,0.0,0.0,0.0,0.0,0.0,0.0,0.0,0.0,0.0,0.0,0.0,0.0,0.0,0.0,0.0,0.0,0.0,0.0,0.0,0.0,0.0,0.0,0.0,0.0,0.0,0.0,0.0,0.0,0.0,0.0,0.0,0.0,0.0,0.0,0.0,0.0,0.0,0.0,0.0,0.0,0.0,0.0,0.0,0.0,0.0,0.0,0.0,0.0,0.0,0.0,0.0,0.0,3.0763,3.3988,3.6114,3.7092,3.7285,3.7354,3.7226,3.3916,0.0,0.0,0.0,0.0,0.0,0.0,0.0,0.0,0.0,0.0,0.0,0.0,0.0,0.0,0.0,0.0,0.0,0.0,0.0,0.0,0.0,0.0,0.0,0.0,0.0,0.0,0.0,1.1854,0.0,0.0,0.0,0.0,0.0,0.0,0.0,0.0,0.0,0.0,0.0,0.0,0.0,0.0,3.4488,3.688,3.5886,3.5579,0.0,0.0,3.6045,3.6198,3.6179,3.4851,0.0,0.0,0.0,0.0,0.0,0.0,0.0,0.0,0.0,0.0,0.0,0.0,0.0,0.0,0.0,0.0,0.0,0.0,0.0,0.0,0.0,0.0,0.0,0.0,0.0,0.0,0.0,0.0,0.0,0.0,0.0,0.0,0.0,0.0,0.0,0.0,0.0,0.0,0.0,0.0,0.0,0.0,0.0,0.0,0.0,0.0,0.0,0.0,0.0,0.0,0.0,0.0,0.0,0.0,0.0,2.9984,3.374,3.5899,3.6363,3.7056,3.7354,3.7261,3.4853,3.2486,0.0,0.0,0.0,0.0,0.0,0.0,0.0,0.0,0.0,0.0,0.0,0.0,0.0,0.0,0.0,0.0,0.0,0.0,0.0,0.0,0.0,0.0,0.0,0.0,0.0,0.0,0.0,0.0,0.0,0.0,0.0,0.0,0.0,0.0,0.0,0.0,0.0,0.0,0.0,0.0,0.0,3.6188,3.8516,3.7985,3.8233,0.0,3.9596,3.8719,3.944,3.947,3.7756,3.2746,0.0,0.0,0.0,0.0,0.0,0.0,0.0,0.0,0.0,0.0,0.0,0.0,0.0,0.0,0.0,0.0,0.0,0.0,0.0,0.0,0.0,0.0,0.0,0.0,0.0,0.0,0.0,0.0,0.0,0.0,0.0,0.0,0.0,0.0,0.0,0.0,0.0,0.0,0.0,0.0,0.0,0.0,0.0,0.0,0.0,0.0,0.0,0.0,0.0,0.0,0.0,0.0,0.0,2.6372,2.9805,3.3636,3.5792,3.6183,3.6945,3.7241,3.7105,3.4814,3.2281,0.0,0.0,0.0,0.0,0.0,0.0,0.0,0.0,0.0,0.0,0.0,0.0,0.0,0.0,0.0,0.0,0.0,0.0,0.0,0.0,0.0,0.0,0.0,0.0,0.0,0.0,0.0,0.0,1.8454,1.9275,2.0108,0.0,0.0,0.0,0.0,0.0,0.0,0.0,0.0,0.0,0.0,3.7049,3.9395,3.9355,0.0,0.0,4.0163,3.9444,3.9832,3.9343,3.7533,3.3656,3.141,0.0,0.0,0.0,0.0,0.0,0.0,0.0,0.0,0.0,0.0,0.0,0.0,0.0,0.0,0.0,0.0,0.0,0.0,0.0,0.0,0.0,0.0,0.0,0.0,0.0,0.0,0.0,0.0,0.0,0.0,0.0,0.0,0.0,0.0,0.0,0.0,0.0,0.0,0.0,0.0,0.0,0.0,0.0,0.0,0.0,0.0,0.0,0.0,0.0,0.0,0.0,0.0,2.621,2.9779,3.3544,3.5668,3.6091,3.6889,3.722,3.6995,3.4777,3.2351,0.0,0.0,0.0,0.0,0.0,0.0,0.0,0.0,0.0,0.0,0.0,0.0,0.0,0.0,0.0,0.0,0.0,0.0,0.0,0.0,0.0,0.0,0.0,0.0,0.0,0.0,0.0,0.0,2.0065,2.0706,2.1559,0.0,0.0,0.0,0.0,0.0,0.0,0.0,0.0,0.0,0.0,3.7945,4.0578,4.0629,4.0732,4.1794,4.1076,4.0391,4.0239,3.9576,3.8098,3.5148,0.0,0.0,0.0,0.0,0.0,0.0,0.0,0.0,0.0,0.0,0.0,0.0,0.0,0.0,0.0,0.0,0.0,0.0,0.0,0.0,0.0,0.0,0.0,0.0,0.0,0.0,0.0,1.4913,0.0,0.0,1.3878,0.0,0.0,0.0,0.0,0.0,0.0,0.0,0.0,0.0,0.0,0.0,0.0,0.0,0.0,0.0,0.0,0.0,0.0,0.0,0.0,0.0,0.0,2.675,2.9779,3.3498,3.5616,3.6074,3.6889,3.7241,3.7055,3.4922,3.3016,3.1493,0.0,0.0,0.0,0.0,0.0,0.0,0.0,0.0,0.0,0.0,0.0,0.0,0.0,0.0,0.0,0.0,0.0,0.0,0.0,0.0,0.0,0.0,0.0,0.0,0.0,0.0,2.0262,2.0346,2.0672,0.0,0.0,0.0,0.0,0.0,0.0,0.0,0.0,0.0,0.0,3.6381,3.9073,4.2221,4.1852,4.1756,4.335,4.2686,4.1745,4.0979,4.0868,4.0079,0.0,0.0,0.0,0.0,0.0,0.0,0.0,0.0,0.0,0.0,0.0,0.0,0.0,0.0,0.0,0.0,0.0,0.0,0.0,0.0,0.0,0.0,0.0,0.0,0.0,0.0,0.0,1.7582,1.7132,0.0,0.0,0.0,0.0,0.0,0.0,0.0,0.0,0.0,0.0,0.0,2.3409,2.4251,0.0,0.0,0.0,0.0,0.0,0.0,0.0,0.0,0.0,0.0,0.0,0.0,2.6689,2.9683,3.3444,3.5634,3.6111,3.6927,3.7261,3.7091,3.6022,3.3819,3.036,0.0,0.0,0.0,0.0,0.0,0.0,0.0,0.0,0.0,0.0,0.0,0.0,0.0,0.0,0.0,0.0,0.0,0.0,0.0,0.0,0.0,0.0,0.0,0.0,0.0,2.1066,0.0,0.0,0.0,0.0,0.0,0.0,0.0,0.0,0.0,0.0,0.0,3.2871,3.5647,3.8501,4.0635,4.1623,4.2389,4.2848,0.0,0.0,0.0,0.0,0.0,0.0,0.0,0.0,0.0,0.0,0.0,0.0,0.0,0.0,3.2935,2.8734,2.7258,2.6738,2.7046,0.0,0.0,0.0,0.0,0.0,0.0,0.0,0.0,0.0,0.0,0.0,0.0,0.0,0.0,1.9932,0.0,1.9371,0.0,0.0,0.0,0.0,0.0,0.0,0.0,0.0,2.4522,2.5442,2.6358,2.6963,2.7054,0.0,2.5858,2.4267,0.0,0.0,0.0,0.0,0.0,0.0,0.0,0.0,2.7298,3.0025,3.352,3.5598,3.6165,3.7001,3.7354,3.7206,3.6362,3.4169,3.051,2.745,2.4914,0.0,0.0,0.0,0.0,0.0,0.0,0.0,0.0,0.0,0.0,0.0,0.0,0.0,0.0,0.0,0.0,0.0,0.0,0.0,0.0,0.0,0.0,0.0,2.2849,0.0,0.0,0.0,0.0,0.0,0.0,0.0,0.0,0.0,2.9303,3.2271,3.5244,3.7731,3.9747,4.1283,4.2036,0.0,0.0,0.0,0.0,0.0,0.0,0.0,3.9864,4.0057,3.9641,3.8918,3.7715,3.7796,3.7995,3.7712,0.0,0.0,3.2698,3.1394,3.1179,3.173,3.2293,3.2941,3.3766,3.4665,3.5288,0.0,0.0,0.0,0.0,0.0,0.0,0.0,0.0,2.2164,2.2135,0.0,2.1644,0.0,0.0,0.0,0.0,0.0,2.3947,0.0,0.0,2.8509,2.9223,2.9214,2.9365,2.9489,2.9575,2.9741,2.918,2.7688,2.2861,0.0,0.0,0.0,0.0,0.0,0.0,2.8589,3.0872,3.3791,3.5599,3.6327,3.7038,3.7411,3.7376,3.6007,3.4253,3.2116,3.0466,2.8319,2.547,2.3855,0.0,0.0,0.0,0.0,0.0,0.0,0.0,0.0,0.0,0.0,0.0,0.0,0.0,0.0,0.0,0.0,0.0,0.0,0.0,0.0,2.3267,0.0,0.0,0.0,0.0,0.0,0.0,0.0,0.0,0.0,0.0,3.229,3.4802,3.7648,4.0076,0.0,0.0,0.0,0.0,4.2648,4.3554,4.3517,4.3133,4.2378,4.237,4.242,4.2328,0.0,0.0,3.9772,4.0096,4.0424,3.9576,4.0169,3.9914,3.7456,3.6813,3.6762,3.6852,3.6871,3.7237,3.8067,3.8772,3.9383,2.5627,0.0,0.0,0.0,0.0,2.428,2.5491,2.7025,2.6799,2.6352,2.5731,2.5418,0.0,0.0,0.0,0.0,0.0,0.0,2.722,2.8627,2.9518,3.017,3.0654,3.0717,3.0834,3.1001,3.0698,3.0436,3.0156,2.7784,2.5619,2.379,0.0,0.0,0.0,0.0,3.0134,3.2355,3.4779,3.638,3.7092,3.7379,3.7577,3.7595,3.6577,3.5574,3.4564,3.2575,3.0559,2.8639,2.6661,0.0,0.0,0.0,0.0,0.0,0.0,0.0,0.0,0.0,0.0,0.0,0.0,0.0,0.0,0.0,0.0,0.0,0.0,0.0,2.4917,2.5601,2.5774,0.0,0.0,0.0,0.0,0.0,0.0,0.0,0.0,0.0,3.6925,3.8284,3.9693,0.0,0.0,4.2522,4.198,4.3166,4.4007,4.3748,4.3623,0.0,4.3275,4.2768,4.2602,4.3244,4.3635,4.354,4.2776,4.2958,4.2957,4.2159,4.2678,4.2791,4.1578,4.025,3.973,4.0211,4.038,4.0703,4.1482,4.1917,4.2078,2.9543,2.6888,2.626,2.6385,2.7027,2.7715,2.8682,2.9772,2.9683,2.9393,2.8867,2.8238,2.735,2.6334,2.6482,0.0,0.0,0.0,2.9792,3.0959,3.1295,3.1704,3.2036,3.2213,3.2144,3.1987,3.1839,3.169,3.1601,3.1185,3.003,2.8206,0.0,0.0,2.8123,3.0056,3.199,3.3938,3.558,3.6754,3.7466,3.754,3.7631,3.7631,3.7184,3.6629,3.6059,3.4824,3.3291,3.1473,2.9963,2.7888,0.0,0.0,0.0,0.0,0.0,0.0,0.0,0.0,0.0,0.0,0.0,1.676,1.6279,0.0,0.0,0.0,2.2707,2.538,2.7409,2.7887,0.0,0.0,0.0,0.0,0.0,0.0,0.0,3.3391,3.6247,3.8659,4.031,4.1208,4.1837,4.2212,4.281,4.3042,4.2645,0.0,4.4228,4.4153,4.4071,4.4077,4.4107,4.3672,4.3568,4.4205,4.4473,4.448,4.4154,4.4477,4.4504,4.391,4.4256,4.466,4.4182,4.3201,4.2508,4.2758,4.2813,4.3022,4.3489,4.3618,4.3647,3.2563,3.1517,3.0443,2.9643,2.919,3.0631,3.0972,3.0577,3.1258,3.1404,3.1089,3.0312,2.9782,2.944,2.9496,0.0,3.1577,3.2264,3.2876,3.3571,3.3482,3.3432,3.3398,3.3556,3.3321,3.2696,3.3104,3.2962,3.2441,3.3301,3.3527,3.298,3.1094,3.0438,3.1106,3.251,3.4006,3.5464,3.615,3.6844,3.7559,3.7577,3.7577,3.7613,3.7614,3.7309,3.673,3.6834,3.5964,3.3918,3.3158,3.1427,2.8439,0.0,0.0,0.0,0.0,0.0,0.0,0.0,0.0,0.0,0.0,0.0,0.0,0.0,0.0,0.0,2.691,0.0,2.939,3.0119,0.0,0.0,0.0,2.8969,3.0705,3.2377,3.4312,3.6699,0.0,0.0,4.2597,4.3444,4.3889,4.3786,4.3023,4.3038,4.4493,4.3945,4.3768,4.4619,4.4726,4.4719,4.4701,4.4732,4.4811,4.4985,4.5233,4.5032,4.4518,4.4976,4.5201,4.4547,4.5066,4.5547,4.5566,4.5393,4.5336,4.447,4.4374,4.4374,4.4412,4.4412,4.4429,3.3409,3.3166,3.3079,3.2675,3.2101,3.2463,3.2934,3.3404,3.3057,3.3024,3.3201,3.25,3.2194,3.2218,3.2259,3.2486,3.294,3.3668,3.3787,3.3482,3.3792,3.3717,3.3395,3.3354,3.3371,3.3447,3.3805,3.3911,3.3885,3.4302,3.45,3.4376,3.4499,3.4155,3.3454,3.428,3.5196,3.6149,3.6934,3.7416,3.7577,3.7577,3.7631,3.7667,3.7112,3.6787,3.6777,3.589,3.5148,3.4546,3.3471,3.1969,3.0012,2.7531,0.0,0.0,0.0,0.0,0.0,0.0,0.0,0.0,0.0,2.0011,1.881,0.0,2.3749,0.0,2.9448,3.19,3.1847,3.2618,0.0,0.0,3.269,3.3245,3.4996,3.6648,3.8095,3.9289,4.159,4.3212,4.3507,4.4239,4.4659,4.4468,4.4304,4.409,4.3837,4.419,4.4499,4.4662,4.4796,4.4821,4.4796,4.4865,4.4962,4.5061,4.5233,4.5243,4.5132,4.5359,4.5528,4.5316,4.5432,4.5586,4.5586,4.5586,4.5528,4.5336,4.5278,4.5297,4.5297,4.5278,4.5295,3.3797,3.4,3.4151,3.4023,3.3714,3.3681,3.3991,3.4545,3.4119,3.4129,3.4422,3.3796,3.355,3.3533,3.3708,3.3893,3.4202,3.4739,3.4742,3.4276,3.4627,3.4678,3.4476,3.4452,3.4372,3.4298,3.4622,3.4662,3.446,3.4966,3.5291,3.5363,3.6141,3.6236,3.5667,3.6016,3.6446,3.6934,3.7362,3.7577,3.7577,3.7613,3.747,3.7184,3.6823,3.6496,3.6273,3.5763,3.5135,3.4383,3.3813,3.2804,3.1213,2.893,2.6928,0.0,0.0,0.0,0.0,0.0,0.0,0.0,0.0,0.0,0.0,0.0,2.6581,2.8998,3.234,3.4339,3.4356,3.5138,3.5673,3.5732,3.5723,3.6252,3.7615,3.8872,4.0076,4.1227,4.2869,4.4026,4.43,4.4687,4.4895,4.4719,4.4738,4.4568,4.4105,4.4395,4.4685,4.4693,4.4764,4.4821,4.484,4.4889,4.4919,4.501,4.5189,4.5298,4.5341,4.5495,4.5586,4.5586,4.5586,4.5586,4.5586,4.5586,4.5586,4.5586,4.5586,4.5586,4.5586,4.5586,4.5603,3.3984,3.4349,3.4349,3.4382,3.453,3.4415,3.4496,3.4703,3.4561,3.4739,3.5055,3.4616,3.4287,3.4168,3.4465,3.479,3.5165,3.5458,3.5509,3.5346,3.5526,3.565,3.5807,3.5902,3.5703,3.5211,3.5498,3.5327,3.4756,3.5539,3.6007,3.6136,3.6791,3.7238,3.7534,3.752,3.7558,3.7577,3.7577,3.7577,3.7577,3.7649,3.7327,3.6592,3.6602,3.6287,3.5557,3.575,3.5257,3.3935,3.4142,3.3627,3.2179,3.0035,2.8483,0.0,2.5469,0.0,0.0,0.0,0.0,0.0,0.0,0.0,0.0,2.8032,2.9923,3.2806,3.5245,3.6596,3.6555,3.7432,3.7984,3.7926,3.8054,3.8435,3.9278,4.0099,4.1189,4.2659,4.349,4.4243,4.4839,4.4919,4.484,4.4738,4.4712,4.464,4.4587,4.4532,4.4597,4.4685,4.4712,4.477,4.487,4.4895,4.4895,4.4962,4.5148,4.5297,4.5317,4.5458,4.5586,4.5586,4.5586,4.5586,4.5586,4.5586,4.5586,4.5586,4.5586,4.5586,4.5586,4.5586,4.5586,3.4399,3.4448,3.4448,3.4546,3.4659,3.4756,3.4738,3.4719,3.4658,3.4739,3.4947,3.4938,3.4935,3.4888,3.5073,3.5249,3.5446,3.5549,3.556,3.5543,3.5453,3.556,3.581,3.581,3.5933,3.6052,3.6336,3.6429,3.6352,3.6632,3.6798,3.6816,3.6939,3.7443,3.8256,0.0,0.0,0.0,3.7577,3.7577,3.7577,3.7613,3.7362,3.6811,3.6113,0.0,3.5133,3.4541,3.4173,3.3983,3.4124,0.0,0.0,0.0,0.0,0.0,0.0,0.0,0.0,0.0,0.0,0.0,2.9608,2.9353,2.9508,3.2635,3.4904,3.5495,3.7224,3.8042,3.7376,3.8727,3.9356,3.8728,3.9281,4.0043,4.0805,4.1684,4.26,4.3471,4.4281,4.4824,4.4953,4.4895,4.4789,4.4693,4.4659,4.4578,4.4524,4.4551,4.4578,4.4632,4.4693,4.4796,4.487,4.4895,4.4938,4.5038,4.5192,4.5317,4.5379,4.5477,4.5586,4.5586,4.5586,4.5586,4.5586,4.5586,4.5586,4.5586,4.5586,4.5586,4.5586,4.5586,4.5586,3.5331,0.0,3.5186,3.5332,0.0,3.5191,3.5071,3.4991,3.4977,3.4994,3.4994,3.5198,3.5152,3.4947,3.5198,3.5245,3.5088,3.5367,3.54,3.5248,3.5503,3.5633,3.5715,3.5898,3.6148,3.6402,3.6602,3.6725,3.6829,3.693,3.697,3.7005,3.7435,3.7919,3.8404,3.8894,3.8851,3.8219,3.7791,3.7577,3.7613,3.7721,3.7485,3.6862,3.6576,0.0,0.0,0.0,0.0,0.0,0.0,0.0,0.0,0.0,0.0,3.2622,3.1875,3.1239,3.0904,3.0866,3.1676,3.3393,3.432,3.432,3.3196,3.5799,3.7489,3.7488,3.8609,3.9199,3.8819,3.9922,4.0534,4.0137,4.0841,4.1527,4.1965,4.2709,4.3373,4.3805,4.4501,4.4991,4.4943,4.4889,4.4789,4.4693,4.4632,4.4578,4.4515,4.4524,4.4551,4.4613,4.4738,4.484,4.4889,4.4895,4.4895,4.4967,4.5103,4.5211,4.529,4.5399,4.5514,4.5568,4.5586,4.5586,4.5586,4.5586,4.5586,4.5586,4.5586,4.5586,4.5586,4.5586,4.5586,3.6383,3.6092,3.624,3.6355,3.6386,3.5944,3.5723,3.5723,0.0,0.0,0.0,3.5354,3.5198,3.4756,3.5088,3.5105,3.4804,3.5135,3.5202,3.5015,3.5599,3.5756,3.5694,3.6062,3.6335,3.6544,3.6661,3.6766,3.6829,3.6948,3.697,3.7079,3.7822,3.843,3.8788,3.9465,3.9548,3.9002,3.8219,3.7737,3.7631,3.7828,3.7553,3.6844,3.7098,3.69,3.6229,3.6371,3.5872,3.4578,3.528,3.5411,3.4772,3.4734,3.508,3.5792,3.5268,3.4918,3.4907,3.4907,3.5327,3.628,3.7766,3.8102,3.6728,3.8016,3.8906,3.8906,3.9646,4.016,4.0222,4.0981,4.1497,4.1499,4.2148,4.2623,4.2791,4.3384,4.3836,4.4041,4.4588,4.4943,4.4895,4.484,4.4745,4.4712,4.4632,4.457,4.4496,4.4542,4.4578,4.4685,4.4764,4.4846,4.487,4.4895,4.487,4.4821,4.4991,4.5141,4.5213,4.5333,4.5477,4.5568,4.5586,4.5586,4.5586,4.5586,4.5586,4.5586,4.5586,4.5586,4.5586,4.5586,4.5586,3.7336,3.7268,3.7285,3.7285,3.7334,3.733,3.7441,3.7388,3.5937,3.5245,3.5088,3.5245,3.5088,3.4707,3.4994,3.5105,3.5041,3.5198,3.5383,3.552,3.5861,3.5958,3.595,3.6156,3.6419,3.6661,3.6684,3.6806,3.6948,3.6987,3.697,3.7093,3.7782,3.8919,4.0306,4.0099,3.9839,3.9736,3.9022,3.8308,3.7649,3.7649,3.7449,3.7085,3.7003,3.6809,3.6555,3.6537,3.6426,3.6258,3.643,3.6489,3.6378,3.6359,3.6459,3.6628,3.6534,3.6503,3.6534,3.6558,3.6962,3.7906,3.8846,3.9052,3.8367,3.911,3.9662,3.9759,4.0533,4.1029,4.1086,4.1749,4.2242,4.228,4.2408,4.2787,4.345,4.3715,4.4061,4.4635,4.4819,4.4919,4.4895,4.4796,4.4738,4.4685,4.4605,4.4515,4.4496,4.4605,4.4685,4.4712,4.4796,4.487,4.4895,4.4895,4.487,4.4796,4.508,4.5268,4.5219,4.5394,4.5551,4.5586,4.5586,4.5586,4.5586,4.5586,4.5586,4.5586,4.5586,4.5586,4.5586,4.5586,4.5586,3.8439,3.812,3.8203,3.8203,3.817,3.801,3.7905,3.7855,3.7131,3.6434,3.5796,3.5475,3.5058,3.4594,3.4691,3.4851,3.4994,3.4899,3.5071,3.5458,3.5605,3.5722,3.581,3.6088,3.6377,3.6602,3.6643,3.6975,3.7504,3.7562,3.7812,3.8269,3.9024,4.0098,4.1332,4.1109,4.057,3.9875,3.8754,3.7969,3.7594,3.7757,3.802,3.8358,3.8104,3.8138,3.8477,3.8081,3.7683,3.7239,3.7682,3.7765,3.7392,3.7764,3.8032,3.804,3.8059,3.8059,3.8085,3.8137,3.8313,3.8763,3.9633,4.0051,3.9782,4.0099,4.0589,4.115,4.1562,4.177,4.1859,4.2555,4.3066,4.309,4.3507,4.3942,4.4264,4.4378,4.4549,4.4838,4.4895,4.4895,4.4895,4.477,4.4712,4.4685,4.4578,4.4515,4.4515,4.4597,4.4659,4.4693,4.477,4.4846,4.4895,4.4967,4.4967,4.4919,4.5125,4.5268,4.527,4.5395,4.5515,4.5586,4.5586,4.5586,4.5586,4.5586,4.5586,4.5586,4.5586,4.5586,4.5586,4.5586,4.5586,3.9496,3.9009,3.9109,3.9209,3.9158,3.8778,3.8571,3.8475,3.837,3.7804,3.6846,3.6095,3.5476,3.4922,3.4824,3.4857,3.4987,3.466,3.4756,3.5182,3.535,3.547,3.5656,3.6146,3.6551,3.6821,3.7061,3.7585,3.8216,3.8351,3.8796,3.955,4.0225,4.0979,4.1909,4.1531,4.0949,4.0085,3.8665,3.7755,3.7631,3.7863,3.8393,3.914,3.8902,3.9098,3.9741,3.9449,3.8886,3.8155,3.883,3.8943,3.8238,3.8748,3.9101,3.9101,3.9101,3.9194,3.938,3.9621,3.9742,3.9788,4.0457,4.1004,4.1218,4.1271,4.155,4.2146,4.2372,4.2529,4.274,4.3377,4.3869,4.3956,4.4473,4.4776,4.487,4.487,4.4895,4.4895,4.4895,4.4895,4.487,4.4789,4.4685,4.4632,4.4551,4.4515,4.4515,4.457,4.4632,4.4685,4.4764,4.4846,4.4938,4.5014,4.5061,4.5038,4.5194,4.5292,4.5325,4.5394,4.5477,4.5568,4.5586,4.5586,4.5586,4.5586,4.5586,4.5586,4.5586,4.5586,4.5568,4.5586,4.5586,4.0087,4.0136,4.0268,4.0317,4.0283,4.0263,4.0212,4.0095,3.9435,3.887,3.8304,3.7551,3.6804,3.6209,3.5707,3.548,3.5448,3.4792,3.4659,3.4947,3.5241,3.547,3.5673,3.6642,3.7335,3.7669,3.8303,3.8744,3.9087,3.9217,3.9621,4.033,4.0556,4.1022,4.1594,4.0624,4.0304,4.0842,3.9465,3.8344,3.7667,3.781,3.8072,3.8492,3.8614,3.8743,3.9113,3.969,3.9642,3.8888,3.9549,3.9711,3.9007,3.9027,3.9101,3.912,3.912,3.9417,4.0215,4.1016,4.138,4.1483,4.1528,4.1919,4.2604,4.2762,4.2567,4.2446,4.2925,4.3372,4.3448,4.4089,4.4511,4.4511,4.4631,4.4732,4.4796,4.4808,4.4838,4.4895,4.4895,4.4895,4.487,4.477,4.4659,4.4551,4.4524,4.4496,4.4496,4.4551,4.4578,4.4632,4.4745,4.4895,4.4967,4.5065,4.5132,4.5173,4.53,4.5359,4.5394,4.5476,4.5586,4.5568,4.5586,4.5586,4.5586,4.5586,4.5586,4.5586,4.5586,4.5605,4.5531,4.5549,4.5566,4.0238,4.0288,4.0436,4.0485,4.0534,4.0583,4.0583,4.0451,4.0129,3.973,3.9345,3.8703,3.7692,3.6381,3.6104,3.5866,3.5578,3.5132,3.4906,3.4932,3.5041,3.5258,3.5656,3.6222,3.6698,3.7089,3.7902,3.8597,3.9248,4.0157,4.0832,4.1113,4.1174,4.1437,4.1831,4.1276,4.1032,4.1047,4.041,3.98,3.9245,3.9301,3.9515,3.9805,4.0033,3.9982,3.9716,4.0004,3.9753,3.8973,3.9243,3.929,3.9034,3.9546,3.9881,3.99,4.0327,4.0717,4.107,4.1452,4.1649,4.1667,4.2126,4.2565,4.288,4.3442,4.3708,4.3531,4.3856,4.4169,4.4214,4.4523,4.4667,4.4659,4.4629,4.4655,4.4674,4.4701,4.4781,4.4838,4.4876,4.487,4.484,4.4738,4.4605,4.4515,4.4496,4.4496,4.4515,4.4524,4.4542,4.457,4.4712,4.487,4.4991,4.5151,4.5258,4.5341,4.5438,4.5496,4.5496,4.5534,4.5586,4.5586,4.5586,4.5586,4.5586,4.5586,4.5586,4.5586,4.5586,4.5568,4.5476,4.5495,4.5513,4.0305,4.0404,4.0534,4.0631,4.0631,4.0697,4.0697,4.0583,4.0534,4.0271,3.9935,3.9435,3.843,3.7155,3.6713,3.643,3.6116,3.557,3.5249,3.5197,3.4998,3.5165,3.5577,3.6021,3.6414,3.6918,3.7763,3.8614,3.9546,4.0876,4.1587,4.1648,4.1604,4.1754,4.1945,4.1709,4.146,4.1385,4.122,4.1002,4.0901,4.1052,4.107,4.0946,4.1089,4.0892,4.0256,4.0566,4.0277,3.9298,3.9637,3.9815,3.97,4.0362,4.0736,4.0791,4.146,4.1906,4.1943,4.2129,4.2259,4.2314,4.2883,4.3199,4.3274,4.3879,4.4304,4.4277,4.4468,4.456,4.4632,4.4613,4.4605,4.4532,4.4541,4.4522,4.4578,4.4617,4.4682,4.4789,4.4833,4.4846,4.477,4.4667,4.4578,4.4515,4.4496,4.4487,4.4487,4.4468,4.4515,4.4542,4.4712,4.487,4.5033,4.5213,4.538,4.5477,4.555,4.5586,4.5586,4.5586,4.5586,4.5586,4.5586,4.5586,4.5586,4.5586,4.5586,4.5568,4.5568,4.555,4.5419,4.5476,4.5476,4.0288,4.0468,4.0793,4.0871,4.0888,4.0888,4.0871,4.084,4.0631,4.0337,4.002,3.947,3.9011,3.8575,3.7698,3.7389,3.7343,3.6198,3.5761,3.586,3.528,3.5198,3.5611,3.6315,3.7045,3.7627,3.8512,3.9442,4.0446,4.12,4.1648,4.178,4.1648,4.171,4.1874,4.1308,4.1304,4.1878,4.1629,4.1715,4.2382,4.2812,4.2355,4.135,4.1272,4.1065,4.0478,4.1601,4.1643,4.0111,4.1298,4.1915,4.1452,4.1468,4.1553,4.1646,4.2314,4.2742,4.2835,4.3373,4.3782,4.3819,4.3801,4.3912,4.3838,4.4055,4.424,4.4285,4.443,4.4515,4.4496,4.4468,4.4458,4.4411,4.4354,4.4391,4.4485,4.4515,4.4605,4.4764,4.4783,4.4783,4.4719,4.4632,4.457,4.4515,4.4496,4.4496,4.4468,4.4468,4.4542,4.4632,4.477,4.4962,4.5061,4.5256,4.5438,4.5514,4.5568,4.5586,4.5586,4.5586,4.5586,4.5586,4.5586,4.5586,4.5586,4.5586,4.555,4.5531,4.5513,4.5457,4.5419,4.5438,4.5438,4.0337,4.0534,4.0697,4.0793,4.0793,4.0823,4.0871,4.0888,4.0697,4.0534,4.0271,3.9867,3.9435,3.9028,3.8472,3.7948,3.7438,3.7061,3.676,3.6503,3.6505,3.6681,3.6969,3.7424,3.7558,3.775,3.9025,4.0211,4.113,4.1481,4.1604,4.1648,4.1648,4.1754,4.1909,4.1722,4.1789,4.2175,4.2181,4.239,4.277,4.305,4.2993,4.2739,4.2732,4.2221,4.1082,4.149,4.1459,4.0886,4.104,4.1151,4.1526,4.2062,4.2612,4.3095,4.341,4.3578,4.3615,4.3819,4.4005,4.4005,4.4005,4.4005,4.4023,4.4098,4.4246,4.4322,4.4401,4.4458,4.4458,4.444,4.4401,4.4266,4.4296,4.4322,4.4367,4.4496,4.4621,4.4693,4.4726,4.4726,4.4693,4.4605,4.4542,4.4515,4.4496,4.4524,4.4568,4.4613,4.4667,4.4783,4.4953,4.5106,4.5135,4.5298,4.5438,4.5514,4.5586,4.5568,4.5568,4.5586,4.5586,4.5586,4.5586,4.5586,4.5586,4.555,4.5513,4.5476,4.5457,4.5438,4.54,4.5438,4.5419,4.0337,4.0436,4.06,4.0648,4.0697,4.0793,4.0888,4.0888,4.0745,4.0631,4.0419,4.0087,3.9661,3.9329,3.8952,3.8466,3.7812,3.7731,3.7584,3.7347,3.7353,3.7533,3.7807,3.7997,3.8003,3.8121,3.9469,4.0613,4.1218,4.1481,4.1604,4.1648,4.1604,4.171,4.1945,4.2005,4.2072,4.2269,4.2544,4.2774,4.2882,4.316,4.3375,4.3548,4.3582,4.3074,4.194,4.1976,4.1939,4.1761,4.1514,4.1662,4.2298,4.286,4.3429,4.3912,4.4005,4.4005,4.4005,4.4005,4.4005,4.4005,4.4005,4.4005,4.4005,4.4079,4.4172,4.4244,4.4314,4.4354,4.4325,4.4401,4.4391,4.4244,4.4237,4.4255,4.4307,4.4458,4.4595,4.4667,4.4712,4.4712,4.4659,4.457,4.4515,4.4496,4.4542,4.4605,4.4651,4.4738,4.4928,4.5247,4.5517,4.5668,4.5774,4.5934,4.5668,4.5648,4.555,4.555,4.5568,4.5586,4.5586,4.5586,4.5586,4.5605,4.5568,4.5532,4.5457,4.5419,4.5419,4.5419,4.5399,4.5418,4.5399,4.0305,4.0305,4.0436,4.0583,4.0697,4.0697,4.0793,4.0871,4.0793,4.0648,4.0485,4.0087,3.9833,3.9625,3.9131,3.8827,3.8608,3.81,3.8104,3.8335,3.7668,3.7668,3.8119,3.8187,3.8516,3.8928,3.994,4.0516,4.0709,4.1288,4.1648,4.1736,4.1648,4.171,4.1987,4.2023,4.203,4.2187,4.2595,4.2824,4.286,4.3196,4.3463,4.3497,4.3566,4.3332,4.2699,4.3162,4.3125,4.2872,4.3222,4.3791,4.3732,4.3893,4.3986,4.3986,4.4005,4.4005,4.4005,4.4005,4.4005,4.4005,4.4005,4.4005,4.4005,4.4023,4.4073,4.4195,4.4255,4.4304,4.4244,4.4255,4.4255,4.4214,4.4195,4.4255,4.4314,4.443,4.4551,4.4667,4.4712,4.4685,4.4605,4.4551,4.4524,4.4597,4.4632,4.4678,4.4737,4.4934,4.5325,4.5911,4.6321,4.6538,4.6602,4.6587,4.6129,4.5783,4.561,4.5513,4.5531,4.5568,4.5568,4.5586,4.5549,4.5568,4.5532,4.5476,4.5438,4.5419,4.5399,4.5399,4.5398,4.5398,4.5418,4.0188,4.0188,4.0288,4.0453,4.0583,4.0648,4.0793,4.0871,4.084,4.0728,4.0583,4.0387,4.0138,3.9833,3.952,3.9292,3.9082,3.8813,3.8714,3.8735,3.88,3.8992,3.9244,3.9574,3.9941,4.0353,4.035,4.0657,4.1218,4.1481,4.1604,4.1648,4.1604,4.1692,4.1841,4.1938,4.2,4.209,4.2562,4.276,4.2706,4.3178,4.3411,4.3428,4.3497,4.3453,4.3314,4.3019,4.3084,4.3426,4.3185,4.3323,4.3862,4.4005,4.4005,4.4005,4.4005,4.4005,4.4005,4.4005,4.4005,4.4005,4.4005,4.4005,4.4005,4.4005,4.4055,4.4184,4.4214,4.4244,4.4274,4.4244,4.4195,4.4067,4.4177,4.4285,4.4335,4.4513,4.4648,4.4738,4.4738,4.4712,4.4719,4.4685,4.4685,4.4745,4.4796,4.4833,4.4984,4.5393,4.5974,4.6367,4.6901,4.7327,4.7294,4.7068,4.659,4.6014,4.5667,4.5514,4.5513,4.5531,4.5549,4.5549,4.5531,4.5513,4.5476,4.5458,4.5438,4.5399,4.5379,4.5359,4.5338,4.5379,4.5419,3.9665,3.9731,3.9781,3.988,4.0078,4.0414,4.068,4.0823,4.0888,4.0793,4.0648,4.0534,4.0271,3.9986,3.9781,3.9609,3.9382,3.9276,3.9098,3.9061,3.9451,3.9781,4.0037,4.0436,4.0806,4.1094,4.0936,4.106,4.1569,4.1604,4.1604,4.1604,4.1604,4.1648,4.171,4.1851,4.193,4.198,4.2453,4.2656,4.2667,4.3105,4.3394,4.334,4.3463,4.3548,4.3545,4.3133,4.318,4.3652,4.3397,4.3478,4.3968,4.4005,4.4005,4.4005,4.4005,4.4005,4.4005,4.4005,4.4005,4.4005,4.4005,4.4005,4.4005,4.4005,4.4036,4.4104,4.4184,4.4214,4.4226,4.4255,4.4195,4.4116,4.4207,4.4325,4.444,4.4648,4.4758,4.4821,4.4846,4.4846,4.4821,4.4815,4.4815,4.487,4.4943,4.4986,4.5194,4.5582,4.611,4.6708,4.7382,4.7673,4.7872,4.7529,4.7012,4.6378,4.5763,4.5609,4.5513,4.553,4.5547,4.553,4.5512,4.5513,4.5495,4.5438,4.54,4.538,4.538,4.538,4.54,4.5476,4.5512,3.8971,3.8988,3.8937,3.9137,3.9421,4.0078,4.0449,4.0697,4.0793,4.0745,4.0534,4.0485,4.0337,4.007,3.9884,3.9713,3.9661,3.9487,3.9312,3.9382,3.9609,3.9867,4.0171,4.0631,4.0995,4.1192,4.1401,4.1569,4.1604,4.1604,4.1604,4.1604,4.1604,4.1604,4.1622,4.1754,4.1816,4.1876,4.2299,4.2507,4.2432,4.2975,4.3305,4.3214,4.3428,4.3566,4.3548,4.3508,4.3609,4.3883,4.3873,4.3899,4.4005,4.4005,4.4005,4.4005,4.4005,4.4005,4.4005,4.4005,4.4005,4.4005,4.4005,4.4005,4.4005,4.4005,4.4005,4.4005,4.4085,4.4184,4.4214,4.4255,4.4314,4.4344,4.4354,4.444,4.4697,4.484,4.4895,4.4919,4.4991,4.5038,4.4919,4.4938,4.4938,4.4967,4.5057,4.5122,4.5198,4.5611,4.6211,4.6844,4.7477,4.7848,4.7969,4.7432,4.6954,4.657,4.5917,4.5571,4.5476,4.5494,4.551,4.5493,4.551,4.5512,4.5513,4.5495,4.5476,4.5495,4.5477,4.5438,4.5475,4.5545,4.5599,3.8497,3.892,3.8316,3.8802,3.9814,3.9627,3.9812,4.0353,4.0534,4.0485,4.0387,4.0337,4.0288,4.0238,4.0087,3.9986,3.9935,3.9867,3.985,3.985,3.9935,4.0121,4.0419,4.084,4.1105,4.1209,4.1453,4.1604,4.1604,4.1604,4.1604,4.1604,4.1604,4.1604,4.1622,4.1754,4.1754,4.1701,4.2009,4.231,4.2387,4.2691,4.2975,4.3141,4.334,4.3446,4.3481,4.3566,4.3667,4.3808,4.3883,4.3942,4.4005,4.4005,4.4005,4.4005,4.4005,4.4005,4.4005,4.4005,4.4005,4.4005,4.4005,4.4005,4.4005,4.4005,4.4005,4.4005,4.4036,4.4085,4.4195,4.4277,4.4412,4.4667,4.4613,4.464,4.4914,4.5033,4.5057,4.5057,4.5103,4.5084,4.5061,4.5038,4.5061,4.5148,4.5192,4.5233,4.529,4.5652,4.6271,4.6713,4.725,4.7716,4.7815,4.7317,4.6896,4.6628,4.609,4.5477,4.5438,4.5438,4.5457,4.5476,4.5565,4.5565,4.5599,4.5599,4.5601,4.5584,4.5601,4.558,4.5596,4.5645,4.5696,3.828,3.8805,3.7711,3.8181,3.9512,3.9125,3.9411,4.0136,4.0271,4.0288,4.0238,4.0188,4.0238,4.0188,4.0138,4.0087,4.0087,4.0087,4.007,4.0121,4.0121,4.0288,4.0534,4.0793,4.1029,4.1209,4.1426,4.1515,4.1604,4.1604,4.1604,4.1604,4.1604,4.1604,4.1604,4.1657,4.1674,4.1666,4.1972,4.2252,4.2328,4.267,4.2918,4.3104,4.3287,4.3411,4.3446,4.3532,4.3618,4.3756,4.3869,4.3929,4.4005,4.4005,4.4005,4.4005,4.4005,4.4005,4.4005,4.4005,4.4005,4.4005,4.4005,4.4005,4.4005,4.4005,4.4005,4.4104,4.4036,4.4128,4.4354,4.4486,4.4726,4.4943,4.4924,4.4943,4.5148,4.5154,4.5213,4.5213,4.5216,4.5235,4.5213,4.5192,4.5213,4.5256,4.5256,4.5277,4.5335,4.5812,4.6197,4.6562,4.6774,4.7124,4.7357,4.6993,4.657,4.6337,4.6142,4.5549,4.5475,4.5475,4.5528,4.558,4.5596,4.5648,4.5696,4.5692,4.5661,4.5661,4.5708,4.5723,4.5723,4.5771,4.5786,3.8181,3.8639,3.7292,3.7496,3.8791,3.8841,3.9244,3.9935,4.0121,4.0138,4.0087,4.0087,4.0121,4.0087,4.0138,4.0087,4.0087,4.0087,4.0087,4.0138,4.0238,4.0387,4.0517,4.0697,4.0918,4.118,4.1335,4.1471,4.156,4.156,4.1604,4.1604,4.1604,4.1604,4.1604,4.1622,4.1604,4.1675,4.1997,4.2198,4.2351,4.2688,4.2974,4.3049,4.3215,4.3376,4.3428,4.3497,4.355,4.376,4.3851,4.3929,4.3992,4.4005,4.4005,4.4005,4.4005,4.4005,4.4005,4.4005,4.4005,4.4005,4.4005,4.4005,4.4005,4.4036,4.4097,4.4177,4.4116,4.4306,4.4613,4.487,4.5019,4.5194,4.5239,4.522,4.5258,4.5281,4.5341,4.538,4.54,4.5419,4.5399,4.5357,4.5317,4.5277,4.5277,4.5277,4.5317,4.5509,4.5874,4.62,4.6375,4.6473,4.6608,4.6644,4.6275,4.5962,4.5931,4.5642,4.5591,4.5591,4.5673,4.5703,4.5723,4.5771,4.5814,4.5794,4.5747,4.5747,4.5814,4.5814,4.5808,4.5867,4.5912,3.7547,3.8573,3.7536,3.807,3.9277,3.8925,3.9059,3.9816,4.0037,4.0037,3.9986,4.002,4.007,4.0087,4.0087,4.0087,4.0087,4.0087,4.0087,4.0138,4.0255,4.0353,4.0549,4.0728,4.0953,4.1123,4.129,4.1426,4.1471,4.1498,4.1604,4.1604,4.156,4.1604,4.1604,4.1604,4.1604,4.1657,4.1884,4.2126,4.2351,4.257,4.2842,4.2938,4.3086,4.3233,4.3376,4.3429,4.3518,4.3655,4.3804,4.3897,4.3992,4.4005,4.4005,4.4005,4.4005,4.4005,4.4005,4.4005,4.4005,4.4005,4.4005,4.4005,4.4005,4.4128,4.4218,4.4317,4.4421,4.4587,4.4895,4.5042,4.5197,4.5361,4.5457,4.5495,4.5514,4.5476,4.5457,4.5495,4.5476,4.5457,4.5418,4.5398,4.5357,4.5317,4.5277,4.5277,4.5317,4.5357,4.5589,4.5916,4.5956,4.6052,4.6159,4.6224,4.5997,4.5776,4.5756,4.5802,4.5756,4.5761,4.5802,4.5835,4.5854,4.588,4.5917,4.5937,4.5905,4.5925,4.5905,4.5893,4.5886,4.596,4.6003,3.7568,3.8404,3.7619,3.8203,3.9323,3.8787,3.8888,3.9562,3.9764,3.9833,3.9833,3.9935,4.0037,4.0087,4.0087,4.0087,4.0087,4.0087,4.0155,4.0172,4.0272,4.0387,4.0566,4.0728,4.0905,4.1076,4.1215,4.1244,4.1318,4.1363,4.1391,4.1408,4.1408,4.1453,4.1515,4.1515,4.1515,4.1648,4.1941,4.2169,4.2328,4.2609,4.2804,4.2956,4.3012,4.3105,4.3305,4.3287,4.3359,4.3534,4.3652,4.3786,4.3883,4.3929,4.3961,4.3961,4.3974,4.4005,4.4005,4.4005,4.4005,4.4005,4.4005,4.4085,4.4116,4.4255,4.4354,4.4458,4.4568,4.4738,4.508,4.5239,4.5361,4.5457,4.5568,4.5586,4.5586,4.5568,4.555,4.555,4.5532,4.5476,4.5458,4.5419,4.5398,4.5359,4.5317,4.5317,4.5359,4.5398,4.5419,4.5592,4.5608,4.5676,4.5754,4.5766,4.5712,4.5646,4.5673,4.5831,4.5936,4.5944,4.5972,4.5972,4.5972,4.5986,4.6037,4.6046,4.6035,4.6025,4.5994,4.5964,4.5933,4.5975,4.5994,3.782,3.8369,3.7852,3.8352,3.932,3.88,3.8885,3.9475,3.954,3.9677,3.9746,3.9849,3.9986,4.0087,4.0087,4.0087,4.0087,4.0087,4.0172,4.0239,4.0322,4.047,4.0634,4.0762,4.084,4.1047,4.1093,4.1169,4.118,4.1209,4.1255,4.1209,4.1209,4.1255,4.138,4.1426,4.1515,4.1692,4.2048,4.2299,4.2409,4.2709,4.29,4.2994,4.2994,4.3031,4.3142,4.316,4.3233,4.3463,4.3497,4.3603,4.3723,4.3837,4.3897,4.3915,4.3942,4.4005,4.4005,4.4005,4.4005,4.4005,4.4036,4.4116,4.4255,4.4354,4.4524,4.4632,4.4764,4.487,4.5129,4.5321,4.5457,4.5514,4.5568,4.5586,4.5586,4.5586,4.5586,4.5586,4.5568,4.5532,4.5495,4.5458,4.5438,4.5399,4.5359,4.5359,4.5399,4.5458,4.5476,4.5566,4.5632,4.5723,4.5808,4.584,4.5733,4.5453,4.5531,4.5773,4.5987,4.6036,4.6037,4.6085,4.6114,4.6113,4.6104,4.6085,4.6095,4.6095,4.6046,4.5994,4.5975,4.5997,4.5997,3.7736,3.8419,3.8935,3.937,3.9606,3.9508,3.9473,3.9634,3.9609,3.9729,3.9816,3.9901,3.9986,4.0087,4.0087,4.0087,4.0087,4.0087,4.0189,4.0307,4.0389,4.0519,4.0717,4.0779,4.0888,4.0935,4.1047,4.1093,4.1123,4.118,4.1163,4.1209,4.1209,4.1209,4.1237,4.1338,4.1525,4.1771,4.209,4.2328,4.253,4.2747,4.2882,4.2938,4.2938,4.2975,4.3086,4.3104,4.3215,4.3376,4.3429,4.3481,4.3584,4.3767,4.3865,4.3897,4.3942,4.4005,4.4005,4.4005,4.4005,4.4036,4.4128,4.4237,4.4373,4.4532,4.4712,4.4865,4.5038,4.5216,4.5322,4.5438,4.5513,4.5568,4.5586,4.5586,4.5586,4.5586,4.5586,4.5586,4.5586,4.5568,4.5532,4.5495,4.5457,4.5458,4.5438,4.5458,4.5531,4.5565,4.5596,4.5677,4.5786,4.588,4.5964,4.5988,4.5927,4.5404,4.539,4.5624,4.5846,4.6002,4.6072,4.613,4.6177,4.6177,4.6149,4.6132,4.6085,4.6056,4.6026,4.5994,4.5994,4.6016,4.6056,3.7099,3.7502,3.8503,3.8803,3.8721,3.9426,3.9209,3.8723,3.9429,3.9631,3.9547,3.98,4.0037,4.0087,4.0087,4.0087,4.0087,4.0087,4.0222,4.0391,4.0423,4.0551,4.0748,4.0793,4.084,4.0888,4.0982,4.0982,4.0982,4.1012,4.1041,4.1059,4.1041,4.1088,4.1169,4.1233,4.1495,4.1771,4.2055,4.2333,4.2588,4.2786,4.29,4.29,4.29,4.2938,4.2994,4.3012,4.3105,4.3251,4.3286,4.3358,4.3532,4.3701,4.3851,4.3883,4.3961,4.4005,4.4005,4.4005,4.4036,4.4147,4.4248,4.4393,4.4532,4.4745,4.4895,4.508,4.5175,4.538,4.5457,4.5513,4.5568,4.5586,4.5586,4.5586,4.5586,4.5586,4.5603,4.5603,4.5586,4.5586,4.5568,4.5531,4.5512,4.5514,4.5515,4.5568,4.5632,4.5677,4.5718,4.58,4.5861,4.582,4.594,4.6052,4.587,4.5383,4.5383,4.5624,4.5779,4.5967,4.6103,4.6181,4.6201,4.6201,4.6193,4.6158,4.6113,4.6066,4.6056,4.6066,4.6035,4.6055,4.6076,3.6848,3.6966,3.8119,3.8388,3.8338,3.9059,3.8992,3.8402,3.9345,3.9564,3.9177,3.9699,4.0087,4.0087,4.0087,4.0087,4.0087,4.0121,4.029,4.0442,4.044,4.06,4.0776,4.0823,4.0776,4.0871,4.0935,4.0871,4.0918,4.0935,4.0918,4.0918,4.0918,4.0935,4.1064,4.1116,4.136,4.1727,4.1995,4.2297,4.2609,4.2804,4.29,4.29,4.29,4.29,4.2938,4.2938,4.3031,4.3178,4.3251,4.3322,4.3513,4.3701,4.3851,4.3883,4.3974,4.4036,4.4036,4.4128,4.4218,4.4354,4.4402,4.4549,4.4726,4.4914,4.5057,4.5256,4.536,4.54,4.5476,4.5568,4.5586,4.5586,4.5586,4.5586,4.5586,4.5603,4.562,4.562,4.564,4.5603,4.5603,4.5601,4.5582,4.5616,4.562,4.5684,4.5757,4.5808,4.5848,4.5925,4.5925,4.5774,4.5846,4.6025,4.5715,4.515,4.5449,4.5871,4.5923,4.5995,4.6092,4.6196,4.6215,4.6208,4.6208,4.6208,4.6158,4.6122,4.6122,4.6104,4.6124,4.6113,4.6142,3.7891,3.822,3.8918,3.9557,3.9884,3.9377,3.9311,3.9531,3.9613,3.9764,3.9598,3.9868,3.9986,4.0087,4.0087,4.0087,4.0121,4.0188,4.034,4.0492,4.0502,4.0611,4.0871,4.0871,4.0819,4.0853,4.0871,4.0871,4.0802,4.0802,4.0871,4.0871,4.0871,4.0918,4.1029,4.1099,4.1377,4.1823,4.2015,4.2364,4.2768,4.29,4.29,4.29,4.29,4.29,4.29,4.2938,4.3013,4.316,4.3214,4.3339,4.3582,4.3828,4.3986,4.4097,4.4158,4.4207,4.4188,4.4277,4.444,4.4551,4.464,4.477,4.4919,4.5033,4.517,4.5378,4.5418,4.5438,4.5495,4.5568,4.5586,4.5586,4.5586,4.5586,4.5603,4.5626,4.5645,4.5684,4.57,4.5651,4.5635,4.5668,4.568,4.5696,4.5727,4.5761,4.5654,4.5541,4.5947,4.6037,4.5833,4.5663,4.5896,4.606,4.5838,4.5156,4.5543,4.6036,4.6002,4.6002,4.6133,4.6206,4.6209,4.6196,4.6196,4.6209,4.6208,4.6193,4.6162,4.6177,4.6191,4.6189,4.6172,3.8666,3.8691,3.9203,3.9354,3.9248,3.9589,3.9374,3.8991,3.9581,3.9733,3.9531,3.9902,4.0037,4.0054,4.0087,4.0087,4.0138,4.0188,4.0322,4.032,4.0278,4.0367,4.0681,4.0491,4.0353,4.0836,4.0802,4.0509,4.0509,4.0664,4.0871,4.0853,4.0918,4.1012,4.1134,4.1233,4.1649,4.2062,4.2418,4.2673,4.2844,4.29,4.29,4.29,4.29,4.29,4.2938,4.2994,4.3087,4.3232,4.3304,4.3513,4.3763,4.3955,4.4109,4.4181,4.4374,4.4449,4.4364,4.444,4.4578,4.4712,4.4815,4.4919,4.5103,4.5233,4.5277,4.54,4.5438,4.5476,4.5513,4.5586,4.5586,4.5603,4.5603,4.5603,4.5618,4.5665,4.567,4.5728,4.5752,4.5771,4.5757,4.5752,4.5794,4.5835,4.5686,4.553,4.514,4.4628,4.5276,4.6107,4.5823,4.5487,4.5865,4.6176,4.6158,4.5738,4.5753,4.6111,4.6,4.6017,4.5994,4.6088,4.616,4.6167,4.6172,4.6209,4.6203,4.6209,4.6196,4.6151,4.6092,4.6136,4.6126,3.9456,3.96,3.9777,3.9491,3.9015,3.9915,3.9668,3.8798,3.9664,3.9783,3.9512,3.9817,3.9986,3.9884,3.9969,4.0087,4.0087,4.0121,4.0272,4.0217,4.0124,4.0311,4.0573,4.036,4.0388,4.0853,4.0526,4.025,4.0026,4.0026,4.0279,4.0642,4.0879,4.1117,4.1346,4.1471,4.1726,4.2326,4.2669,4.2862,4.29,4.29,4.29,4.29,4.2956,4.2938,4.2975,4.3068,4.3178,4.3339,4.3461,4.3664,4.3955,4.417,4.4288,4.4383,4.4595,4.4712,4.4613,4.4659,4.4693,4.4821,4.4962,4.5103,4.5254,4.5378,4.5399,4.5419,4.5438,4.5513,4.5586,4.5586,4.5586,4.5603,4.562,4.562,4.5651,4.5722,4.5783,4.5841,4.5893,4.5941,4.5929,4.5898,4.5902,4.5936,4.5735,4.5347,4.4733,4.4008,4.455,4.5494,4.5501,4.5331,4.5894,4.6182,4.6179,4.6134,4.6145,4.5935,4.5682,4.5565,4.5485,4.568,4.5795,4.5799,4.562,4.5913,4.6196,4.6229,4.6216,4.6016,4.5945,4.5994,4.6109,4.0459,4.169,4.0787,4.0639,4.0822,3.9962,3.9881,4.0061,4.0136,4.007,3.9968,4.007,3.9782,3.9445,3.9817,4.0087,4.0138,4.0238,4.039,4.0474,4.0568,4.0595,4.0683,4.0718,4.0647,4.0733,4.044,4.0026,3.9612,3.9364,3.9582,3.9922,4.051,4.115,4.1542,4.1762,4.1977,4.246,4.2765,4.2918,4.29,4.29,4.29,4.2938,4.2994,4.3104,4.3104,4.3196,4.3322,4.3513,4.3631,4.3873,4.4151,4.4393,4.4532,4.4621,4.4745,4.484,4.4796,4.4821,4.4919,4.5061,4.517,4.5235,4.5317,4.5359,4.54,4.5419,4.5495,4.5531,4.5586,4.5586,4.5586,4.5618,4.5648,4.5696,4.5737,4.5835,4.5906,4.5972,4.6005,4.6056,4.6075,4.6027,4.6018,4.6036,4.5129,4.4717,4.4269,4.3734,4.4058,4.4605,4.488,4.5187,4.5917,4.6131,4.6145,4.5994,4.5879,4.5507,4.5114,4.5017,4.4862,4.4745,4.4765,4.4934,4.5116,4.5258,4.5545,4.6078,4.6111,4.557,4.5507,4.5617,4.5865,3.9722,4.0654,4.0748,4.0989,4.1265,4.0833,4.0607,4.0531,4.05,4.0419,4.0221,4.0171,4.0035,3.9833,3.9851,4.0087,4.0138,4.0121,4.0323,4.0269,4.0209,4.0345,4.0486,4.0597,4.0353,4.0745,4.0474,3.9767,3.9026,3.9019,3.9205,3.9614,4.0117,4.0998,4.1551,4.2169,4.2494,4.2613,4.2806,4.29,4.29,4.29,4.29,4.29,4.3049,4.3123,4.3142,4.3304,4.3548,4.3749,4.3892,4.4121,4.4355,4.4587,4.4712,4.4796,4.4889,4.4895,4.4919,4.4943,4.5014,4.5148,4.5254,4.5317,4.5338,4.538,4.5419,4.5476,4.5513,4.5568,4.5586,4.5603,4.5603,4.5632,4.5692,4.5747,4.5822,4.5928,4.5998,4.6037,4.6102,4.6142,4.6157,4.6157,4.615,4.6045,4.5014,4.4091,4.3688,4.3337,4.3577,4.4031,4.4376,4.477,4.5458,4.5799,4.6054,4.5779,4.5502,4.4952,4.4418,4.4243,4.4069,4.3894,4.3813,4.4038,4.4255,4.4446,4.4801,4.5273,4.5135,4.4675,4.4821,4.5285,4.5655,3.9216,3.9868,4.0357,4.0866,4.1218,4.1375,4.1226,4.0901,4.0819,4.0474,3.9999,4.0102,4.0052,3.9918,4.0003,4.007,4.0138,4.0188,4.0306,4.0302,4.0292,4.0315,4.0526,4.0619,4.0602,4.0832,4.0509,3.9819,3.9129,3.9195,3.9267,3.9407,3.9713,4.0672,4.1926,4.2613,4.29,4.29,4.29,4.2938,4.2956,4.2956,4.2975,4.3013,4.3123,4.3215,4.334,4.3463,4.3682,4.3923,4.414,4.4374,4.4587,4.4764,4.4815,4.4865,4.4895,4.4895,4.4943,4.501,4.5061,4.517,4.5297,4.5338,4.5399,4.5419,4.5457,4.5495,4.5549,4.5603,4.562,4.5635,4.5684,4.5742,4.5822,4.5866,4.5947,4.6026,4.6072,4.6135,4.6164,4.6189,4.6201,4.6162,4.5933,4.5674,4.4679,4.3817,4.3279,4.2986,4.2873,4.3427,4.4045,4.4449,4.4902,4.5113,4.5243,4.4826,4.4527,4.4114,4.3697,4.3462,4.3072,4.2682,4.2717,4.3134,4.3319,4.3417,4.3864,4.4437,4.4246,4.4078,4.5033,4.5527,4.569,3.92,3.9839,3.9678,4.0076,4.076,4.1358,4.1525,4.1408,4.1007,4.0302,3.9623,3.9966,3.9849,3.9511,3.9968,4.0171,4.0188,4.0238,4.0372,4.0485,4.0594,4.0866,4.096,4.0972,4.0856,4.0804,4.0498,4.0008,3.9543,3.8945,3.906,3.9687,4.0155,4.0772,4.2221,4.2691,4.2882,4.29,4.2938,4.2994,4.3049,4.3086,4.3105,4.3178,4.3286,4.3376,4.3497,4.3667,4.3878,4.4128,4.4345,4.4532,4.4712,4.484,4.4914,4.4914,4.4919,4.4943,4.501,4.5061,4.5129,4.5213,4.5338,4.5379,4.5419,4.5438,4.5495,4.5513,4.5586,4.5637,4.5668,4.5715,4.5776,4.586,4.5929,4.5988,4.6046,4.6115,4.6164,4.6196,4.6195,4.6211,4.6221,4.6136,4.5812,4.5246,4.4305,4.3606,4.3147,4.2939,4.2864,4.2947,4.3652,4.4119,4.444,4.4468,4.4415,4.3973,4.3582,4.3212,4.2837,4.2524,4.2076,4.1564,4.1749,4.2259,4.2325,4.2327,4.283,4.3324,4.3705,4.3925,4.4947,4.5667,4.5745,3.8294,3.8489,3.8953,3.9213,3.9501,4.0601,4.1243,4.149,4.11,4.0634,4.0292,4.0434,4.0351,4.0165,4.0182,4.0337,4.0387,4.037,4.0502,4.0762,4.0888,4.0995,4.1088,4.1169,4.114,4.0977,4.0602,4.0141,3.9664,3.9207,3.9582,4.027,4.1026,4.185,4.2444,4.2786,4.2938,4.3012,4.3049,4.3086,4.3142,4.3142,4.3178,4.3214,4.3411,4.3532,4.3631,4.3846,4.4079,4.4364,4.456,4.4667,4.4796,4.4938,4.4962,4.4986,4.501,4.5103,4.517,4.5254,4.5275,4.5338,4.5378,4.5419,4.5438,4.5476,4.5513,4.5549,4.5637,4.5668,4.568,4.5791,4.586,4.5949,4.6007,4.6074,4.6142,4.6222,4.6265,4.627,4.626,4.6241,4.6231,4.6226,4.5936,4.5722,4.496,4.4196,4.3671,4.3437,4.3298,4.298,4.3247,4.372,4.3997,4.3734,4.3412,4.2953,4.2646,4.2398,4.2022,4.1719,4.1487,4.1182,4.1266,4.1388,4.1459,4.1586,4.1803,4.2168,4.2776,4.3527,4.445,4.5179,4.5597,3.7864,3.7829,3.8259,3.8579,3.8895,3.9949,4.0612,4.0718,4.0426,4.0291,4.0311,4.0285,4.0343,4.0431,4.0534,4.0534,4.0534,4.0631,4.068,4.0918,4.1105,4.1272,4.1363,4.138,4.1398,4.1261,4.1053,4.0683,4.0331,4.0333,4.0496,4.0949,4.194,4.2372,4.2709,4.2844,4.2938,4.2994,4.3049,4.3105,4.3178,4.3251,4.3286,4.3358,4.3463,4.3529,4.3744,4.3999,4.424,4.4513,4.4693,4.477,4.487,4.4943,4.501,4.5033,4.5103,4.517,4.5275,4.5337,4.5359,4.5458,4.5457,4.5458,4.5514,4.5551,4.5586,4.5637,4.5684,4.5746,4.5786,4.5887,4.596,4.6037,4.6093,4.615,4.6209,4.6275,4.6288,4.6292,4.629,4.6261,4.623,4.6228,4.6119,4.5941,4.5726,4.495,4.4213,4.4028,4.3665,4.3209,4.306,4.3475,4.3329,4.2688,4.2331,4.1909,4.1779,4.1701,4.1487,4.1234,4.103,4.0874,4.0917,4.0925,4.0781,4.0894,4.1228,4.1677,4.2265,4.3073,4.3963,4.4441,4.4867,3.7899,3.7899,3.7757,3.8169,3.8866,3.9391,3.9522,3.9357,3.9111,3.9311,3.9681,3.9581,3.9911,4.0412,4.0645,4.0697,4.0631,4.0823,4.0918,4.1076,4.1335,4.1542,4.1719,4.1762,4.1692,4.156,4.1346,4.1157,4.1115,4.0946,4.0996,4.1417,4.2228,4.2637,4.2806,4.2882,4.292,4.3031,4.3068,4.3178,4.3251,4.3322,4.3393,4.3463,4.3566,4.3649,4.3828,4.403,4.424,4.4467,4.4648,4.4796,4.4895,4.4986,4.501,4.5057,4.5148,4.5213,4.5317,4.5379,4.5458,4.5551,4.559,4.5571,4.5569,4.5642,4.5673,4.5684,4.5746,4.586,4.5956,4.5994,4.6047,4.6122,4.6169,4.6228,4.626,4.6296,4.6303,4.6295,4.6267,4.6249,4.62,4.6195,4.6181,4.6108,4.5869,4.5406,4.4792,4.4641,4.4158,4.3295,4.3206,4.3331,4.2909,4.213,4.1687,4.142,4.1295,4.1186,4.0964,4.0738,4.0451,4.0331,4.0507,4.0433,4.0062,4.0277,4.0758,4.1239,4.1481,4.2351,4.315,4.332,4.357,3.8072,3.7967,3.7915,3.7989,3.8025,3.8073,3.8593,3.9405,3.9417,3.9427,3.9347,3.9718,3.9939,4.0251,4.074,4.0866,4.0965,4.1041,4.118,4.1363,4.1604,4.1762,4.1849,4.1934,4.1892,4.1762,4.1631,4.1498,4.1552,4.1453,4.1831,4.2433,4.2603,4.2826,4.29,4.29,4.2975,4.305,4.3142,4.3251,4.3339,4.3428,4.3463,4.3532,4.3575,4.3707,4.3999,4.4184,4.4411,4.47,4.4827,4.4943,4.4895,4.5057,4.5148,4.5213,4.5256,4.5298,4.5361,4.54,4.5495,4.564,4.5676,4.5671,4.5687,4.5719,4.577,4.5776,4.5814,4.5905,4.6005,4.6056,4.6111,4.6183,4.6228,4.627,4.6292,4.629,4.6278,4.623,4.6225,4.6209,4.6153,4.6137,4.6138,4.6138,4.5952,4.5511,4.5149,4.491,4.4234,4.3319,4.2916,4.2902,4.2447,4.1723,4.131,4.0963,4.0906,4.084,4.0682,4.0424,3.9939,3.9802,3.9928,3.9619,3.9128,3.9585,4.0329,4.0157,4.038,4.138,4.2183,4.2259,4.2221,3.814,3.8088,3.8088,3.7985,3.7757,3.7613,3.8091,3.8762,3.8677,3.8642,3.8913,3.9161,3.9695,4.0368,4.0717,4.1049,4.1453,4.148,4.1525,4.1587,4.1874,4.2019,4.2103,4.2187,4.221,4.2086,4.1934,4.1805,4.1892,4.2187,4.2552,4.2747,4.2862,4.29,4.2938,4.2956,4.3068,4.3142,4.3214,4.3322,4.3393,4.3497,4.3479,4.3456,4.3527,4.3658,4.4002,4.4158,4.4308,4.4745,4.4895,4.4967,4.4967,4.5125,4.5275,4.5298,4.5339,4.538,4.5438,4.5438,4.5566,4.5687,4.5754,4.5761,4.578,4.5815,4.5854,4.5887,4.5917,4.5975,4.6037,4.6099,4.617,4.6231,4.6255,4.6284,4.6284,4.628,4.623,4.6175,4.6147,4.6131,4.6115,4.6095,4.6074,4.6066,4.5784,4.524,4.4908,4.467,4.3841,4.2856,4.2482,4.2272,4.1769,4.1364,4.1072,4.0798,4.0765,4.066,4.0474,4.0226,3.9884,3.9582,3.9333,3.9077,3.8896,3.9318,3.9835,3.966,3.959,4.0242,4.0808,4.0867,4.0745,3.8225,3.8192,3.8192,3.809,3.7881,3.7757,3.7757,3.765,3.7479,3.763,3.8249,3.8249,3.9118,4.0082,4.0546,4.1082,4.1495,4.175,4.1874,4.1849,4.2251,4.2414,4.2472,4.2609,4.2534,4.2396,4.2234,4.2145,4.2228,4.245,4.2667,4.284,4.288,4.2938,4.2938,4.3049,4.3123,4.3214,4.3286,4.3358,4.3411,4.3463,4.3458,4.3306,4.3102,4.3008,4.3469,4.3643,4.3604,4.426,4.4719,4.4805,4.5084,4.496,4.5105,4.5379,4.54,4.5419,4.5476,4.5494,4.5613,4.5731,4.5815,4.5874,4.591,4.5908,4.5947,4.5964,4.6007,4.6056,4.6107,4.6137,4.6189,4.6255,4.6288,4.6273,4.6268,4.6229,4.6167,4.6123,4.6105,4.6072,4.6056,4.6033,4.5747,4.5859,4.5576,4.4982,4.4275,4.4025,4.3297,4.2285,4.1956,4.1607,4.1264,4.0928,4.0815,4.0662,4.0596,4.0492,4.0326,4.0116,3.9871,3.9034,3.8136,3.885,3.9051,3.9252,3.9339,3.9371,3.9301,3.9321,3.9483,3.9621,3.9589,3.8241,3.8192,3.8192,3.8106,3.7967,3.7881,3.7864,3.7846,3.7649,3.772,3.8025,3.8376,3.8744,3.9391,4.0321,4.089,4.122,4.1899,4.2203,4.2248,4.2508,4.2441,4.2639,4.2535,4.2662,4.2729,4.2613,4.24,4.2512,4.2667,4.2802,4.2822,4.2918,4.3031,4.3031,4.3141,4.3251,4.334,4.3428,4.3497,4.3582,4.3456,4.3379,4.3079,4.2797,4.2632,4.2873,4.2731,4.2787,4.3149,4.3843,4.4465,4.5178,4.4645,4.4763,4.5245,4.5438,4.5495,4.5549,4.5599,4.5712,4.5786,4.5874,4.5964,4.6018,4.6024,4.6041,4.6074,4.6102,4.6123,4.6151,4.6189,4.6226,4.626,4.6284,4.6268,4.6221,4.6167,4.6112,4.6088,4.6056,4.6037,4.6014,4.5844,4.5537,4.5279,4.5015,4.4389,4.3228,4.2664,4.2323,4.154,4.1253,4.0936,4.0675,4.0568,4.0492,4.0412,4.0348,4.0248,4.012,3.969,3.9142,3.7623,3.6838,3.7949,3.8702,3.8662,3.8773,3.8915,3.8943,3.8915,3.8696,3.8737,3.8681,3.7717,3.8252,3.8274,3.8156,3.8052,3.7967,3.7951,3.7951,3.788,3.7949,3.8074,3.8295,3.8582,3.8923,3.9853,4.0572,4.0899,4.1789,4.1719,4.1775,4.2194,4.205,4.2123,4.2069,4.1851,4.1923,4.2265,4.2352,4.2678,4.2899,4.2955,4.2938,4.3087,4.3142,4.3142,4.3269,4.3394,4.3446,4.3566,4.3646,4.3758,4.3703,4.3402,4.3014,4.2595,4.2419,4.2234,4.2124,4.2218,4.2683,4.3509,4.4071,4.4648,4.4825,4.5036,4.5359,4.5565,4.5596,4.5645,4.5727,4.5794,4.5873,4.5932,4.6014,4.6115,4.6131,4.6118,4.6164,4.6164,4.6189,4.6195,4.6226,4.626,4.6292,4.6248,4.6217,4.6167,4.6107,4.6047,4.5977,4.5953,4.5949,4.5899,4.5827,4.5471,4.4885,4.4587,4.3733,4.2579,4.1634,4.121,4.0868,4.0617,4.0492,4.0361,4.0279,4.0211,4.0138,4.0043,3.9619,3.9302,3.8963,3.8298,3.7285,3.6989,3.7842,3.8358,3.8394,3.8436,3.8628,3.8566,3.8455,3.8231,3.798,3.7943,3.6936,3.805,3.8136,3.8092,3.8026,3.8016,3.807,3.8052,3.8101,3.8186,3.8289,3.8106,3.8627,3.9023,3.9369,3.9997,4.0648,4.1447,4.1283,4.1247,4.1679,4.164,4.135,4.0972,4.1099,4.1265,4.1505,4.2178,4.2722,4.2795,4.285,4.305,4.3159,4.3196,4.3231,4.341,4.3566,4.3575,4.3634,4.3732,4.3881,4.4028,4.3469,4.2922,4.2389,4.2143,4.184,4.1646,4.1656,4.2042,4.2733,4.3522,4.3982,4.436,4.46,4.4858,4.5263,4.538,4.5589,4.577,4.5894,4.5997,4.6022,4.6085,4.6196,4.6226,4.6211,4.6216,4.6211,4.6211,4.6236,4.6245,4.6273,4.6262,4.6202,4.6142,4.6099,4.6035,4.596,4.588,4.586,4.5847,4.5602,4.5561,4.5047,4.4484,4.3755,4.2915,4.2043,4.1294,4.0668,4.0366,4.012,4.0024,4.0024,3.9965,3.9882,3.9731,3.9542,3.8978,3.8576,3.8521,3.8276,3.7627,3.7603,3.8034,3.8232,3.8296,3.835,3.8198,3.8168,3.805,3.7826,3.7578,3.7339,3.6546,3.6655,3.7174,3.7403,3.7462,3.798,3.8271,3.8285,3.8216,3.8336,3.8319,3.8473,3.8656,3.8752,3.9382,3.9739,3.9671,4.0634,4.1199,4.1273,4.108,4.1117,4.0974,4.0441,4.0818,4.0915,4.1008,4.1466,4.2139,4.2265,4.2318,4.2408,4.3259,4.3201,4.2794,4.3152,4.3781,4.373,4.3457,4.339,4.3501,4.3521,4.3343,4.2822,4.2265,4.1525,4.0893,4.0519,4.0558,4.075,4.1226,4.2446,4.322,4.3567,4.3622,4.42,4.4615,4.4982,4.5192,4.5703,4.592,4.6074,4.6104,4.6174,4.6245,4.6264,4.6269,4.6273,4.6273,4.6277,4.628,4.6287,4.6295,4.6221,4.6164,4.6091,4.6014,4.5968,4.5893,4.5814,4.5742,4.5391,4.4867,4.4495,4.3771,4.312,4.2335,4.1513,4.0883,4.046,4.0129,3.9889,3.9626,3.9618,3.9637,3.9595,3.9519,3.9338,3.9021,3.8383,3.8154,3.8405,3.8048,3.7099,3.7387,3.7911,3.8062,3.7889,3.7719,3.7578,3.7703,3.7631,3.7394,3.7132,3.69]},{"header":{"parameterUnit":"m.s-1","parameterCategory":1,"la1":31.0,"la2":29.5877,"lo1":-88.7671,"lo2":-86.6584,"dy":0.0162,"dx":0.0185,"nx":115,"ny":88,"refTime":"2024-11-25T18:00:00:Z","depth":0,"parameterNumber":3,"parameterNumberName":"V-component_of_WINDS"},"data":[0.0,0.0,0.0,0.0,0.0,0.0,0.0,0.0,0.0,0.0,0.0,0.0,0.0,0.0,0.0,0.0,0.0,0.0,0.0,0.0,0.0,0.0,0.0,0.0,0.0,0.0,0.0,0.0,0.0,0.0,0.0,0.0,0.0,0.0,0.0,0.0,0.0,0.0,0.0,0.0,0.0,0.0,0.0,0.0,0.0,0.0,0.0,0.0,0.0,0.0,0.0,0.0,0.0,0.0,0.0,0.0,0.0,0.0,0.0,0.0,0.0,0.0,0.0,0.0,0.0,0.0,0.0,0.0,0.0,0.0,0.0,0.0,0.0,0.0,0.0,0.0,0.0,0.0,0.0,0.0,0.0,0.0,0.0,0.0,0.0,0.0,0.0,0.0,0.0,0.0,0.0,0.0,0.0,0.0,0.0,0.0,0.0,0.0,0.0,0.0,0.0,0.0,0.0,0.0,0.0,0.0,0.0,0.0,0.0,0.0,0.0,0.0,0.0,0.0,0.0,0.0,0.0,0.0,0.0,0.0,0.0,0.0,0.0,0.0,0.0,0.0,0.0,0.0,0.0,0.0,0.0,0.0,0.0,0.0,0.0,0.0,0.0,0.0,0.0,0.0,0.0,0.0,0.0,0.0,0.0,0.0,0.0,0.0,0.0,0.0,0.0,0.0,0.0,0.0,0.0,0.0,0.0,0.0,0.0,0.0,0.0,0.0,0.0,0.0,0.0,0.0,0.0,0.0,0.0,0.0,0.0,0.0,0.0,0.0,0.0,0.0,0.0,0.0,0.0,0.0,0.0,0.0,0.0,0.0,0.0,0.0,0.0,0.0,0.0,0.0,0.0,0.0,0.0,0.0,0.0,0.0,0.0,0.0,0.0,0.0,0.0,0.0,0.0,0.0,0.0,0.0,0.0,0.0,0.0,0.0,0.0,0.0,0.0,0.0,0.0,0.0,0.0,0.0,0.0,0.0,0.0,0.0,0.0,0.0,0.0,0.0,0.0,0.0,0.0,0.0,0.0,0.0,0.0,0.0,0.0,0.0,0.0,0.0,0.0,0.0,0.0,0.0,0.0,0.0,0.0,0.0,0.0,0.0,0.0,0.0,0.0,0.0,0.0,0.0,0.0,0.0,0.0,0.0,0.0,0.0,0.0,0.0,0.0,0.0,0.0,0.0,0.0,0.0,0.0,0.0,0.0,0.0,0.0,0.0,0.0,0.0,0.0,0.0,0.0,0.0,0.0,0.0,0.0,0.0,0.0,0.0,0.0,0.0,0.0,0.0,0.0,0.0,0.0,0.0,0.0,0.0,0.0,0.0,0.0,0.0,0.0,0.0,0.0,0.0,0.0,0.0,0.0,0.0,0.0,0.0,0.0,0.0,0.0,0.0,0.0,0.0,0.0,0.0,0.0,0.0,0.0,0.0,0.0,0.0,0.0,0.0,0.0,0.0,0.0,0.0,0.0,0.0,0.0,0.0,0.0,0.0,0.0,0.0,0.0,0.0,0.0,0.0,0.0,0.0,0.0,0.0,0.0,0.0,0.0,0.0,0.0,0.0,0.0,0.0,0.0,0.0,0.0,0.0,0.0,0.0,0.0,0.0,0.0,0.0,0.0,0.0,0.0,0.0,0.0,0.0,0.0,0.0,0.0,0.0,0.0,0.0,0.0,0.0,0.0,0.0,0.0,0.0,0.0,0.0,0.0,0.0,0.0,0.0,0.0,0.0,0.0,0.0,0.0,0.0,0.0,0.0,0.0,0.0,0.0,0.0,0.0,0.0,0.0,0.0,0.0,0.0,0.0,0.0,0.0,0.0,0.0,0.0,0.0,0.0,0.0,0.0,0.0,0.0,0.0,0.0,0.0,0.0,0.0,0.0,0.0,0.0,0.0,0.0,0.0,0.0,0.0,0.0,0.0,0.0,0.0,0.0,0.0,0.0,0.0,0.0,0.0,0.0,0.0,0.0,0.0,0.0,0.0,0.0,0.0,0.0,0.0,0.0,0.0,0.0,0.0,0.0,0.0,0.0,0.0,0.0,0.0,0.0,0.0,0.0,0.0,0.0,0.0,0.0,0.0,0.0,0.0,0.0,0.0,0.0,0.0,0.0,0.0,0.0,0.0,0.0,0.0,0.0,0.0,0.0,0.0,0.0,0.0,0.0,0.0,0.0,0.0,0.0,0.0,0.0,0.0,0.0,0.0,0.0,0.0,0.0,0.0,0.0,0.0,0.0,0.0,0.0,0.0,0.0,0.0,0.0,0.0,0.0,0.0,0.0,0.0,0.0,0.0,0.0,0.0,0.0,0.0,0.0,0.0,0.0,0.0,0.0,0.0,0.0,0.0,0.0,0.0,0.0,0.0,0.0,0.0,0.0,0.0,0.0,0.0,0.0,0.0,0.0,0.0,0.0,0.0,0.0,0.0,0.0,0.0,0.0,0.0,0.0,0.0,0.0,0.0,0.0,0.0,0.0,0.0,0.0,0.0,0.0,0.0,0.0,0.0,0.0,0.0,0.0,0.0,0.0,0.0,0.0,0.0,0.0,0.0,0.0,0.0,0.0,0.0,0.0,0.0,0.0,0.0,0.0,0.0,0.0,0.0,0.0,0.0,0.0,0.0,0.0,0.0,0.0,0.0,0.0,0.0,0.0,0.0,0.0,0.0,0.0,0.0,0.0,0.0,0.0,0.0,0.0,0.0,0.0,0.0,0.0,0.0,0.0,0.0,0.0,0.0,0.0,0.0,0.0,0.0,0.0,0.0,0.0,0.0,0.0,0.0,0.0,0.0,0.0,0.0,0.0,0.0,0.0,0.0,0.0,0.0,0.0,0.0,0.0,0.0,0.0,0.0,0.0,0.0,0.0,0.0,0.0,0.0,0.0,0.0,0.0,0.0,0.0,0.0,0.0,0.0,0.0,0.0,0.0,0.0,0.0,0.0,0.0,0.0,0.0,0.0,0.0,0.0,0.0,0.0,0.0,0.0,0.0,0.0,0.0,0.0,0.0,0.0,0.0,0.0,0.0,0.0,0.0,0.0,0.0,0.0,0.0,0.0,0.0,0.0,0.0,0.0,0.0,0.0,0.0,0.0,0.0,0.0,0.0,0.0,0.0,0.0,0.0,0.0,0.0,0.0,0.0,0.0,0.0,0.0,0.0,0.0,0.0,0.0,0.0,0.0,0.0,0.0,0.0,0.0,0.0,0.0,0.0,0.0,0.0,0.0,0.0,0.0,0.0,0.0,0.0,0.0,0.0,0.0,0.0,0.0,0.0,0.0,0.0,0.0,0.0,0.0,0.0,0.0,0.0,0.0,0.0,0.0,0.0,0.0,0.0,0.0,0.0,0.0,0.0,0.0,0.0,0.0,0.0,0.0,0.0,0.0,0.0,0.0,0.0,0.0,0.0,0.0,0.0,0.0,0.0,0.0,0.0,0.0,0.0,0.0,0.0,0.0,0.0,0.0,0.0,0.0,0.0,0.0,0.0,0.0,0.0,0.0,0.0,0.0,0.0,0.0,0.0,0.0,0.0,0.0,0.0,0.0,0.0,0.0,0.0,0.0,0.0,0.0,0.0,0.0,0.0,0.0,0.0,0.0,0.0,0.0,0.0,0.0,0.0,0.0,0.0,0.0,0.0,0.0,0.0,0.0,0.0,0.0,0.0,0.0,0.0,0.0,0.0,0.0,0.0,0.0,0.0,0.0,0.0,0.0,0.0,0.0,0.0,0.0,0.0,0.0,0.0,0.0,0.0,0.0,0.0,0.0,0.0,0.0,0.0,0.0,0.0,0.0,0.0,0.0,0.0,0.0,0.0,0.0,0.0,0.0,0.0,0.0,0.0,0.0,0.0,0.0,0.0,0.0,0.0,0.0,0.0,0.0,0.0,0.0,0.0,0.0,0.0,0.0,0.0,0.0,0.0,0.0,0.0,0.0,0.0,0.0,0.0,0.0,0.0,0.0,0.0,0.0,0.0,0.0,0.0,0.0,0.0,0.0,0.0,0.0,0.0,0.0,0.0,0.0,0.0,0.0,0.0,0.0,0.0,0.0,0.0,0.0,0.0,0.0,0.0,0.0,0.0,0.0,0.0,0.0,0.0,0.0,0.0,0.0,0.0,0.0,0.0,0.0,0.0,0.0,0.0,0.0,0.0,0.0,0.0,0.0,0.0,0.0,0.0,0.0,0.0,0.0,0.0,0.0,0.0,0.0,0.0,0.0,0.0,0.0,0.0,0.0,0.0,0.0,0.0,0.0,0.0,0.0,0.0,0.0,0.0,0.0,0.0,0.2679,0.0,0.0,0.0,0.0,0.0,0.0,0.0,0.0,0.0,0.0,0.0,0.0,0.0,0.0,0.0,0.0,0.0,0.0,0.0,0.0,0.0,0.0,0.0,0.0,0.0,0.0,0.0,0.0,0.0,0.0,0.0,0.0,0.0,0.0,0.0,0.0,0.0,0.0,0.0,0.0,0.0,0.0,0.0,0.0,0.0,0.0,0.0,0.0,0.0,0.0,0.0,0.0,0.0,0.0,0.0,0.0,0.0,0.0,0.0,0.0,0.0,0.0,0.0,0.0,0.0,0.0,0.0,0.0,0.0,0.0,0.0,0.0,0.0,0.0,0.0,0.0,0.0,0.0,0.0,0.0,0.0,0.0,0.0,0.0,0.0,0.0,0.0,0.0,0.0,0.0,0.0,0.0,0.0,0.0,0.0,0.0,0.0,0.0,0.0,0.0,0.0,0.0,0.0,0.0,0.0,0.0,0.0,0.0,0.0,0.0,0.3241,0.3208,0.3438,0.3492,0.3375,0.0,0.0,0.0,0.0,0.0,0.0,0.0,0.0,0.0,0.0,0.0,0.0,0.0,0.0,0.0,0.0,0.0,0.0,0.0,0.0,0.0,0.0,0.0,0.0,0.0,0.0,0.0,0.0,0.0,0.0,0.0,0.0,0.0,0.0,0.0,0.0,0.0,0.0,0.0,0.0,0.0,0.0,0.0,0.0,0.0,0.0,0.0,0.0,0.0,0.0,0.0,0.0,0.0,0.0,0.0,0.0,0.0,0.0,0.0,0.0,0.0,0.0,0.0,0.0,0.0,0.0,0.0,0.0,0.0,0.0,0.0,0.0,0.0,0.0,0.0,0.0,0.0,0.0,0.0,0.0,0.0,0.0,0.0,0.0,0.0,0.0,0.0,0.0,0.0,0.0,0.0,0.0,0.0,0.0,0.0,0.0,0.0,0.0,0.0,0.0,0.0,0.0,0.0,0.0,0.0,0.0,0.0,0.0,0.0,0.0,0.0,0.0,0.3856,0.4031,0.4262,0.0,0.0,0.0,0.0,0.0,0.0,0.0,0.0,0.0,0.0,0.0,0.0,0.0,0.0,0.0,0.0,0.0,0.0,0.0,0.0,0.0,0.0,0.0,0.0,0.0,0.0,0.0,0.0,0.0,0.0,0.0,0.0,0.0,0.0,0.0,0.0,0.0,0.0,0.0,0.0,0.0,0.0,0.0,0.0,0.0,0.0,0.0,0.0,0.0,0.0,0.0,0.0,0.0,0.0,0.0,0.0,0.0,0.0,0.0,0.0,0.0,0.0,0.0,0.0,0.0,0.0,0.0,0.0,0.0,0.0,0.0,0.0,0.0,0.0,0.0,0.0,0.0,0.0,0.0,0.0,0.0,0.0,0.0,0.0,0.0,0.0,0.0,0.0,0.0,0.0,0.0,0.0,0.0,0.0,0.0,0.0,0.0,0.0,0.0,0.0,0.0,0.0,0.0,0.0,0.0,0.0,0.0,0.0,0.0,0.0,0.4005,0.4309,0.4673,0.0,0.5308,0.0,0.0,0.0,0.0,0.0,0.0,0.0,0.0,0.0,0.0,0.0,0.0,0.0,0.0,0.0,0.0,0.0,0.0,0.0,0.0,0.0,0.0,0.0,0.0,0.0,0.0,0.0,0.0,0.0,0.0,0.0,0.0,0.0,0.0,0.0,0.0,0.0,0.0,0.0,0.0,0.0,0.0,0.0,0.0,0.0,0.0,0.0,0.0,0.0,0.0,0.0,0.0,0.0,0.0,0.0,0.0,0.0,0.0,0.0,0.0,0.0,0.0,0.0,0.0,0.0,0.0,0.0,0.0,0.0,0.0,0.0,0.0,0.0,0.0,0.0,0.0,0.0,0.0,0.0,0.0,0.0,0.0,0.0,0.0,0.0,0.0,0.0,0.0,0.0,0.0,0.0,0.0,0.0,0.0,0.0,0.0,0.0,0.0,0.0,0.0,0.0,0.0,0.0,0.0,0.0,0.0,0.0,0.0,0.0,0.0,0.4432,0.4791,0.5261,0.5537,0.0,0.0,0.0,0.0,0.0,0.0,0.0,0.0,0.0,0.0,0.0,0.0,0.0,0.0,0.0,0.0,0.0,0.0,0.0,0.0,0.0,0.0,0.0,0.0,0.0,0.0,0.0,0.0,0.0,0.0,0.0,0.0,0.0,0.0,0.0,0.0,0.0,0.0,0.0,0.0,0.0,0.0,0.0,0.0,0.0,0.0,0.0,0.0,0.0,0.0,0.0,0.0,0.0,0.0,0.0,0.0,0.0,0.0,0.0,0.0,0.0,0.0,0.0,0.0,0.0,0.0,0.0,0.0,0.0,0.0,0.0,0.0,0.0,0.0,0.0,0.0,0.0,0.0,0.0,0.0,0.0,0.0,0.0,0.0,0.0,0.0,0.0,0.0,0.0,0.0,0.0,0.0,0.0,0.0,0.0,0.0,0.0,0.0,0.0,0.0,0.0,0.0,0.0,0.0,0.0,0.0,0.0,0.0,0.0,0.0,0.4215,0.4795,0.5274,0.5781,0.5879,0.5594,0.0,0.0,0.0,0.0,0.0,0.0,0.0,0.0,0.0,0.0,0.0,0.0,0.0,0.0,0.0,0.0,0.0,0.0,0.0,0.0,0.0,0.0,0.0,0.0,0.0,0.0,0.0,0.0,0.0,0.0,0.0,0.0,0.0,0.0,0.0,0.0,0.0,0.0,0.0,0.0,0.0,0.0,0.0,0.0,0.0,0.0,0.0,0.0,0.0,0.0,0.0,0.0,0.0,0.0,0.0,0.0,0.0,0.0,0.0,0.0,0.0,0.0,0.0,0.0,0.0,0.0,0.0,0.0,0.0,0.0,0.0,0.0,0.0,0.0,0.0,0.0,0.0,0.0,0.0,0.0,0.0,0.0,0.0,0.0,0.0,0.0,0.0,0.0,0.0,0.0,0.0,0.0,0.0,0.0,0.0,0.0,0.0,0.0,0.0,0.0,0.0,0.0,0.0,0.0,0.0,0.0,0.0,0.0,0.0,0.463,0.5038,0.5791,0.6098,0.6003,0.0,0.0,0.0,0.0,0.0,0.0,0.0,0.0,0.0,0.0,0.0,0.0,0.0,0.0,0.0,0.0,0.0,0.0,0.0,0.0,0.0,0.0,0.0,0.0,0.0,0.0,0.0,0.0,0.0,0.0,0.0,0.0,0.0,0.0,0.0,0.0,0.0,0.0,0.0,0.0,0.0,0.0,0.0,0.0,0.0,0.0,0.0,0.0,0.0,0.0,0.0,0.0,0.0,0.0,0.0,0.0,0.0,0.0,0.0,0.0,0.0,0.0,0.0,0.0,0.0,0.0,0.0,0.0,0.0,0.0,0.0,0.0,0.0,0.0,0.0,0.0,0.0,0.0,0.0,0.0,0.0,0.0,0.0,0.0,0.0,0.0,0.0,0.0,0.0,0.0,0.0,0.0,0.0,0.0,0.0,0.0,0.0,0.0,0.0,0.0,0.0,0.0,0.0,0.0,0.0,0.0,0.0,0.0,0.0,0.3748,0.4904,0.5944,0.6771,0.6473,0.6253,0.0,0.0,0.0,0.0,0.0,0.0,0.0,0.0,0.0,0.0,0.0,0.0,0.0,0.0,0.0,0.0,0.0,0.0,0.0,0.0,0.0,0.0,0.0,0.0,0.0,0.0,0.0,0.0,0.0,0.0,0.0,0.0,0.0,0.0,0.0,0.0,0.0,0.0,0.0,0.0,0.0,0.0,0.0,0.0,0.0,0.0,0.0,0.0,0.0,0.0,0.0,0.0,0.0,0.0,0.0,0.0,0.0,0.0,0.0,0.0,0.0,0.0,0.0,0.0,0.0,0.0,0.0,0.0,0.0,0.0,0.0,0.0,0.0,0.0,0.0,0.0,0.0,0.0,0.0,0.0,0.0,0.0,0.0,0.0,0.0,0.0,0.0,0.0,0.0,0.0,0.0,0.0,0.0,0.0,0.0,0.0,0.0,0.0,0.0,0.0,0.0,0.0,0.0,0.0,0.0,0.0,0.0,0.0,0.0,0.3923,0.0,0.6608,0.0,0.6674,0.6322,0.0,0.0,0.0,0.0,0.0,0.0,0.0,0.0,0.0,0.0,0.0,0.0,0.0,0.0,0.0,0.0,0.0,0.0,0.0,0.0,0.0,0.0,0.0,0.0,0.0,0.0,0.0,0.0,0.0,0.0,0.0,0.0,0.0,0.0,0.0,0.0,0.0,0.0,0.0,0.0,0.0,0.0,0.0,0.0,0.0,0.0,0.0,0.0,0.0,0.0,0.0,0.0,0.0,0.0,0.0,0.0,0.0,0.0,0.0,0.0,0.0,0.0,0.0,0.0,0.0,0.0,0.0,0.0,0.0,0.0,0.0,0.0,0.0,0.0,0.0,0.0,0.0,0.0,0.0,0.0,0.0,0.0,0.0,0.0,0.0,0.0,0.0,0.0,0.0,0.0,0.0,0.0,0.0,0.0,0.0,0.0,0.0,0.0,0.0,0.0,0.0,0.0,0.0,0.0,0.0,0.0,0.0,0.0,0.3537,0.5168,0.6449,0.691,0.6527,0.6656,0.6293,0.0,0.0,0.0,0.0,0.0,0.0,0.0,0.0,0.0,0.0,0.0,0.0,0.0,0.0,0.0,0.0,0.0,0.0,0.0,0.0,0.0,0.0,0.0,0.0,0.0,0.0,0.0,0.0,0.0,0.0,0.0,0.0,0.0,0.0,0.0,0.0,0.0,0.0,0.0,0.0,0.0,0.0,0.0,0.0,0.0,0.0,0.0,0.0,0.0,0.0,0.0,0.0,0.0,0.0,0.0,0.0,0.0,0.0,0.0,0.0,0.0,0.0,0.0,0.0,0.0,0.0,0.0,0.0,0.0,0.0,0.0,0.0,0.0,0.0,0.0,0.0,0.0,0.0,0.0,0.0,0.0,0.0,0.0,0.0,0.0,0.0,0.0,0.0,0.0,0.0,0.0,0.0,0.0,0.0,0.0,0.0,0.0,0.0,0.0,0.0,0.0,0.0,0.0,0.0,0.0,0.0,0.0,0.0,0.0,0.555,0.6646,0.7487,0.8072,0.7301,0.693,0.0,0.0,0.0,0.0,0.0,0.0,0.0,0.0,0.0,0.0,0.0,0.0,0.0,0.0,0.0,0.0,0.0,0.0,0.0,0.0,0.0,0.0,0.0,0.0,0.0,0.0,0.0,0.0,0.0,0.0,0.0,0.0,0.0,0.0,0.0,0.0,0.0,0.0,0.0,0.0,0.0,0.0,0.0,0.0,0.0,0.0,0.0,0.0,0.0,0.0,0.0,0.0,0.0,0.0,0.0,0.0,0.0,0.0,0.0,0.0,0.0,0.0,0.0,0.0,0.0,0.0,0.0,0.0,0.0,0.0,0.0,0.0,0.0,0.0,0.0,0.0,0.0,0.0,0.0,0.0,0.0,0.0,0.0,0.0,0.0,0.0,0.0,0.0,0.0,0.0,0.0,0.0,0.0,0.0,0.0,0.0,0.0,0.0,0.0,0.0,0.0,0.0,0.0,0.0,0.0,0.0,0.0,0.0,0.0,0.6939,0.7583,0.825,0.8991,0.8141,0.7713,0.7774,0.0,0.0,0.0,0.0,0.0,0.0,0.0,0.0,0.0,0.0,0.0,0.0,0.0,0.0,0.0,0.0,0.0,0.0,0.0,0.0,0.0,0.0,0.0,0.0,0.0,0.0,0.0,0.0,0.0,0.0,0.0,0.0,0.0,0.0,0.0,0.0,0.0,0.0,0.0,0.0,0.0,0.0,0.0,0.0,0.0,0.0,0.0,0.0,0.0,0.0,0.0,0.0,0.0,0.0,0.0,0.0,0.0,0.0,0.0,0.0,0.0,0.0,0.0,0.0,0.0,0.0,0.0,0.0,0.0,0.0,0.0,0.0,0.0,0.0,0.0,0.0,0.0,0.0,0.0,0.0,0.0,0.0,0.0,0.0,0.0,0.0,0.0,0.0,0.0,0.0,0.0,0.0,0.0,0.0,0.0,0.0,0.0,0.0,0.0,0.0,0.0,0.0,0.0,0.0,0.0,0.0,0.0,0.0,0.9197,0.9202,0.9273,0.9459,0.9158,0.8612,0.0,0.0,0.0,0.0,0.0,0.0,0.0,0.0,0.0,0.0,0.0,0.0,0.0,0.0,0.0,0.0,0.0,0.0,0.0,0.0,0.0,0.0,0.0,0.0,0.0,0.0,0.0,0.0,0.0,0.0,0.0,0.0,0.0,0.0,0.0,0.0,0.0,0.0,0.0,0.0,0.0,0.0,0.0,0.0,0.0,0.0,0.0,0.0,0.0,0.0,0.0,0.0,0.0,0.0,0.0,0.0,0.0,0.0,0.0,0.0,0.0,0.0,0.0,0.0,0.0,0.0,0.0,0.0,0.0,0.0,0.0,0.0,0.0,0.0,0.0,0.0,0.0,0.0,0.0,0.0,0.0,0.0,0.0,0.0,0.0,0.0,0.0,0.0,0.0,0.0,0.0,0.0,0.0,0.0,0.0,0.0,0.0,0.0,0.0,0.0,0.0,0.0,0.0,0.0,0.0,0.0,0.0,0.0,0.0,1.0754,1.1371,1.1604,1.1425,1.0175,0.933,0.0,0.0,0.0,0.0,0.0,0.0,0.0,0.0,0.0,0.0,0.0,0.0,0.0,0.0,0.0,0.0,0.0,0.0,0.0,0.0,0.0,0.0,0.0,0.0,0.0,0.0,0.0,0.0,0.0,0.0,0.0,0.0,0.0,0.0,0.0,0.0,0.0,0.0,0.0,0.0,0.0,0.0,0.0,0.0,0.0,0.0,0.0,0.0,0.0,0.0,0.0,0.0,0.0,0.0,0.0,0.0,0.0,0.0,0.0,0.0,0.0,0.0,0.0,0.0,0.0,0.0,0.0,0.0,0.0,0.0,0.0,0.0,0.0,0.0,0.0,0.0,0.0,0.0,0.0,0.0,0.0,0.0,0.0,0.0,0.0,0.0,0.0,0.0,0.0,0.0,0.0,0.0,0.0,0.0,0.0,0.0,0.0,0.0,0.0,0.0,0.0,0.0,0.0,0.0,0.0,0.0,0.0,0.0,0.9753,1.1905,1.254,1.2986,1.3222,1.1867,1.0791,0.0,0.0,0.0,0.0,0.0,0.0,0.0,0.0,0.0,0.0,0.0,0.0,0.0,0.0,0.0,0.0,0.0,0.0,0.0,0.0,0.0,0.0,0.0,0.0,0.0,0.0,0.0,0.0,0.0,0.0,0.0,0.0,0.0,0.0,0.0,0.0,0.0,0.0,0.0,0.0,0.0,0.0,0.0,0.0,0.0,0.0,0.0,0.0,0.0,0.0,0.0,0.0,0.0,0.0,0.0,0.0,0.0,0.0,0.0,0.0,0.0,0.0,0.0,0.0,0.0,0.0,0.0,0.0,0.0,0.0,0.0,0.0,0.0,0.0,0.0,0.0,0.0,0.0,0.0,0.0,0.0,0.0,0.0,0.0,0.0,0.0,0.0,0.0,0.0,0.0,0.0,0.0,0.0,0.0,0.0,0.0,0.0,0.0,0.0,0.0,0.0,0.0,0.0,0.0,0.0,0.0,0.0,0.0,1.081,1.2736,1.3205,1.3801,1.461,1.3697,1.241,0.0,0.0,0.0,0.0,0.0,0.0,0.0,0.0,0.0,0.0,0.0,0.0,0.0,0.0,0.0,0.0,0.0,0.0,0.0,0.0,0.0,0.0,0.0,0.0,0.0,0.0,0.0,0.0,0.0,0.0,0.0,0.0,0.0,0.0,0.0,0.0,0.0,0.0,0.0,0.0,0.0,0.0,0.0,0.0,0.0,0.0,0.0,0.0,0.0,0.0,0.0,0.0,0.0,0.0,0.0,0.0,0.0,0.0,0.0,0.0,0.0,0.0,0.0,0.0,0.0,0.0,0.0,0.0,0.0,0.0,0.0,0.0,0.0,0.0,0.0,0.0,0.0,0.0,0.0,0.0,0.0,0.0,0.0,0.0,0.0,0.0,0.0,0.0,0.0,0.0,0.0,0.0,0.0,0.0,0.0,0.0,0.0,0.0,0.0,0.0,0.0,0.0,0.0,0.0,0.0,0.0,0.0,0.0,1.1814,1.3634,1.4309,1.4835,1.5231,1.3814,1.2557,0.0,0.0,0.0,0.0,0.0,0.0,0.0,0.0,0.0,0.0,0.0,0.0,0.0,0.0,0.0,0.0,0.0,0.0,0.0,0.0,0.0,0.0,0.0,0.0,0.0,0.0,0.0,0.0,0.0,0.0,0.0,0.0,0.0,0.0,0.0,0.0,0.0,0.0,0.0,0.0,0.0,0.0,0.0,0.0,0.0,0.0,0.0,0.0,0.2434,0.0,0.0,0.0,0.0,0.0,0.0,0.0,0.0,0.0,0.0,0.0,0.0,0.0,0.0,0.0,0.0,0.0,0.0,0.0,0.0,0.0,0.0,0.0,0.0,0.0,0.0,0.0,0.0,0.0,0.0,0.0,0.0,0.0,0.0,0.0,0.0,0.0,0.0,0.0,0.0,0.0,0.0,0.0,0.0,0.0,0.0,0.0,0.0,0.0,0.0,0.0,0.0,0.0,0.0,0.0,0.0,0.0,0.0,0.0,1.2574,1.4237,1.4835,1.5249,1.5462,1.4513,1.3364,0.0,0.0,0.0,0.0,0.0,0.0,0.0,0.0,0.0,0.0,0.0,0.0,0.0,0.0,0.0,0.0,0.0,0.0,0.0,0.0,0.0,0.0,0.0,0.0,0.0,0.0,0.0,0.0,0.0,0.0,0.0,0.0,0.0,0.0,0.0,0.0,0.0,0.0,0.0,0.0,0.0,0.0,0.0,0.0,0.0,0.0,0.0,0.0,0.0,0.0,0.0,0.0,0.0,0.0,0.0,0.0,0.0,0.0,0.0,0.0,0.0,0.0,0.0,0.0,0.0,0.0,0.0,0.0,0.0,0.0,0.0,0.0,0.0,0.0,0.0,0.0,0.0,0.0,0.0,0.0,0.0,0.0,0.0,0.0,0.0,0.0,0.0,0.0,0.0,0.0,0.0,0.0,0.0,0.0,0.0,0.0,0.0,0.0,0.0,0.0,0.0,0.0,0.0,0.0,0.0,0.0,0.0,1.1451,1.3106,1.4476,1.4946,1.5416,1.5726,1.5336,1.4301,1.2568,0.0,0.0,0.0,0.0,0.0,0.0,0.0,0.0,0.0,0.0,0.0,0.0,0.0,0.0,0.0,0.0,0.0,0.0,0.0,0.0,0.0,0.0,0.0,0.0,0.0,0.0,0.0,0.0,0.0,0.0,0.0,0.0,0.0,0.0,0.0,0.0,0.0,0.0,0.043,0.2046,0.0,0.0,0.0,0.0,0.0,0.0,0.0,0.0,0.3079,0.0,0.0,0.0,0.0,0.0,0.0,0.0,0.0,0.0,0.0,0.0,0.0,0.0,0.0,0.0,0.0,0.0,0.0,0.0,0.0,0.0,0.0,0.0,0.0,0.0,0.0,0.0,0.0,0.0,0.0,0.0,0.0,0.0,0.0,0.0,0.0,0.0,0.0,0.0,0.0,0.0,0.0,0.0,0.0,0.0,0.0,0.0,0.0,0.0,0.0,0.0,0.0,0.0,0.0,0.0,0.0,1.0036,1.148,1.29,1.4365,1.5206,1.5741,1.5982,1.5668,1.4785,1.3369,0.0,0.0,0.0,0.0,0.0,0.0,0.0,0.0,0.0,0.0,0.0,0.0,0.0,0.0,0.0,0.0,0.0,0.0,0.0,0.0,0.0,0.0,0.0,0.0,0.0,0.0,0.0,0.0,0.0,0.0,0.0,0.0,0.0,0.0,0.0,0.0,0.0,0.0,0.0,0.2262,0.3082,0.0,0.0,0.0,0.0,0.0,0.0,0.0,0.0,0.3599,0.0,0.0,0.0,0.0,0.0,0.0,0.0,0.0,0.0,0.0,0.0,0.0,0.0,0.0,0.0,0.0,0.0,0.0,0.0,0.0,0.0,0.0,0.0,0.0,0.0,0.0,0.0,0.0,0.0,0.0,0.0,0.0,0.0,0.0,0.0,0.0,0.0,0.0,0.0,0.0,0.0,0.0,0.0,0.0,0.0,0.0,0.0,0.0,0.0,0.0,0.0,0.0,0.0,0.0,0.0,1.052,1.2222,1.3818,1.5199,1.5665,1.5989,1.6221,1.5389,1.4585,0.0,0.0,0.0,0.0,0.0,0.0,0.0,0.0,0.0,0.0,0.0,0.0,0.0,0.0,0.0,0.0,0.0,0.0,0.0,0.0,0.0,0.0,0.0,0.0,0.0,0.0,0.0,0.0,0.0,0.0,0.0,0.0,0.0,0.0,0.0,0.0,0.0,0.0,0.0,0.0,0.3069,0.3808,0.4457,0.0,0.0,0.0,0.0,0.0,0.0,0.4125,0.4227,0.0,0.0,0.0,0.0,0.0,0.0,0.0,0.0,0.0,0.0,0.0,0.0,0.0,0.0,0.0,0.0,0.0,0.0,0.0,0.0,0.0,0.0,0.0,0.0,0.0,0.0,0.0,0.0,0.0,0.0,0.0,0.0,0.0,0.0,0.0,0.0,0.0,0.0,0.0,0.0,0.0,0.0,0.0,0.0,0.0,0.0,0.0,0.0,0.0,0.0,0.0,0.0,0.0,0.0,0.0,1.0745,1.2886,1.4611,1.5778,1.6049,1.6245,1.646,1.5355,1.4458,0.0,0.0,0.0,0.0,0.0,0.0,0.0,0.0,0.0,0.0,0.0,0.0,0.0,0.0,0.0,0.0,0.0,0.0,0.0,0.0,0.0,0.0,0.0,0.0,0.0,0.0,0.0,0.0,0.0,0.0,0.0,0.0,0.0,0.0,0.0,0.0,0.0,0.0,0.0,0.0,0.0,0.4706,0.5072,0.513,0.0,0.0,0.0,0.0,0.4972,0.5069,0.0,0.0,0.0,0.0,0.0,0.0,0.0,0.0,0.0,0.0,0.0,0.0,0.0,0.0,0.0,0.0,0.0,0.0,0.0,0.0,0.0,0.0,0.0,0.0,0.0,0.0,0.0,0.0,0.0,0.0,0.0,0.0,0.0,0.0,0.0,0.0,0.0,0.0,0.0,0.0,0.0,0.0,0.0,0.0,0.0,0.0,0.0,0.0,0.0,0.0,0.0,0.0,0.0,0.0,0.0,0.0,1.0008,1.2558,1.419,1.5014,1.5904,1.6484,1.664,1.6296,1.5397,0.0,0.0,0.0,0.0,0.0,0.0,0.0,0.0,0.0,0.0,0.0,0.0,0.0,0.0,0.0,0.0,0.0,0.0,0.0,0.0,0.0,0.0,0.0,0.0,0.0,0.0,0.0,0.0,0.0,0.0,0.0,0.0,0.0,0.0,0.0,0.0,0.0,0.0,0.0,0.0,0.0,0.5365,0.5442,0.6025,0.6257,0.0,0.0,0.6207,0.6286,0.6386,0.0,0.0,0.0,0.0,0.0,0.0,0.0,0.0,0.0,0.0,0.0,0.0,0.0,0.0,0.0,0.0,0.0,0.0,0.0,0.0,0.0,0.0,0.0,0.0,0.0,0.0,0.0,0.0,0.0,0.0,0.0,0.0,0.0,0.0,0.0,0.0,0.0,0.0,0.0,0.0,0.0,0.0,0.0,0.0,0.0,0.0,0.0,0.0,0.0,0.0,0.0,0.0,0.0,0.0,0.0,0.7587,1.1081,1.3593,1.5273,1.6137,1.6561,1.6894,1.7057,1.602,1.4907,0.0,0.0,0.0,0.0,0.0,0.0,0.0,0.0,0.0,0.0,0.0,0.0,0.0,0.0,0.0,0.0,0.0,0.0,0.0,0.0,0.0,0.0,0.0,0.0,0.0,0.0,0.0,0.0,0.0,0.0,0.0,0.0,0.0,0.0,0.0,0.0,0.0,0.0,0.0,0.0,0.0,0.0,0.6157,0.66,0.0,0.0,0.0,0.7384,0.7533,0.0,0.0,0.0,0.0,0.0,0.0,0.0,0.0,0.0,0.0,0.0,0.0,0.0,0.0,0.0,0.0,0.0,0.0,0.0,0.0,0.0,0.0,0.0,0.0,0.0,0.0,0.0,0.0,0.0,0.0,0.0,0.0,0.0,0.0,0.0,0.0,0.0,0.0,0.0,0.0,0.0,0.0,0.0,0.0,0.0,0.0,0.0,0.0,0.0,0.0,0.0,0.0,0.0,0.0,0.0,0.0,0.0,1.1963,1.4602,1.6268,1.6904,1.709,1.7221,1.7359,1.5815,0.0,0.0,0.0,0.0,0.0,0.0,0.0,0.0,0.0,0.0,0.0,0.0,0.0,0.0,0.0,0.0,0.0,0.0,0.0,0.0,0.0,0.0,0.0,0.0,0.0,0.0,0.0,0.0207,0.0,0.0,0.0,0.0,0.0,0.0,0.0,0.0,0.0,0.0,0.0,0.0,0.0,0.0,0.5849,0.7002,0.7301,0.7806,0.0,0.0,0.8488,0.869,0.8853,0.877,0.0,0.0,0.0,0.0,0.0,0.0,0.0,0.0,0.0,0.0,0.0,0.0,0.0,0.0,0.0,0.0,0.0,0.0,0.0,0.0,0.0,0.0,0.0,0.0,0.0,0.0,0.0,0.0,0.0,0.0,0.0,0.0,0.0,0.0,0.0,0.0,0.0,0.0,0.0,0.0,0.0,0.0,0.0,0.0,0.0,0.0,0.0,0.0,0.0,0.0,0.0,0.0,0.0,0.0,0.0,1.1811,1.5022,1.6645,1.6571,1.6887,1.7221,1.7375,1.6438,1.5321,0.0,0.0,0.0,0.0,0.0,0.0,0.0,0.0,0.0,0.0,0.0,0.0,0.0,0.0,0.0,0.0,0.0,0.0,0.0,0.0,0.0,0.0,0.0,0.0,0.0,0.0,0.0,0.0,0.0,0.0,0.0,0.0,0.0,0.0,0.0,0.0,0.0,0.0,0.0,0.0,0.0,0.6218,0.8275,0.8508,0.8739,0.0,0.9597,0.9564,0.9742,1.0024,0.994,0.9235,0.0,0.0,0.0,0.0,0.0,0.0,0.0,0.0,0.0,0.0,0.0,0.0,0.0,0.0,0.0,0.0,0.0,0.0,0.0,0.0,0.0,0.0,0.0,0.0,0.0,0.0,0.0,0.0,0.0,0.0,0.0,0.0,0.0,0.0,0.0,0.0,0.0,0.0,0.0,0.0,0.0,0.0,0.0,0.0,0.0,0.0,0.0,0.0,0.0,0.0,0.0,0.0,0.0,0.8,1.1891,1.5064,1.669,1.6776,1.713,1.7465,1.7797,1.6792,1.557,0.0,0.0,0.0,0.0,0.0,0.0,0.0,0.0,0.0,0.0,0.0,0.0,0.0,0.0,0.0,0.0,0.0,0.0,0.0,0.0,0.0,0.0,0.0,0.0,0.0,0.0,0.0,0.0,0.1736,0.2153,0.2737,0.0,0.0,0.0,0.0,0.0,0.0,0.0,0.0,0.0,0.0,0.695,0.8734,0.9086,0.0,0.0,1.0387,1.0201,1.0024,1.0358,1.0321,0.9018,0.827,0.0,0.0,0.0,0.0,0.0,0.0,0.0,0.0,0.0,0.0,0.0,0.0,0.0,0.0,0.0,0.0,0.0,0.0,0.0,0.0,0.0,0.0,0.0,0.0,0.0,0.0,0.0,0.0,0.0,0.0,0.0,0.0,0.0,0.0,0.0,0.0,0.0,0.0,0.0,0.0,0.0,0.0,0.0,0.0,0.0,0.0,0.0,0.0,0.0,0.0,0.0,0.0,0.8516,1.1956,1.4935,1.6632,1.6926,1.7202,1.7554,1.7844,1.6868,1.5604,0.0,0.0,0.0,0.0,0.0,0.0,0.0,0.0,0.0,0.0,0.0,0.0,0.0,0.0,0.0,0.0,0.0,0.0,0.0,0.0,0.0,0.0,0.0,0.0,0.0,0.0,0.0,0.0,0.2286,0.268,0.3078,0.0,0.0,0.0,0.0,0.0,0.0,0.0,0.0,0.0,0.0,0.7462,0.8903,0.9473,0.9967,1.0711,1.091,1.0823,1.0406,1.0697,1.0476,0.9336,0.0,0.0,0.0,0.0,0.0,0.0,0.0,0.0,0.0,0.0,0.0,0.0,0.0,0.0,0.0,0.0,0.0,0.0,0.0,0.0,0.0,0.0,0.0,0.0,0.0,0.0,0.0,0.7558,0.0,0.0,0.692,0.0,0.0,0.0,0.0,0.0,0.0,0.0,0.0,0.0,0.0,0.0,0.0,0.0,0.0,0.0,0.0,0.0,0.0,0.0,0.0,0.0,0.0,0.9935,1.1956,1.4652,1.6325,1.6917,1.7202,1.7465,1.7674,1.6657,1.5571,1.4352,0.0,0.0,0.0,0.0,0.0,0.0,0.0,0.0,0.0,0.0,0.0,0.0,0.0,0.0,0.0,0.0,0.0,0.0,0.0,0.0,0.0,0.0,0.0,0.0,0.0,0.0,0.2758,0.3132,0.332,0.0,0.0,0.0,0.0,0.0,0.0,0.0,0.0,0.0,0.0,0.6251,0.7595,0.8686,0.947,1.0218,1.0608,1.1238,1.1577,1.1268,1.0855,1.0552,0.0,0.0,0.0,0.0,0.0,0.0,0.0,0.0,0.0,0.0,0.0,0.0,0.0,0.0,0.0,0.0,0.0,0.0,0.0,0.0,0.0,0.0,0.0,0.0,0.0,0.0,0.0,0.9201,0.8966,0.0,0.0,0.0,0.0,0.0,0.0,0.0,0.0,0.0,0.0,0.0,1.2512,1.2759,0.0,0.0,0.0,0.0,0.0,0.0,0.0,0.0,0.0,0.0,0.0,0.0,0.8995,1.2295,1.4629,1.6146,1.6839,1.7121,1.7375,1.7691,1.6797,1.5323,1.3201,0.0,0.0,0.0,0.0,0.0,0.0,0.0,0.0,0.0,0.0,0.0,0.0,0.0,0.0,0.0,0.0,0.0,0.0,0.0,0.0,0.0,0.0,0.0,0.0,0.0,0.2633,0.0,0.0,0.0,0.0,0.0,0.0,0.0,0.0,0.0,0.0,0.0,0.4547,0.5407,0.7049,0.8545,0.9418,1.0177,1.0683,0.0,0.0,0.0,0.0,0.0,0.0,0.0,0.0,0.0,0.0,0.0,0.0,0.0,0.0,0.4922,0.4358,0.4317,0.4354,0.4284,0.0,0.0,0.0,0.0,0.0,0.0,0.0,0.0,0.0,0.0,0.0,0.0,0.0,0.0,1.0935,0.0,1.0246,0.0,0.0,0.0,0.0,0.0,0.0,0.0,0.0,1.3039,1.3886,1.4611,1.4563,1.4309,0.0,1.2963,1.164,0.0,0.0,0.0,0.0,0.0,0.0,0.0,0.0,0.9266,1.2591,1.4749,1.6129,1.6768,1.696,1.7221,1.7448,1.6667,1.5213,1.2951,1.1511,1.0129,0.0,0.0,0.0,0.0,0.0,0.0,0.0,0.0,0.0,0.0,0.0,0.0,0.0,0.0,0.0,0.0,0.0,0.0,0.0,0.0,0.0,0.0,0.0,0.316,0.0,0.0,0.0,0.0,0.0,0.0,0.0,0.0,0.0,0.3339,0.4464,0.5582,0.6229,0.7816,0.9152,0.9802,0.0,0.0,0.0,0.0,0.0,0.0,0.0,1.0217,0.9432,0.9152,0.8539,0.7417,0.6664,0.6188,0.6226,0.0,0.0,0.5179,0.5043,0.5148,0.5168,0.5115,0.5144,0.5424,0.549,0.5431,0.0,0.0,0.0,0.0,0.0,0.0,0.0,0.0,1.2861,1.2715,0.0,1.1874,0.0,0.0,0.0,0.0,0.0,1.2666,0.0,0.0,1.5399,1.645,1.6782,1.6277,1.5928,1.5725,1.5154,1.4311,1.3132,1.0119,0.0,0.0,0.0,0.0,0.0,0.0,1.076,1.2946,1.4956,1.6223,1.6555,1.6879,1.7049,1.7033,1.622,1.5072,1.3715,1.2854,1.1658,0.9841,0.8978,0.0,0.0,0.0,0.0,0.0,0.0,0.0,0.0,0.0,0.0,0.0,0.0,0.0,0.0,0.0,0.0,0.0,0.0,0.0,0.0,0.327,0.0,0.0,0.0,0.0,0.0,0.0,0.0,0.0,0.0,0.0,0.4466,0.598,0.7148,0.7337,0.0,0.0,0.0,0.0,1.1228,1.0758,1.1457,1.1759,1.1256,1.0662,1.038,1.075,0.0,0.0,0.7371,0.689,0.6584,0.68,0.6812,0.6679,0.61,0.5913,0.5987,0.5919,0.5922,0.5981,0.6114,0.6401,0.6414,1.879,0.0,0.0,0.0,0.0,1.5468,1.5929,1.6642,1.6262,1.5756,1.5233,1.4528,0.0,0.0,0.0,0.0,0.0,0.0,1.4703,1.5221,1.6362,1.7156,1.7609,1.7379,1.7091,1.6745,1.6066,1.5424,1.4626,1.2882,1.1073,0.9311,0.0,0.0,0.0,0.0,1.0745,1.3901,1.5667,1.6675,1.6904,1.6838,1.673,1.664,1.6285,1.556,1.4494,1.3327,1.2269,1.1281,0.9836,0.0,0.0,0.0,0.0,0.0,0.0,0.0,0.0,0.0,0.0,0.0,0.0,0.0,0.0,0.0,0.0,0.0,0.0,0.0,0.4114,0.4284,0.4313,0.0,0.0,0.0,0.0,0.0,0.0,0.0,0.0,0.0,0.676,0.7355,0.7985,0.0,0.0,1.0209,1.037,1.0863,1.1279,1.1111,1.1282,0.0,1.099,1.0762,1.0622,1.0382,0.9176,0.8463,0.8703,0.7865,0.7189,0.7339,0.7429,0.7353,0.7144,0.6916,0.6827,0.691,0.6848,0.6811,0.7128,0.7015,0.6759,2.1073,1.9179,1.7964,1.7464,1.7552,1.7999,1.8626,1.9242,1.8729,1.8012,1.7259,1.6634,1.587,1.5051,1.483,0.0,0.0,0.0,1.6514,1.6985,1.7706,1.8212,1.8496,1.8225,1.791,1.7549,1.6751,1.6147,1.5584,1.4874,1.3606,1.1828,0.0,0.0,1.1363,1.0496,1.1643,1.4669,1.6028,1.675,1.6976,1.6812,1.6656,1.6558,1.6362,1.5927,1.5121,1.407,1.3114,1.2239,1.0758,0.9535,0.0,0.0,0.0,0.0,0.0,0.0,0.0,0.0,0.0,0.0,0.0,0.2917,0.2834,0.0,0.0,0.0,0.4055,0.4418,0.4833,0.5043,0.0,0.0,0.0,0.0,0.0,0.0,0.0,0.5888,0.6882,0.7777,0.8476,0.8759,0.9179,0.9648,1.0179,1.0632,1.093,0.0,1.1438,1.1419,1.15,1.1399,1.1202,1.1091,1.0863,1.0307,0.9555,0.8949,0.8983,0.8243,0.7647,0.7644,0.7704,0.7774,0.779,0.7617,0.7495,0.7539,0.7453,0.7392,0.7668,0.7495,0.7206,2.238,2.2274,2.1119,1.99,1.8956,2.0178,2.0793,2.0819,2.0396,1.9624,1.868,1.8304,1.7631,1.6741,1.6603,0.0,1.7684,1.8254,1.86,1.88,1.9234,1.9399,1.938,1.8985,1.8566,1.8124,1.7325,1.6704,1.6263,1.6152,1.5723,1.4856,1.352,1.292,1.3044,1.2317,1.3054,1.542,1.6284,1.6694,1.6722,1.673,1.673,1.6648,1.6453,1.6126,1.5591,1.4882,1.3895,1.2681,1.1742,1.0592,0.924,0.0,0.0,0.0,0.0,0.0,0.0,0.0,0.0,0.0,0.0,0.0,0.0,0.0,0.0,0.0,0.517,0.0,0.5182,0.565,0.0,0.0,0.0,0.5631,0.6317,0.622,0.6282,0.6802,0.0,0.0,0.9541,1.013,1.0537,1.0714,1.0627,1.0731,1.1507,1.1672,1.1728,1.1643,1.1775,1.1878,1.156,1.1361,1.0965,1.0489,0.9924,0.9367,0.8754,0.8336,0.797,0.7855,0.7946,0.8031,0.8035,0.8004,0.7994,0.7841,0.7824,0.7824,0.7831,0.7831,0.7734,2.3285,2.3223,2.2628,2.1936,2.1247,2.1691,2.2006,2.211,2.157,2.0937,2.0246,1.9819,1.9344,1.8883,1.8813,1.885,1.8922,1.9341,1.9409,1.9234,1.9905,2.0259,2.0265,1.9647,1.9073,1.854,1.788,1.7465,1.7172,1.673,1.6363,1.6121,1.5904,1.5386,1.446,1.385,1.4399,1.6,1.6444,1.6659,1.673,1.673,1.6656,1.6476,1.6137,1.5805,1.5328,1.4137,1.3404,1.3174,1.1853,1.0697,0.9896,0.8681,0.0,0.0,0.0,0.0,0.0,0.0,0.0,0.0,0.0,0.4117,0.4127,0.0,0.494,0.0,0.6125,0.6418,0.6479,0.671,0.0,0.0,0.6651,0.6764,0.7359,0.7373,0.7405,0.7815,0.8651,0.9382,0.9944,1.0417,1.0928,1.1604,1.1458,1.1505,1.1849,1.1737,1.1716,1.1863,1.1585,1.1487,1.1585,1.1394,1.1002,1.0507,0.9924,0.941,0.8875,0.8305,0.8028,0.7991,0.8011,0.8038,0.8038,0.8038,0.8028,0.7994,0.7984,0.7987,0.7987,0.7984,0.7885,2.3446,2.315,2.2927,2.2626,2.2315,2.2399,2.2391,2.222,2.2052,2.1638,2.1094,2.0508,2.0159,2.0149,1.9855,1.9964,2.0247,2.0259,2.0059,1.9889,2.0295,2.0631,2.0818,2.0092,1.9447,1.8817,1.8215,1.7756,1.7464,1.7149,1.6927,1.6867,1.7142,1.6801,1.588,1.5474,1.5659,1.6444,1.6635,1.673,1.673,1.6648,1.6487,1.6168,1.5821,1.5492,1.5117,1.3818,1.3049,1.2941,1.1643,1.0659,0.9991,0.8983,0.7913,0.0,0.0,0.0,0.0,0.0,0.0,0.0,0.0,0.0,0.0,0.0,0.5711,0.6628,0.717,0.7534,0.7459,0.7629,0.7745,0.784,0.7512,0.7458,0.791,0.7909,0.8063,0.8575,0.921,0.9861,1.0329,1.0728,1.1194,1.1878,1.1883,1.1838,1.2128,1.2104,1.2078,1.1975,1.1785,1.1487,1.1492,1.1296,1.1096,1.0806,1.0122,0.9525,0.9225,0.8535,0.8038,0.8038,0.8038,0.8038,0.8038,0.8038,0.8038,0.8038,0.8038,0.8038,0.8038,0.8038,0.7939,2.3139,2.2628,2.2628,2.2649,2.2531,2.2563,2.2295,2.179,2.2231,2.2025,2.1482,2.0697,2.0601,2.0836,2.0301,2.0596,2.1339,2.0886,2.0605,2.0613,2.0615,2.079,2.0987,2.0312,1.9587,1.9019,1.8479,1.8,1.7614,1.7622,1.7465,1.7333,1.7548,1.7563,1.7204,1.7,1.682,1.673,1.673,1.673,1.673,1.6566,1.623,1.5816,1.5443,1.5031,1.4547,1.3634,1.2832,1.2351,1.1341,1.0522,0.9915,0.9111,0.8302,0.0,0.6824,0.0,0.0,0.0,0.0,0.0,0.0,0.0,0.0,0.6022,0.6702,0.7499,0.8137,0.8449,0.8188,0.8384,0.8421,0.8321,0.8002,0.7995,0.8259,0.8341,0.8567,0.9165,0.9841,1.0316,1.0765,1.1096,1.1492,1.1883,1.198,1.217,1.2365,1.2559,1.2473,1.2078,1.198,1.1683,1.1292,1.1194,1.1194,1.1002,1.0216,0.9628,0.9529,0.8733,0.8038,0.8038,0.8038,0.8038,0.8038,0.8038,0.8038,0.8038,0.8038,0.8038,0.8038,0.8038,0.8038,2.2553,2.2478,2.2478,2.2327,2.2187,2.2035,2.1918,2.18,2.208,2.2025,2.1731,2.141,2.1303,2.138,2.1074,2.0971,2.0984,2.0731,2.0634,2.0624,2.0779,2.0634,2.0157,2.0157,1.9816,1.927,1.8815,1.8461,1.8224,1.7966,1.7848,1.7857,1.7917,1.7859,1.7737,0.0,0.0,0.0,1.673,1.673,1.673,1.6648,1.6149,1.5248,1.5144,0.0,1.3223,1.2743,1.2269,1.1868,1.1335,0.0,0.0,0.0,0.0,0.0,0.0,0.0,0.0,0.0,0.0,0.0,0.7108,0.6912,0.6677,0.7459,0.8138,0.8522,0.8765,0.887,0.8801,0.903,0.8996,0.8674,0.8708,0.8877,0.914,0.9146,0.9347,0.9837,1.0325,1.0658,1.0792,1.1194,1.1688,1.1975,1.2175,1.2467,1.2662,1.2565,1.2467,1.2273,1.1975,1.1585,1.1292,1.1194,1.11,1.0605,1.0019,0.9529,0.9232,0.8634,0.8038,0.8038,0.8038,0.8038,0.8038,0.8038,0.8038,0.8038,0.8038,0.8038,0.8038,0.8038,0.8038,2.3054,0.0,2.2524,2.2293,0.0,2.1671,2.1492,2.1548,2.1645,2.1655,2.1655,2.1359,2.1436,2.1731,2.1359,2.1282,2.1502,2.1041,2.1061,2.1389,2.0809,2.0469,2.0207,2.0001,1.9627,1.9152,1.8851,1.8612,1.8362,1.8112,1.8031,1.8049,1.8057,1.8086,1.8112,1.8033,1.7705,1.7016,1.6826,1.673,1.6648,1.6402,1.5912,1.5175,1.4685,0.0,0.0,0.0,0.0,0.0,0.0,0.0,0.0,0.0,0.0,0.9663,0.9366,0.9105,0.8716,0.8633,0.8636,0.8792,0.8796,0.8557,0.7893,0.8595,0.9087,0.9173,0.9358,0.9411,0.932,0.9492,0.9451,0.9174,0.9335,0.9492,0.9592,0.9664,0.9914,1.0214,1.0581,1.0801,1.0998,1.1296,1.1688,1.1975,1.2273,1.2467,1.2764,1.2662,1.2565,1.2268,1.1883,1.1492,1.1296,1.1194,1.1194,1.09,1.0413,1.0023,0.9937,0.9133,0.8435,0.8137,0.8038,0.8038,0.8038,0.8038,0.8038,0.8038,0.8038,0.8038,0.8038,0.8038,0.8038,2.3515,2.2772,2.2536,2.2388,2.2188,2.1597,2.1359,2.1359,0.0,0.0,0.0,2.1138,2.1359,2.2035,2.1502,2.1512,2.1959,2.1425,2.1466,2.188,2.0761,2.0333,2.0401,1.9784,1.932,1.8922,1.878,1.8531,1.8362,1.8121,1.8031,1.7985,1.8243,1.833,1.8397,1.8194,1.7919,1.7467,1.7016,1.6802,1.6656,1.6154,1.5651,1.5167,1.4427,1.3796,1.3186,1.279,1.2264,1.1822,1.1634,1.142,1.1047,1.1035,1.0977,1.0857,1.0699,1.0509,1.034,1.034,1.0297,1.0232,1.0208,0.9854,0.9072,0.9478,0.97,0.97,0.9885,0.992,0.9749,0.9933,0.9962,0.9867,0.9925,1.0036,1.0175,1.0216,1.0423,1.0573,1.0807,1.0998,1.1194,1.1492,1.178,1.198,1.2273,1.257,1.2759,1.2667,1.2467,1.2078,1.1785,1.1389,1.1292,1.1194,1.1292,1.1487,1.0801,1.0422,1.0542,0.9739,0.8737,0.8137,0.8038,0.8038,0.8038,0.8038,0.8038,0.8038,0.8038,0.8038,0.8038,0.8038,0.8038,2.2656,2.2504,2.2514,2.2514,2.2432,2.2209,2.1945,2.1804,2.138,2.1282,2.1502,2.1282,2.1502,2.2111,2.1655,2.1512,2.1578,2.1359,2.1051,2.0819,2.0186,1.9932,1.9825,1.9529,1.9161,1.878,1.8692,1.8451,1.8121,1.804,1.8031,1.8091,1.8326,1.8668,1.8795,1.8169,1.7842,1.7691,1.7374,1.7056,1.6664,1.6566,1.5896,1.4515,1.4669,1.4037,1.2498,1.2492,1.2454,1.222,1.2013,1.1768,1.1732,1.1726,1.1671,1.1461,1.1432,1.1335,1.1169,1.109,1.1036,1.0869,1.0773,1.0464,0.9922,0.9933,0.9981,0.9913,1.02,1.023,1.0244,1.0409,1.0532,1.0542,1.0672,1.0767,1.0934,1.1001,1.0986,1.1025,1.1175,1.1096,1.1194,1.1585,1.1883,1.2078,1.237,1.2764,1.2759,1.237,1.2078,1.198,1.1585,1.1292,1.1194,1.1194,1.1292,1.1585,1.0511,1.0036,1.0856,0.9545,0.834,0.8038,0.8038,0.8038,0.8038,0.8038,0.8038,0.8038,0.8038,0.8038,0.8038,0.8038,0.8038,2.3096,2.2905,2.2729,2.2729,2.2709,2.2056,2.1885,2.1855,2.1546,2.1461,2.1615,2.1316,2.1589,2.2252,2.2101,2.1883,2.1655,2.1807,2.1492,2.0886,2.0557,2.0313,2.0157,1.9696,1.924,1.8851,1.8772,1.8637,1.8495,1.8422,1.8442,1.8665,1.9033,1.9233,1.9274,1.906,1.8596,1.7858,1.7254,1.6905,1.6738,1.6319,1.5748,1.5013,1.4532,1.3881,1.3155,1.2927,1.27,1.255,1.2517,1.2453,1.2149,1.227,1.2266,1.2177,1.2183,1.2183,1.21,1.1933,1.1896,1.1759,1.1365,1.1107,1.1126,1.0932,1.0686,1.0546,1.0749,1.0803,1.0534,1.0808,1.0937,1.0843,1.0948,1.1058,1.1139,1.1168,1.121,1.1179,1.1194,1.1194,1.1194,1.1683,1.198,1.2078,1.2467,1.2764,1.2764,1.2473,1.2175,1.1975,1.1683,1.1389,1.1194,1.09,1.09,1.1096,1.0314,1.0036,1.0555,0.9442,0.8538,0.8038,0.8038,0.8038,0.8038,0.8038,0.8038,0.8038,0.8038,0.8038,0.8038,0.8038,0.8038,2.3381,2.3093,2.2922,2.2752,2.2722,2.2051,2.1822,2.199,2.182,2.1826,2.203,2.1688,2.1953,2.2787,2.2615,2.2421,2.2182,2.2294,2.2035,2.1349,2.1031,2.0789,2.0586,2.0036,1.9537,1.9066,1.8985,1.8945,1.895,1.8809,1.8922,1.929,1.9511,1.9656,1.9654,1.9587,1.8986,1.8057,1.7215,1.681,1.6656,1.6072,1.5609,1.5319,1.4352,1.3749,1.3684,1.3391,1.3105,1.2952,1.3087,1.2936,1.2517,1.259,1.2705,1.2705,1.2705,1.2735,1.2795,1.2683,1.2626,1.2545,1.1888,1.1758,1.2209,1.2029,1.1621,1.1293,1.1354,1.1296,1.0954,1.1218,1.1345,1.1163,1.1191,1.1268,1.1292,1.1292,1.1194,1.1194,1.1194,1.1194,1.1292,1.1688,1.2078,1.2273,1.2565,1.2764,1.2764,1.257,1.2273,1.2078,1.1785,1.1389,1.11,1.0703,1.0507,1.0605,0.9916,0.9834,1.0048,0.9545,0.8737,0.8137,0.8038,0.8038,0.8038,0.8038,0.8038,0.8038,0.8038,0.8038,0.8137,0.8038,0.8038,2.3028,2.2824,2.2551,2.2463,2.2444,2.2318,2.229,2.2339,2.2198,2.2441,2.2902,2.2563,2.2998,2.3853,2.33,2.3041,2.291,2.2594,2.2187,2.1731,2.1175,2.0789,2.0596,2.0311,1.9852,1.9297,1.9516,1.9423,1.917,1.9127,1.9324,1.9562,1.9453,1.9566,1.9728,1.8943,1.8474,1.8613,1.7674,1.7072,1.6672,1.6245,1.5673,1.4776,1.4341,1.3815,1.3468,1.3473,1.3553,1.358,1.3521,1.3287,1.3052,1.2869,1.2705,1.2711,1.2711,1.2807,1.3067,1.3129,1.3146,1.3079,1.24,1.2318,1.3025,1.3176,1.2811,1.1971,1.1703,1.1622,1.1642,1.1814,1.1823,1.1823,1.175,1.1673,1.1585,1.138,1.1179,1.1194,1.1194,1.1194,1.1292,1.1683,1.2175,1.2565,1.2662,1.2759,1.2759,1.2565,1.2467,1.2273,1.178,1.1194,1.09,1.0404,1.0109,1.0015,0.9422,0.9331,0.9545,0.9046,0.8038,0.8137,0.8038,0.8038,0.8038,0.8038,0.8038,0.8038,0.8038,0.8041,0.8233,0.8134,0.8035,2.2882,2.2794,2.253,2.2441,2.2353,2.2264,2.2264,2.2422,2.2358,2.2708,2.3292,2.3601,2.3897,2.4194,2.401,2.3627,2.3105,2.3144,2.2668,2.1828,2.1578,2.1185,2.0586,2.0182,1.9719,1.9102,1.9312,1.9454,1.9462,1.9694,1.9915,2.0052,1.9971,1.9875,1.9729,1.9577,1.9133,1.849,1.8523,1.7929,1.6962,1.6581,1.6066,1.528,1.467,1.406,1.3578,1.358,1.3591,1.3515,1.3512,1.3433,1.3155,1.304,1.2958,1.2964,1.3103,1.323,1.3344,1.3369,1.3332,1.3338,1.3181,1.3217,1.352,1.3489,1.3155,1.2791,1.2369,1.2042,1.1951,1.193,1.2073,1.2175,1.2063,1.1965,1.197,1.156,1.1165,1.1179,1.1189,1.1292,1.1492,1.1883,1.237,1.2764,1.2759,1.2759,1.2764,1.2662,1.2667,1.257,1.198,1.1292,1.0801,1.0113,0.962,0.9225,0.873,0.8638,0.8741,0.8542,0.8038,0.8038,0.8038,0.8038,0.8038,0.8038,0.8038,0.8038,0.8038,0.8137,0.8531,0.8432,0.8333,2.2803,2.2627,2.2353,2.2176,2.2176,2.2097,2.2097,2.2264,2.2353,2.2784,2.3406,2.4166,2.4483,2.4476,2.4647,2.4227,2.3566,2.3544,2.3001,2.1994,2.1869,2.1339,2.0644,2.038,1.9874,1.9218,1.9241,1.9463,1.9609,2.0047,2.0283,2.0201,2.0292,2.0027,1.9671,1.9894,1.9554,1.8643,1.8677,1.8255,1.7362,1.6899,1.6282,1.5411,1.4854,1.418,1.3567,1.3869,1.3868,1.3531,1.3745,1.3709,1.338,1.3309,1.3236,1.3254,1.3471,1.3616,1.3628,1.3688,1.3731,1.3749,1.383,1.3932,1.3956,1.373,1.3545,1.3431,1.2856,1.2462,1.2273,1.2268,1.237,1.2559,1.2457,1.2452,1.2467,1.1955,1.1556,1.1375,1.1282,1.1389,1.1683,1.2073,1.2467,1.2764,1.2759,1.2861,1.2861,1.2856,1.2764,1.2667,1.198,1.1292,1.0708,0.992,0.913,0.8634,0.8237,0.8038,0.8038,0.8038,0.8038,0.8038,0.8038,0.8038,0.8038,0.8038,0.8038,0.8137,0.8137,0.8237,0.8726,0.8531,0.8531,2.2794,2.2432,2.1919,2.1731,2.1741,2.1741,2.1731,2.183,2.2176,2.2706,2.3222,2.4069,2.4734,2.5051,2.507,2.4865,2.4367,2.362,2.3002,2.2408,2.2045,2.1359,2.0664,2.0967,2.0429,1.9379,1.9623,1.9773,1.9727,2.0095,2.0201,1.9928,2.0201,2.0119,1.9637,1.9372,1.9151,1.8975,1.7993,1.7493,1.7772,1.708,1.6047,1.505,1.4514,1.404,1.3642,1.4223,1.4339,1.3811,1.4321,1.433,1.387,1.3574,1.3501,1.3532,1.3749,1.3888,1.3918,1.4093,1.4226,1.4238,1.4232,1.4268,1.4244,1.4208,1.3949,1.3539,1.3055,1.2764,1.2759,1.2856,1.2958,1.305,1.3244,1.3255,1.3283,1.2764,1.237,1.1785,1.1477,1.1477,1.1878,1.2273,1.257,1.2764,1.2759,1.2759,1.2856,1.2856,1.2667,1.2273,1.1683,1.1002,1.0507,0.9723,0.8935,0.8435,0.8137,0.8038,0.8038,0.8038,0.8038,0.8038,0.8038,0.8038,0.8038,0.8038,0.8237,0.8233,0.8333,0.8528,0.8829,0.8627,0.8627,2.2706,2.2353,2.2097,2.1919,2.1919,2.182,2.1731,2.1741,2.2097,2.2353,2.2784,2.3484,2.4166,2.4744,2.5103,2.5117,2.4897,2.4298,2.3758,2.3255,2.259,2.204,2.1668,2.139,2.0712,1.9861,1.9992,2.0158,2.0061,2.0232,2.0292,2.0201,2.0201,2.0027,1.9654,1.9455,1.9265,1.8888,1.7796,1.7342,1.7498,1.6958,1.6181,1.5345,1.5132,1.4641,1.3746,1.4185,1.4275,1.4078,1.4231,1.427,1.3894,1.3768,1.3845,1.4002,1.4105,1.4159,1.4171,1.4238,1.4298,1.4298,1.4298,1.4298,1.4304,1.4328,1.4057,1.3551,1.3152,1.2958,1.2958,1.2953,1.3152,1.3534,1.3437,1.3551,1.367,1.2969,1.2165,1.1975,1.1775,1.1775,1.1975,1.237,1.2667,1.2764,1.2759,1.2662,1.236,1.2268,1.2073,1.1477,1.0792,1.031,1.0006,0.9525,0.9038,0.8435,0.8038,0.8137,0.8137,0.8038,0.8038,0.8038,0.8038,0.8038,0.8038,0.8237,0.8333,0.8531,0.863,0.873,0.9031,0.8832,0.8931,2.2706,2.253,2.2274,2.2185,2.2097,2.1919,2.1741,2.1741,2.2008,2.2176,2.252,2.3144,2.3831,2.4337,2.4935,2.5219,2.5146,2.4737,2.4175,2.3564,2.3002,2.2441,2.1938,2.1607,2.0957,2.0163,2.011,2.0138,2.0103,2.0232,2.0292,2.0201,2.0292,2.0119,1.9671,1.9587,1.9396,1.8819,1.784,1.7282,1.7326,1.6676,1.6109,1.5635,1.554,1.5042,1.4135,1.4453,1.4441,1.4176,1.4294,1.4345,1.405,1.4029,1.4111,1.4268,1.4298,1.4298,1.4298,1.4298,1.4298,1.4298,1.4298,1.4298,1.4298,1.4322,1.4033,1.3738,1.3443,1.3244,1.334,1.3152,1.3255,1.3738,1.363,1.3636,1.3864,1.2958,1.2262,1.2073,1.198,1.198,1.2175,1.257,1.2764,1.2759,1.2667,1.237,1.2278,1.1883,1.1619,1.1072,1.0613,1.0124,0.973,0.9345,0.898,0.846,0.8237,0.8237,0.8137,0.8038,0.8038,0.8038,0.8038,0.8041,0.8137,0.8336,0.863,0.8829,0.8931,0.9034,0.9133,0.9137,0.9133,2.2803,2.2803,2.253,2.2264,2.2097,2.2097,2.1919,2.1731,2.1919,2.2185,2.2441,2.3144,2.358,2.3927,2.469,2.5094,2.5072,2.4743,2.4158,2.3492,2.331,2.2633,2.1787,2.1826,2.124,2.0265,1.9913,1.9761,1.9855,2.0138,2.0201,2.0019,2.0201,2.0119,1.9579,1.9596,1.9487,1.9004,1.7971,1.752,1.7535,1.6581,1.5927,1.5832,1.5642,1.5132,1.439,1.4967,1.4954,1.4241,1.4672,1.4758,1.4315,1.4262,1.4292,1.4292,1.4298,1.4298,1.4298,1.4298,1.4298,1.4298,1.4298,1.4298,1.4298,1.4304,1.4214,1.3829,1.3636,1.3545,1.3738,1.3636,1.3636,1.3835,1.3829,1.3636,1.3443,1.3055,1.2565,1.2073,1.198,1.2078,1.237,1.2565,1.2662,1.2473,1.2273,1.2181,1.2407,1.183,1.1406,1.1234,1.0694,0.9892,0.9587,0.9267,0.8967,0.8589,0.8453,0.8333,0.8233,0.8137,0.8137,0.8038,0.8134,0.8137,0.8336,0.8531,0.8832,0.9034,0.9133,0.9133,0.9236,0.9236,0.9137,2.2969,2.2969,2.2794,2.2539,2.2264,2.2185,2.1919,2.1731,2.183,2.1998,2.2264,2.2618,2.3057,2.358,2.41,2.4433,2.4659,2.4608,2.4545,2.444,2.3893,2.3313,2.2886,2.239,2.1686,2.0783,2.0228,2.005,2.0103,2.0232,2.0292,2.0201,2.0292,2.011,1.9845,2.0004,1.992,1.9404,1.8396,1.7931,1.7908,1.6683,1.6123,1.6021,1.5832,1.5494,1.5126,1.5023,1.4835,1.4741,1.4659,1.4496,1.4358,1.4298,1.4298,1.4298,1.4298,1.4298,1.4298,1.4298,1.4298,1.4298,1.4298,1.4298,1.4298,1.4298,1.4208,1.3931,1.3835,1.3738,1.3642,1.3738,1.3829,1.4106,1.3823,1.3539,1.3238,1.2554,1.2068,1.1883,1.1883,1.198,1.1878,1.2078,1.2078,1.178,1.1585,1.1595,1.132,1.1213,1.072,1.0492,0.9969,0.9844,0.9515,0.9149,0.8845,0.8632,0.8464,0.8435,0.8333,0.8233,0.8134,0.8134,0.8233,0.8333,0.8531,0.8733,0.8935,0.9133,0.9232,0.9331,0.943,0.9232,0.8931,2.29,2.2823,2.2737,2.2563,2.233,2.2287,2.2087,2.182,2.1741,2.1919,2.2185,2.2353,2.2784,2.3319,2.3667,2.3917,2.4251,2.4423,2.4669,2.4765,2.4176,2.3667,2.3232,2.253,2.1811,2.1051,2.041,2.0248,2.0275,2.0292,2.0292,2.0292,2.0292,2.0201,2.0119,2.0186,2.0112,1.9687,1.879,1.8326,1.8001,1.6871,1.6224,1.6312,1.5927,1.5635,1.5527,1.5168,1.4974,1.4924,1.452,1.4337,1.4286,1.4298,1.4298,1.4298,1.4298,1.4298,1.4298,1.4298,1.4298,1.4298,1.4298,1.4298,1.4298,1.4298,1.4202,1.4118,1.3931,1.3835,1.3732,1.3636,1.3829,1.4016,1.3727,1.334,1.2953,1.2068,1.1575,1.1487,1.1389,1.1389,1.1487,1.159,1.159,1.1292,1.0998,1.0904,1.0538,1.0419,1.0117,1.0035,0.9963,0.9808,0.9414,0.9131,0.8819,0.8596,0.8378,0.835,0.8333,0.8131,0.8031,0.8131,0.823,0.8333,0.8432,0.873,0.9031,0.913,0.913,0.913,0.9031,0.8531,0.823,2.25,2.251,2.248,2.2368,2.2303,2.233,2.2306,2.2097,2.1919,2.2008,2.2353,2.2441,2.2706,2.3135,2.3493,2.3744,2.3831,2.4079,2.4327,2.4251,2.3917,2.3484,2.296,2.2176,2.1454,2.0988,2.0529,2.0275,2.0292,2.0292,2.0292,2.0292,2.0292,2.0292,2.03,2.0252,2.0169,1.9862,1.9277,1.8814,1.845,1.7145,1.6407,1.6588,1.6021,1.5642,1.5635,1.5514,1.5229,1.479,1.4573,1.437,1.4298,1.4298,1.4298,1.4298,1.4298,1.4298,1.4298,1.4298,1.4298,1.4298,1.4298,1.4298,1.4298,1.4298,1.4298,1.4298,1.4112,1.3931,1.3835,1.3636,1.3443,1.3346,1.3244,1.2953,1.2186,1.1492,1.1194,1.1096,1.0801,1.0605,1.1096,1.11,1.11,1.09,1.0609,1.0417,1.0435,1.0112,0.9928,0.9957,0.9983,0.9735,0.9324,0.922,0.8915,0.8631,0.851,0.8446,0.8531,0.8329,0.8127,0.8226,0.8127,0.823,0.8333,0.8432,0.8531,0.8535,0.8634,0.873,0.8428,0.7928,0.7733,2.2227,2.2471,2.2345,2.2402,2.264,2.2534,2.2524,2.2599,2.2353,2.2441,2.2618,2.2706,2.2794,2.2882,2.3144,2.3319,2.3406,2.3484,2.3474,2.3474,2.3406,2.3047,2.252,2.183,2.1284,2.0997,2.0555,2.0292,2.0292,2.0292,2.0292,2.0292,2.0292,2.0292,2.03,2.0252,2.0252,2.0226,2.0037,1.9393,1.8651,1.7792,1.7145,1.6885,1.6312,1.6028,1.5933,1.5642,1.5356,1.5191,1.479,1.449,1.4298,1.4298,1.4298,1.4298,1.4298,1.4298,1.4298,1.4298,1.4298,1.4298,1.4298,1.4298,1.4298,1.4298,1.4298,1.4298,1.4202,1.4112,1.3829,1.3431,1.284,1.2073,1.2268,1.217,1.1198,1.0708,1.0609,1.0609,1.0413,1.0408,1.0507,1.0605,1.0507,1.0216,1.0019,0.9924,0.9937,1.0016,0.9835,0.9823,0.9828,0.96,0.9403,0.9198,0.901,0.8747,0.8646,0.8634,0.8627,0.8627,0.8528,0.8531,0.7932,0.7932,0.7733,0.7733,0.7836,0.7935,0.7836,0.773,0.763,0.7332,0.7135,2.2212,2.263,2.2103,2.2266,2.2812,2.2703,2.2754,2.2824,2.2784,2.2794,2.2882,2.2969,2.2882,2.2969,2.3057,2.3144,2.3144,2.3144,2.3135,2.3047,2.3047,2.2794,2.2353,2.1919,2.1472,2.0997,2.0654,2.0473,2.0292,2.0292,2.0292,2.0292,2.0292,2.0292,2.0292,2.0317,2.0326,2.0209,1.9795,1.9144,1.8735,1.7893,1.734,1.6979,1.6508,1.6123,1.6028,1.5737,1.5553,1.528,1.4892,1.4592,1.4298,1.4298,1.4298,1.4298,1.4298,1.4298,1.4298,1.4298,1.4298,1.4298,1.4298,1.4298,1.4298,1.4298,1.4298,1.4118,1.4202,1.3913,1.3244,1.2651,1.1775,1.0998,1.0993,1.0998,1.0216,1.001,0.992,0.992,0.9817,0.9821,0.992,1.0019,0.992,0.9723,0.9723,0.9624,0.9636,0.9738,0.9714,0.9685,0.9623,0.9373,0.8991,0.871,0.8526,0.8275,0.8032,0.8134,0.8326,0.8428,0.8028,0.773,0.763,0.7434,0.7135,0.7033,0.7232,0.7232,0.6933,0.6833,0.6833,0.6637,0.6537,2.2266,2.2874,2.1967,2.2197,2.2964,2.2879,2.3001,2.3173,2.3047,2.3057,2.3144,2.3144,2.3047,2.3144,2.3057,2.3144,2.3144,2.3144,2.3144,2.3057,2.2882,2.2618,2.2344,2.2097,2.1642,2.1096,2.0835,2.0564,2.0382,2.0382,2.0292,2.0292,2.0292,2.0292,2.0292,2.03,2.0292,2.0102,1.9139,1.8788,1.8635,1.79,1.7254,1.7066,1.6697,1.6218,1.6021,1.5832,1.5743,1.5389,1.4885,1.4592,1.44,1.4298,1.4298,1.4298,1.4298,1.4298,1.4298,1.4298,1.4298,1.4298,1.4298,1.4298,1.4298,1.4202,1.401,1.3823,1.4016,1.3335,1.2268,1.1292,1.06,0.9916,0.9616,0.9612,0.962,0.9418,0.9122,0.913,0.8928,0.8931,0.9133,0.9434,0.9529,0.9624,0.9624,0.9624,0.9529,0.9569,0.9542,0.9505,0.933,0.9139,0.8638,0.8225,0.7951,0.7691,0.7275,0.7229,0.7425,0.7425,0.703,0.683,0.6833,0.6637,0.6337,0.6334,0.6531,0.6531,0.6337,0.6337,0.6234,0.5937,0.5739,2.2227,2.3062,2.2777,2.2988,2.3483,2.3273,2.3353,2.357,2.3232,2.3232,2.3319,2.3222,2.3135,2.3144,2.3144,2.3144,2.3144,2.3144,2.3144,2.3057,2.2891,2.2599,2.2246,2.1998,2.166,2.1293,2.0925,2.0654,2.0564,2.0464,2.0292,2.0292,2.0382,2.0292,2.0292,2.0292,2.0292,2.0093,1.9198,1.8756,1.8635,1.8179,1.7527,1.7239,1.6972,1.6595,1.6218,1.613,1.5947,1.5566,1.5083,1.4688,1.44,1.4298,1.4298,1.4298,1.4298,1.4298,1.4298,1.4298,1.4298,1.4298,1.4298,1.4298,1.4298,1.3913,1.3624,1.3232,1.2948,1.2365,1.1194,1.0502,0.9813,0.9126,0.863,0.8432,0.8435,0.8531,0.863,0.8535,0.8531,0.863,0.9137,0.9236,0.9434,0.9529,0.9624,0.9624,0.9529,0.9434,0.9275,0.9237,0.8829,0.8535,0.7932,0.7425,0.6977,0.6739,0.6329,0.6132,0.6329,0.6431,0.6132,0.6034,0.6037,0.5837,0.5536,0.5539,0.5636,0.5639,0.5636,0.5737,0.5634,0.5338,0.514,2.2573,2.3304,2.3053,2.3296,2.3861,2.3652,2.3598,2.3654,2.3657,2.358,2.358,2.3406,2.3232,2.3144,2.3144,2.3144,2.3144,2.3144,2.3067,2.3076,2.2901,2.2618,2.2255,2.1998,2.175,2.1383,2.1114,2.1015,2.0826,2.0736,2.0637,2.0645,2.0645,2.0555,2.0473,2.0473,2.0473,2.0201,1.9446,1.8996,1.8735,1.8087,1.7621,1.7246,1.716,1.6871,1.6407,1.6508,1.6319,1.5845,1.5458,1.5077,1.479,1.4592,1.4496,1.4496,1.4394,1.4298,1.4298,1.4298,1.4298,1.4298,1.4298,1.4112,1.4016,1.3636,1.3244,1.2748,1.236,1.1883,1.0511,0.9616,0.9023,0.863,0.8137,0.8038,0.8038,0.8137,0.8237,0.8237,0.8336,0.8531,0.8733,0.9034,0.9236,0.9331,0.9529,0.9529,0.9331,0.9236,0.9034,0.8759,0.8247,0.7746,0.7144,0.6534,0.5917,0.5504,0.5103,0.4918,0.5031,0.5133,0.5238,0.5238,0.5238,0.4935,0.4636,0.4738,0.4839,0.4939,0.5037,0.5135,0.5233,0.5035,0.5037,2.295,2.3512,2.3196,2.3502,2.3978,2.3893,2.3829,2.3836,2.3993,2.3841,2.3764,2.359,2.3319,2.3144,2.3144,2.3144,2.3144,2.3144,2.3076,2.3115,2.2813,2.2549,2.2293,2.2017,2.183,2.1482,2.1392,2.1203,2.1096,2.0997,2.0907,2.0997,2.0997,2.0907,2.0744,2.0654,2.0473,2.011,1.9496,1.8944,1.855,1.78,1.7333,1.7153,1.7153,1.7059,1.6777,1.6784,1.6595,1.5927,1.5832,1.5655,1.5376,1.4987,1.4688,1.4694,1.449,1.4298,1.4298,1.4298,1.4298,1.4298,1.4202,1.4016,1.3636,1.3244,1.2662,1.2273,1.1785,1.1292,1.0212,0.9221,0.863,0.8435,0.8137,0.8038,0.8038,0.8038,0.8038,0.8038,0.8137,0.8336,0.8535,0.8733,0.8935,0.9133,0.9331,0.9331,0.9133,0.8836,0.8531,0.8035,0.7534,0.6833,0.6234,0.5527,0.4908,0.4777,0.4184,0.4105,0.4124,0.423,0.4433,0.4336,0.4237,0.4034,0.4135,0.4336,0.4438,0.4438,0.4738,0.5037,0.5035,0.4834,0.4834,2.3125,2.3543,2.3859,2.4008,2.4034,2.3856,2.3953,2.4288,2.3917,2.3754,2.357,2.3503,2.3319,2.3144,2.3144,2.3144,2.3144,2.3144,2.3086,2.3037,2.2735,2.246,2.2223,2.2026,2.1741,2.1651,2.1482,2.1392,2.1293,2.1096,2.1087,2.0997,2.0997,2.0997,2.0898,2.061,2.0365,2.0036,1.9404,1.8735,1.8272,1.7707,1.7326,1.7239,1.7239,1.7145,1.6972,1.6979,1.6697,1.6218,1.613,1.5933,1.5648,1.507,1.4783,1.4688,1.449,1.4298,1.4298,1.4298,1.4298,1.4202,1.3913,1.363,1.3249,1.2559,1.198,1.1394,1.0605,0.9817,0.9118,0.8627,0.8333,0.8137,0.8038,0.8038,0.8038,0.8038,0.8038,0.8038,0.8038,0.8137,0.8336,0.8535,0.863,0.8836,0.9038,0.8733,0.8233,0.7932,0.763,0.7132,0.6537,0.5837,0.5135,0.4529,0.3917,0.4072,0.3772,0.3791,0.3709,0.3721,0.3828,0.3833,0.3736,0.3736,0.3835,0.4036,0.4336,0.4435,0.4736,0.5037,0.5037,0.4836,0.4638,2.2291,2.2645,2.3479,2.3662,2.3497,2.369,2.3559,2.3267,2.3458,2.3461,2.3295,2.3211,2.3232,2.3144,2.3144,2.3144,2.3144,2.3144,2.3106,2.2969,2.2754,2.2362,2.2124,2.1919,2.183,2.1741,2.1562,2.1562,2.1562,2.1463,2.1365,2.1374,2.1365,2.1275,2.1203,2.1122,2.0689,2.0261,1.9387,1.8627,1.8187,1.7613,1.7333,1.7333,1.7333,1.7239,1.7153,1.716,1.6871,1.6494,1.64,1.6211,1.5737,1.5261,1.4885,1.479,1.4496,1.4298,1.4298,1.4298,1.4202,1.3919,1.3528,1.3044,1.2559,1.178,1.1194,1.0511,0.9912,0.9027,0.863,0.8333,0.8137,0.8038,0.8038,0.8038,0.8038,0.8038,0.7939,0.7939,0.8038,0.8038,0.8137,0.8233,0.823,0.8435,0.8641,0.8137,0.7534,0.7132,0.6731,0.6437,0.5834,0.5018,0.4423,0.3827,0.3409,0.3373,0.3373,0.329,0.3302,0.3416,0.3426,0.3432,0.3433,0.3433,0.3534,0.3734,0.4034,0.4334,0.4435,0.4537,0.4839,0.4841,0.4437,2.1489,2.1558,2.2679,2.3066,2.2922,2.3353,2.3083,2.2508,2.3176,2.3421,2.3077,2.3152,2.3144,2.3144,2.3144,2.3144,2.3144,2.3047,2.3027,2.2997,2.2763,2.2274,2.1909,2.182,2.1909,2.1731,2.1651,2.1731,2.1642,2.1651,2.1642,2.1642,2.1642,2.1651,2.1491,2.1518,2.1302,2.0352,1.9471,1.8611,1.8087,1.7621,1.7333,1.7333,1.7333,1.7333,1.7239,1.7239,1.7059,1.6683,1.6494,1.6305,1.573,1.5261,1.4885,1.479,1.4394,1.4202,1.4202,1.3913,1.3624,1.3244,1.2942,1.2355,1.1775,1.1198,1.0609,0.9723,0.9229,0.8825,0.8531,0.8137,0.8038,0.8038,0.8038,0.8038,0.8038,0.7939,0.7839,0.7839,0.7842,0.7939,0.7939,0.7836,0.7832,0.7633,0.7839,0.7338,0.6736,0.6234,0.5934,0.5639,0.5131,0.4307,0.3709,0.342,0.3097,0.3058,0.2979,0.2806,0.2909,0.3015,0.3021,0.2927,0.3232,0.3332,0.3332,0.3332,0.3734,0.3934,0.3934,0.4135,0.434,0.4034,0.3429,2.1438,2.0968,2.1684,2.238,2.2911,2.2734,2.2926,2.3285,2.3567,2.3657,2.3325,2.3367,2.3319,2.3144,2.3144,2.3144,2.3047,2.2969,2.294,2.2909,2.2451,2.205,2.1731,2.1731,2.1704,2.1722,2.1731,2.1731,2.1695,2.1695,2.1731,2.1731,2.1731,2.1642,2.1472,2.1509,2.0969,1.9837,1.9147,1.8311,1.7606,1.7333,1.7333,1.7333,1.7333,1.7333,1.7333,1.7239,1.7052,1.6676,1.6588,1.6204,1.554,1.4771,1.4292,1.401,1.3817,1.3727,1.3721,1.3431,1.2953,1.2565,1.217,1.1683,1.1096,1.0708,1.0117,0.9335,0.9137,0.8832,0.8432,0.8137,0.8038,0.8038,0.8038,0.8038,0.7939,0.7329,0.7332,0.7338,0.7238,0.7537,0.7637,0.7437,0.7235,0.7135,0.6936,0.6431,0.5909,0.539,0.4931,0.4636,0.4514,0.3794,0.331,0.2918,0.2703,0.2663,0.2387,0.2312,0.221,0.221,0.2317,0.2422,0.2725,0.2927,0.2927,0.3029,0.3332,0.3534,0.343,0.3736,0.4041,0.3331,0.2319,2.0343,2.0464,2.1286,2.1702,2.2093,2.2284,2.2504,2.2739,2.3199,2.3172,2.3054,2.3153,2.3232,2.3125,2.3144,2.3144,2.3057,2.2969,2.2813,2.2696,2.2211,2.1803,2.163,2.153,2.1456,2.1713,2.1695,2.1539,2.1539,2.1621,2.1731,2.1722,2.1642,2.1463,2.1186,2.1122,2.0993,2.0288,1.9108,1.7785,1.7419,1.7333,1.7333,1.7333,1.7333,1.7333,1.7239,1.7153,1.6864,1.6487,1.6298,1.573,1.4962,1.4388,1.3908,1.3613,1.3039,1.2851,1.3141,1.2953,1.2467,1.198,1.159,1.1096,1.0413,0.9924,0.9624,0.9031,0.8832,0.8531,0.8333,0.8038,0.8038,0.7939,0.7939,0.7939,0.7736,0.6825,0.652,0.6528,0.6634,0.6637,0.6736,0.6634,0.6334,0.6034,0.5812,0.549,0.4944,0.4395,0.3961,0.3629,0.3506,0.3281,0.2906,0.2622,0.2217,0.1997,0.1598,0.1409,0.1205,0.1305,0.1405,0.1509,0.1713,0.2016,0.2319,0.2725,0.313,0.3029,0.2927,0.3025,0.3021,0.1813,0.0805,1.935,2.0068,2.0706,2.0998,2.1183,2.1898,2.2102,2.2175,2.2785,2.2969,2.2812,2.2988,2.3086,2.3027,2.3076,2.3144,2.3144,2.3047,2.2901,2.2522,2.2127,2.166,2.1459,2.1235,2.1475,2.1722,2.1548,2.1401,2.1282,2.1282,2.1304,2.1496,2.1507,2.1177,2.0727,2.0564,2.0577,2.0189,1.8443,1.7426,1.7333,1.7333,1.7333,1.7333,1.7246,1.7239,1.7145,1.6965,1.6683,1.6204,1.5818,1.5248,1.4388,1.3715,1.3329,1.2937,1.2262,1.198,1.2268,1.2175,1.1975,1.1487,1.1002,1.0413,0.9826,0.9335,0.9133,0.8829,0.8627,0.8333,0.8038,0.8038,0.8038,0.7939,0.7839,0.7839,0.7537,0.6426,0.5824,0.5832,0.5737,0.5336,0.5436,0.5534,0.5331,0.5031,0.4706,0.4466,0.411,0.3657,0.3506,0.3181,0.2783,0.2673,0.2405,0.2117,0.1713,0.1309,0.0805,0.0501,0.0399,0.0398,0.0496,0.0598,0.0699,0.1399,0.1992,0.2406,0.2927,0.303,0.2928,0.2311,0.1705,0.0401,-0.0604,1.8974,1.9662,1.9783,2.0262,2.1025,2.136,2.1879,2.232,2.2824,2.3018,2.296,2.3018,2.2853,2.2773,2.2988,2.3144,2.3057,2.2882,2.2851,2.2782,2.2372,2.1585,2.1291,2.1309,2.1612,2.1658,2.1502,2.1282,2.1062,2.082,2.0825,2.0893,2.1201,2.0854,2.0374,1.992,1.9463,1.9015,1.7714,1.734,1.7333,1.7333,1.7333,1.7239,1.7153,1.6979,1.6979,1.669,1.6305,1.573,1.5343,1.4573,1.3709,1.3044,1.2559,1.2165,1.178,1.1492,1.1585,1.1487,1.1096,1.0507,1.0117,0.9821,0.9529,0.9331,0.9031,0.8829,0.8432,0.8233,0.8038,0.8038,0.8038,0.7736,0.7434,0.7135,0.6734,0.5729,0.5129,0.5238,0.4937,0.4435,0.4234,0.4331,0.4431,0.423,0.3849,0.3617,0.3581,0.3154,0.3274,0.3021,0.2352,0.2072,0.1904,0.1409,0.0805,0.0401,0.01,-0.0298,-0.0492,-0.0491,-0.0294,-0.0293,-0.0098,0.0784,0.1378,0.1185,0.1392,0.2616,0.2719,0.1193,-0.0199,-0.1593,-0.2203,1.8102,1.8742,1.9001,1.9771,2.0799,2.0918,2.1478,2.2236,2.2334,2.252,2.2872,2.296,2.2882,2.2882,2.3008,2.3144,2.3057,2.3047,2.293,2.2668,2.2174,2.1678,2.1414,2.1246,2.1456,2.1551,2.152,2.1145,2.075,2.0638,2.0409,2.0512,2.0772,2.0329,1.9819,1.8996,1.8257,1.7978,1.7512,1.7333,1.7333,1.7333,1.7333,1.7333,1.7066,1.6878,1.6777,1.6298,1.5635,1.5064,1.458,1.3806,1.3033,1.2365,1.198,1.1585,1.1296,1.1194,1.1096,1.0998,1.0703,1.0216,0.9826,0.9529,0.943,0.913,0.8829,0.8531,0.8333,0.8137,0.8038,0.7939,0.7939,0.7534,0.7033,0.6531,0.5829,0.4929,0.4429,0.4433,0.3932,0.3429,0.3228,0.3228,0.3328,0.3422,0.3049,0.2793,0.2672,0.2651,0.257,0.25,0.1841,0.1172,0.0992,0.04,-0.0201,-0.04,-0.0695,-0.0883,-0.1163,-0.1159,-0.1058,-0.1054,-0.1147,-0.0673,-0.0483,-0.0776,-0.0586,-0.0198,-0.0394,-0.1072,-0.2349,-0.3365,-0.3393,1.7563,1.8064,1.8498,1.9165,2.0103,2.0404,2.1006,2.1633,2.1704,2.1975,2.263,2.2804,2.2892,2.293,2.3096,2.3135,2.3057,2.2969,2.292,2.257,2.2105,2.1776,2.1548,2.1371,2.1362,2.1596,2.1539,2.1172,2.0805,2.0512,2.0332,2.0187,2.0017,1.9618,1.9107,1.7978,1.7333,1.7333,1.7333,1.7239,1.7246,1.7246,1.7145,1.7052,1.6878,1.6697,1.6312,1.5927,1.5255,1.4484,1.3811,1.3039,1.2365,1.1785,1.159,1.1394,1.1194,1.1194,1.0998,1.0806,1.0507,1.0117,0.9628,0.943,0.9133,0.8931,0.863,0.8432,0.8134,0.7939,0.7839,0.7637,0.7338,0.6836,0.6134,0.5632,0.4931,0.4128,0.3828,0.353,0.3127,0.2724,0.2522,0.252,0.2407,0.2494,0.2439,0.2105,0.189,0.1877,0.1778,0.1611,0.125,0.0582,-0.0,-0.0591,-0.0987,-0.1272,-0.1458,-0.154,-0.1717,-0.1708,-0.1692,-0.1677,-0.1772,-0.2072,-0.227,-0.2275,-0.2971,-0.3692,-0.3385,-0.2696,-0.305,-0.3783,-0.3696,1.7453,1.7842,1.8292,1.8688,1.9115,1.9949,2.0365,2.0645,2.1347,2.1882,2.2303,2.2727,2.2776,2.2697,2.2843,2.296,2.2969,2.2882,2.2725,2.2441,2.2041,2.1615,2.1436,2.1329,2.1382,2.1355,2.1307,2.1273,2.1025,2.0274,2.0009,1.9895,1.9476,1.8904,1.8688,1.7792,1.7326,1.7333,1.7239,1.7153,1.7066,1.6972,1.6871,1.6683,1.64,1.6218,1.5832,1.5356,1.4682,1.3913,1.3136,1.2559,1.198,1.1492,1.1198,1.1198,1.1096,1.0998,1.0806,1.0507,1.0212,0.992,0.943,0.9232,0.9034,0.873,0.8432,0.8333,0.8038,0.7739,0.7437,0.7138,0.6739,0.6139,0.5436,0.4732,0.413,0.3528,0.3127,0.2927,0.2623,0.2321,0.2119,0.1813,0.16,0.158,0.1644,0.1523,0.1224,0.0937,0.0748,0.0468,0.019,-0.0385,-0.1067,-0.1456,-0.1842,-0.2112,-0.2093,-0.2076,-0.2151,-0.2136,-0.2113,-0.2178,-0.2371,-0.2677,-0.3145,-0.361,-0.4313,-0.484,-0.4401,-0.394,-0.413,-0.4196,-0.4203,1.6651,1.6936,1.7241,1.7664,1.821,1.904,1.9782,2.0348,2.1168,2.1719,2.2105,2.2413,2.2482,2.2494,2.2503,2.2706,2.2618,2.2608,2.2451,2.2017,2.1741,2.1454,2.1275,2.1203,2.1302,2.1445,2.1362,2.1231,2.1089,2.0193,1.9843,1.9641,1.8913,1.8415,1.8126,1.7613,1.7239,1.716,1.7066,1.6972,1.6777,1.6777,1.6683,1.6588,1.6123,1.5737,1.5343,1.4777,1.4004,1.3141,1.2462,1.2073,1.1585,1.11,1.1002,1.0904,1.0806,1.0413,1.0117,0.9826,0.9727,0.943,0.9335,0.9034,0.873,0.8531,0.8333,0.8134,0.7739,0.7437,0.7235,0.6639,0.6139,0.5438,0.4734,0.4031,0.3429,0.2827,0.2425,0.2324,0.2121,0.1615,0.1312,0.0605,0.0301,0.02,0.0196,0.0482,0.0286,-0.019,-0.0472,-0.0844,-0.1132,-0.1622,-0.2017,-0.2196,-0.237,-0.2533,-0.2422,-0.2315,-0.2386,-0.2552,-0.281,-0.297,-0.3157,-0.3348,-0.4083,-0.4738,-0.5225,-0.5458,-0.5158,-0.4959,-0.4966,-0.4948,-0.4893,1.617,1.635,1.6635,1.6975,1.7419,1.8311,1.9154,1.997,2.0598,2.1198,2.166,2.1873,2.2133,2.2296,2.2353,2.2353,2.2353,2.2176,2.2087,2.1642,2.1284,2.0916,2.0736,2.0744,2.0753,2.1024,2.1257,2.1291,2.0995,2.0219,1.9533,1.8986,1.8454,1.8095,1.78,1.7419,1.7239,1.7153,1.7066,1.6871,1.6683,1.6494,1.64,1.6211,1.5927,1.5629,1.4956,1.419,1.342,1.2554,1.1975,1.1683,1.1292,1.0998,1.0806,1.0708,1.0413,1.0117,0.9727,0.9533,0.9331,0.8836,0.8939,0.8836,0.8435,0.834,0.8038,0.7739,0.7338,0.6939,0.6537,0.5939,0.5338,0.4636,0.4033,0.3328,0.2725,0.2223,0.192,0.1819,0.1313,0.0908,0.0202,-0.0504,-0.1107,-0.1203,-0.1197,-0.0981,-0.0675,-0.1153,-0.1525,-0.1698,-0.1974,-0.2278,-0.246,-0.2704,-0.2775,-0.2931,-0.283,-0.2825,-0.281,-0.3064,-0.3409,-0.3846,-0.4391,-0.4844,-0.5369,-0.5838,-0.6253,-0.6415,-0.6317,-0.6053,-0.5885,-0.5851,-0.5907,1.6087,1.6087,1.6319,1.6596,1.7,1.7744,1.8535,1.9196,1.9606,2.0247,2.1099,2.1491,2.1783,2.2171,2.2069,2.2097,2.2176,2.182,2.1642,2.1383,2.0835,2.0374,2.0011,1.992,2.011,2.0382,2.0727,2.097,2.0836,2.0081,1.9117,1.8332,1.8034,1.777,1.7512,1.7326,1.7232,1.7059,1.6965,1.6683,1.6494,1.6305,1.6116,1.5927,1.5642,1.535,1.4771,1.4094,1.342,1.2646,1.2068,1.1585,1.1194,1.0904,1.0806,1.0609,1.0216,0.992,0.9529,0.9232,0.8836,0.834,0.8347,0.8343,0.824,0.7945,0.7643,0.7338,0.6939,0.6139,0.5541,0.5037,0.4535,0.3934,0.333,0.2726,0.2121,0.1718,0.1516,0.1111,0.0505,-0.0202,-0.1008,-0.1815,-0.2521,-0.2416,-0.2504,-0.238,-0.2152,-0.2047,-0.2314,-0.2364,-0.2548,-0.2745,-0.2906,-0.3131,-0.3281,-0.3442,-0.3522,-0.3422,-0.3494,-0.3833,-0.4341,-0.5041,-0.5783,-0.6404,-0.6974,-0.7102,-0.7187,-0.7272,-0.7688,-0.7372,-0.7221,-0.7152,-0.7193,1.5673,1.5824,1.5899,1.6125,1.6633,1.7151,1.7894,1.869,1.8801,1.923,1.9832,2.0566,2.0902,2.1065,2.1435,2.1615,2.1553,2.1365,2.1096,2.0736,2.0292,1.992,1.9737,1.9554,1.9646,1.992,2.0192,2.0464,2.0266,1.9661,1.8843,1.7902,1.7647,1.7412,1.7333,1.7333,1.7145,1.6958,1.6777,1.6494,1.6204,1.6021,1.5927,1.5737,1.5324,1.4943,1.419,1.3403,1.263,1.1873,1.1385,1.0998,1.1194,1.0609,1.0216,0.992,0.9723,0.9525,0.9126,0.8928,0.8535,0.7842,0.7746,0.754,0.7441,0.7241,0.7045,0.6739,0.6337,0.5636,0.4937,0.4435,0.3831,0.3128,0.2726,0.2324,0.1819,0.1313,0.101,-0.0101,-0.0706,-0.1412,-0.2318,-0.3226,-0.3732,-0.3732,-0.3616,-0.3482,-0.3355,-0.314,-0.2996,-0.2934,-0.3095,-0.3282,-0.3341,-0.3559,-0.3796,-0.3944,-0.4119,-0.4383,-0.4905,-0.5232,-0.5613,-0.6393,-0.749,-0.8151,-0.8585,-0.8595,-0.848,-0.9087,-0.9508,-0.8984,-0.8582,-0.8502,-0.859,1.5506,1.5582,1.5582,1.5831,1.6319,1.6648,1.7159,1.7665,1.8036,1.8431,1.8769,1.9418,1.9791,2.0017,2.0412,2.0578,2.0555,2.0456,2.0365,2.0283,1.9637,1.9371,1.9188,1.9004,1.8904,1.918,1.9554,1.9828,1.9646,1.9004,1.8172,1.7707,1.7426,1.7333,1.7239,1.7246,1.6965,1.6777,1.6588,1.6305,1.6116,1.5832,1.5825,1.5602,1.4988,1.4291,1.3663,1.2871,1.1976,1.1468,1.1194,1.09,1.09,1.0314,0.9727,0.9525,0.9327,0.9027,0.873,0.8627,0.8035,0.7441,0.7144,0.6839,0.6434,0.6032,0.6037,0.5939,0.5536,0.5035,0.4433,0.3729,0.3026,0.2322,0.2222,0.2021,0.1515,0.0909,-0.0,-0.1209,-0.2015,-0.272,-0.3528,-0.4438,-0.4843,-0.4537,-0.4409,-0.4356,-0.4126,-0.3712,-0.3547,-0.3373,-0.3623,-0.3791,-0.393,-0.4256,-0.4589,-0.4919,-0.5186,-0.5534,-0.6139,-0.6822,-0.7302,-0.8233,-0.9352,-0.9743,-1.0059,-0.9986,-0.9932,-1.0534,-1.0794,-1.0314,-0.9986,-0.9906,-1.0159,1.5347,1.5431,1.5431,1.568,1.6079,1.6319,1.6417,1.6468,1.7278,1.7647,1.7937,1.8347,1.8658,1.8904,1.9339,1.9485,1.957,1.9579,1.9637,1.9737,1.8812,1.8442,1.8357,1.8087,1.8164,1.8434,1.8804,1.9096,1.8912,1.8458,1.8001,1.7636,1.7434,1.7239,1.7239,1.7066,1.6878,1.6588,1.64,1.6211,1.6123,1.5927,1.571,1.5442,1.4841,1.4078,1.3601,1.2824,1.1888,1.1549,1.1253,1.0654,1.0408,1.007,0.9587,0.9232,0.9031,0.8829,0.8531,0.8329,0.7531,0.7039,0.6745,0.6039,0.5434,0.4926,0.4931,0.5135,0.4734,0.4232,0.3629,0.3226,0.2724,0.2222,0.192,0.1212,0.0303,-0.0403,-0.1511,-0.2518,-0.3123,-0.3828,-0.4232,-0.5041,-0.5313,-0.5022,-0.5092,-0.5125,-0.4947,-0.453,-0.436,-0.4072,-0.4225,-0.4557,-0.4975,-0.5297,-0.5555,-0.5805,-0.6248,-0.6776,-0.7383,-0.8162,-0.9022,-0.9913,-1.0845,-1.1048,-1.1198,-1.1348,-1.1466,-1.1569,-1.1735,-1.1461,-1.1322,-1.1548,-1.1727,1.5257,1.5431,1.5431,1.559,1.5824,1.6079,1.617,1.6162,1.6566,1.6696,1.6731,1.7287,1.7657,1.7744,1.8482,1.8742,1.8677,1.8545,1.868,1.848,1.7825,1.7579,1.7662,1.7402,1.7453,1.7699,1.7978,1.8326,1.8265,1.8001,1.7729,1.7628,1.734,1.7059,1.7059,1.6885,1.6602,1.6312,1.6021,1.5832,1.554,1.5602,1.5468,1.4728,1.3906,1.3136,1.2395,1.145,1.0767,1.0359,1.0223,0.9959,0.9809,0.9591,0.9413,0.9205,0.873,0.8432,0.8134,0.7733,0.7036,0.6537,0.6039,0.5135,0.4431,0.3925,0.3725,0.4031,0.3932,0.3428,0.3025,0.2724,0.2423,0.2121,0.1515,0.0303,-0.0908,-0.2016,-0.3022,-0.3627,-0.4232,-0.4636,-0.5039,-0.5325,-0.5591,-0.576,-0.5826,-0.5942,-0.5787,-0.5428,-0.5478,-0.5285,-0.5065,-0.5389,-0.5988,-0.6425,-0.6776,-0.7126,-0.7478,-0.8097,-0.8619,-0.962,-1.058,-1.1413,-1.2147,-1.233,-1.2668,-1.3218,-1.3256,-1.3021,-1.2936,-1.2832,-1.3419,-1.3717,-1.3698,1.4667,1.5068,1.5173,1.5416,1.5567,1.5824,1.5914,1.5914,1.5982,1.5816,1.5771,1.6354,1.6676,1.6622,1.7328,1.7536,1.7466,1.7417,1.7281,1.7197,1.7047,1.6776,1.6699,1.6677,1.6591,1.6726,1.7184,1.7435,1.7569,1.7441,1.7355,1.7239,1.6864,1.6777,1.6777,1.6501,1.6224,1.6028,1.5642,1.5242,1.4854,1.4835,1.4627,1.3872,1.2921,1.2063,1.1415,1.06,1.0136,0.9952,0.9845,0.9569,0.9389,0.8916,0.8652,0.8305,0.7932,0.763,0.7332,0.6936,0.6334,0.5734,0.5741,0.5039,0.3528,0.3024,0.2922,0.3127,0.3127,0.2724,0.2623,0.2423,0.2121,0.1819,0.0404,-0.1109,-0.242,-0.3629,-0.4332,-0.4832,-0.5236,-0.5438,-0.5839,-0.6237,-0.6391,-0.6208,-0.6365,-0.6536,-0.6459,-0.6687,-0.6619,-0.6656,-0.6615,-0.6776,-0.7298,-0.7738,-0.8181,-0.8532,-0.8877,-0.9329,-0.989,-1.108,-1.2075,-1.2475,-1.2917,-1.3494,-1.3961,-1.426,-1.4371,-1.3964,-1.4132,-1.4378,-1.4963,-1.5538,-1.5523,1.381,1.4511,1.483,1.5101,1.5267,1.5553,1.5575,1.5567,1.5394,1.5235,1.5082,1.559,1.5606,1.5667,1.5906,1.5755,1.5807,1.6014,1.5951,1.5937,1.5791,1.5672,1.5666,1.5728,1.5777,1.5944,1.6349,1.6614,1.6937,1.6858,1.6664,1.6525,1.6459,1.6473,1.6271,1.6015,1.5642,1.5324,1.4918,1.4315,1.4046,1.3776,1.3601,1.2918,1.1955,1.0997,1.0529,1.0094,0.9713,0.9513,0.9376,0.9052,0.8649,0.8122,0.7664,0.7306,0.6866,0.6479,0.6103,0.5924,0.5229,0.4834,0.5142,0.4539,0.2927,0.2423,0.2321,0.222,0.2321,0.2321,0.2221,0.2019,0.1818,0.0808,-0.0907,-0.2519,-0.3729,-0.4839,-0.5338,-0.5837,-0.6139,-0.6239,-0.6714,-0.7114,-0.7236,-0.7046,-0.7028,-0.7085,-0.7319,-0.784,-0.8089,-0.8396,-0.8619,-0.8782,-0.8873,-0.9135,-0.9575,-1.0183,-1.0595,-1.081,-1.1153,-1.2146,-1.2714,-1.2864,-1.3408,-1.422,-1.458,-1.4796,-1.4817,-1.5047,-1.5228,-1.547,-1.5959,-1.6535,-1.7115,1.2763,1.3614,1.4177,1.4451,1.4568,1.4961,1.5075,1.4985,1.5054,1.4908,1.4518,1.4384,1.4453,1.4585,1.5019,1.4957,1.4636,1.479,1.4894,1.492,1.4648,1.4661,1.4711,1.492,1.5363,1.5603,1.5742,1.6021,1.6176,1.6118,1.6033,1.5961,1.5745,1.5617,1.5365,1.5175,1.4968,1.4632,1.3702,1.2853,1.3299,1.3098,1.2736,1.2077,1.1226,1.0257,0.9629,0.9168,0.8992,0.8755,0.8387,0.8155,0.7621,0.7095,0.6617,0.631,0.5874,0.5623,0.5349,0.5005,0.4422,0.4031,0.4135,0.3533,0.2424,0.202,0.1919,0.1818,0.1818,0.1717,0.1616,0.1414,0.1111,-0.0908,-0.2823,-0.383,-0.5039,-0.5441,-0.5737,-0.6337,-0.6836,-0.7189,-0.7609,-0.8146,-0.8806,-0.8773,-0.8999,-0.9013,-0.8877,-0.9248,-0.9634,-1.0038,-1.0433,-1.0616,-1.0621,-1.0702,-1.1052,-1.1746,-1.2116,-1.2194,-1.2397,-1.2943,-1.338,-1.3595,-1.4165,-1.5029,-1.5282,-1.5501,-1.6011,-1.6242,-1.6296,-1.6558,-1.7041,-1.7513,-1.7997]}]]